     2.11           OBSERVATION DATA    G (GPS)             RINEX VERSION / TYPE
teqc 2010Oct21 OPUS Account 20111025 14:51:58UTC            PGM / RUN BY / DATE
H 1521                                                      MARKER NAME
1127                                                        MARKER NUMBER
CSMIDDLETON NGS                                             OBSERVER / AGENCY
0220287165 TRIMBLE 5700 NP 2.32 / SP 2.32                   REC # / TYPE / VERS
11909788 TRM41249.00 NONE                                   ANT # / TYPE
  -738802.9780 -5466248.6333  3191848.6179                  APPROX POSITION XYZ
        1.9990        0.0000        0.0000                  ANTENNA: DELTA H/E/N
     1     1                                                WAVELENGTH FACT L1/2
     5    L1    L2    C1    P1    P2                        # / TYPES OF OBSERV
  2011     7    24     0     0    0.0000000     GPS         TIME OF FIRST OBS
                                                            END OF HEADER
 11  7 24  0  0  0.0000000  0  8G17G02G20G09G10G04G27G28
    219524.18047    223467.20746  21044966.2034                   21044963.6884
  57247713.64146  44661463.69944  22739000.4614                   22738997.5474
  59893348.44946  46707595.86343  23893834.4694                   23893832.9694
  55805117.96947  43535225.55144  22277181.0314                   22277179.9024
  74184318.70346  57848482.72743  24042236.2734   24042237.7344   23626668.71147
  18465141.85546                  19939697.4064                   19939694.5824
  40916806.10547  31933446.01245  22394799.1094                   22394797.5744
 -15101590.14548 -11729815.60245  21399167.7814                   21399165.2774
 11  7 24  0  0 30.0000000  0  8G17G02G20G09G10G04G27G28
   1712092.24647   1386507.26645  21328992.7034                   21328990.1054
  58623645.66447  45733618.61344  23000832.3134                   23000829.3754
  61375422.62146  47862458.87543  24175864.2814                   24175862.8364
  57221741.92647  44639088.37144  22546755.8914                   22546753.9344
  75555391.73045  58916851.64543  24303141.3754   24303144.9734   25057009.76247
                                  19579693.35946  20211881.7974   20211879.4104
  42354896.64547  33054036.02344  22668459.0944                   22668456.8954
 -13598157.69547 -10558309.83645  21685261.7584                   21685258.6054
 11  7 24  0  1  0.0000000  0  8G17G02G20G09G10G04G27G28
   1629515.95747   1322162.11345  21313279.1334                   21313275.6764
  58424554.86346  45578483.02044  22962946.2034                   22962943.3014
  61282742.88746  47790240.94143  24158227.3054                   24158226.6484
  57063703.06647  44515941.22744  22516682.0784                   22516680.4104
  75351143.48845  58757697.43043  24264274.1484   24264277.6884   24912659.02047
                                  19467212.29746  20184412.2974   20184410.1954
  42218210.04747  32947526.98844  22642448.6804                   22642446.7504
 -13669620.64847 -10613995.27745  21671663.2034                   21671659.9494
 11  7 24  0  1 30.0000000  0  8G17G02G20G09G10G04G27G28
   1547210.68447   1258028.14545  21297616.6254                   21297613.8204
  58225863.75847  45423658.86744  22925136.5634                   22925134.0664
  61190726.48046  47718539.86342  24140717.3524                   24140716.0594
  56906422.52747  44393384.99644  22486752.4384                   22486750.9344
  75146997.79345  58598623.22342  24225426.9844   24225429.6604   24769035.68847
                                  19355298.04346  20157082.1254   20157079.7774
  42082165.36747  32841518.13345  22616560.0314                   22616558.1214
 -13740561.81247 -10669274.12145  21658162.8444                   21658160.1454
 11  7 24  0  2  0.0000000  0  8G17G02G20G09G10G04G27G28
   1465176.85947   1194105.68045  21282005.8834                   21282003.3594
  58027574.62947  45269147.90244  22887403.3754                   22887400.1564
  61099374.22346  47647356.27343  24123333.5864                   24123331.4104
  56749902.57447  44271421.42244  22456967.8674                   22456965.7504
  74942958.44546  58439631.78943  24186599.3284   24186601.3204   24626141.21548
                                  19243951.73446  20129890.3134   20129887.9804
  41946764.10247  32736010.62544  22590794.1334                   22590792.2194
 -13810979.76247 -10724145.27745  21644763.2424                   21644760.1334
 11  7 24  0  2 30.0000000  0  8G17G02G20G09G10G04G27G28
   1383410.47347   1130391.62945  21266446.8054                   21266443.6604
  57829685.94947  45114949.03544  22849746.0554                   22849743.8954
  61008682.75446  47576687.59842  24106075.4064                   24106073.8634
  56594141.19947  44150048.93844  22427327.1174                   22427325.8054
  74739024.53146  58280722.53943  24147790.9304   24147793.3834   24483972.62547
                                  19133171.04746  20102836.2974   20102833.9774
  41812003.35547  32631002.24244  22565150.0554                   22565148.1174
 -13880877.91448 -10778611.39545  21631462.4064                   21631459.1294
 11  7 24  0  3  0.0000000  0  8G17G02G20G09G10G04G27G28
   1301913.60547   1066887.57845  21250938.3524                   21250935.4384
  57632201.98847  44961065.50045  22812166.0234                   22812162.9064
  60918654.79746  47506536.02042  24088943.7974                   24088941.5594
  56439142.77747  44029270.96544  22397832.1094                   22397830.5204
  74535201.92245  58121899.97343  24109005.1334   24109007.0204   24342533.12947
                                  19022958.48446  20075921.2424   20075918.9614
  41677886.50847  32526495.58644  22539627.7194                   22539626.4534
 -13950252.73447 -10832669.70745  21618259.8594                   21618257.6294
 11  7 24  0  3 30.0000000  0  8G17G02G20G09G10G04G27G28
   1220684.12947   1003591.87945  21235480.6414                   21235478.0004
  57435122.63347  44807497.27344  22774663.2734                   22774660.1414
  60829288.96146  47436900.29343  24071937.9144                   24071935.7274
  56284907.21547  43909087.43044  22368481.8834                   22368480.5554
  74331491.88745  57963165.16042  24070238.4064   24070241.8244   24201821.64847
                                  18913313.21146  20049144.6254   20049142.4224
  41544412.54347  32422489.89144  22514228.2114                   22514227.0234
 -14019105.42247 -10886321.17245  21605158.2034                   21605155.3984
 11  7 24  0  4  0.0000000  0  8G17G02G20G09G10G04G27G28
   1139715.79347    940499.67245  21220072.8524                   21220069.9534
  57238444.17647  44654241.40244  22737236.1414                   22737233.8484
  60740579.51646  47367776.05942  24055057.0474                   24055055.4024
  56131430.22747  43789495.00044  22339276.2894                   22339274.6884
  74127891.85245  57804516.03542  24031495.4534   24031497.4734   24061832.94547
                                  18804231.12946  20022505.9614   20022503.4104
  41411576.27747  32318981.09044  22488950.8834                   22488949.0434
 -14087441.21547 -10939569.85545  21592153.9454                   21592150.7704
 11  7 24  0  4 30.0000000  0  8G17G02G20G09G10G04G27G28
   1059006.41047    877609.24245  21204714.5784                   21204711.3754
  57042166.26247  44501297.68844  22699885.5164                   22699883.1724
  60652524.88346  47299162.11343  24038300.3054                   24038299.4454
  55978711.56647  43670493.48044  22310214.9694                   22310212.9384
  73924402.83645  57645953.40242  23992772.9774   23992774.8984   23922565.68447
                                  18695711.20346  19996003.9924   19996001.6684
  41279376.51247  32215968.27345  22463793.6804                   22463792.4104
 -14155261.44547 -10992416.80545  21579248.8364                   21579245.6884
 11  7 24  0  5  0.0000000  0  8G17G02G20G09G10G04G27G28
    978544.37547    814911.55546  21189403.2814                   21189400.5274
  56846279.70347  44348658.89844  22662609.2424                   22662606.4884
  60565113.95746  47231049.70343  24021667.3284                   24021664.9414
  55826741.92647  43552075.60544  22281295.9614                   22281294.1214
  73721016.69545  57487470.93842  23954069.1094   23954072.8364   23784009.43047
                                  18587745.32446  19969637.3834   19969635.7114
  41147803.13747  32113443.53945  22438756.6484                   22438755.3554
 -14222576.71147 -11044870.29345  21566439.2344                   21566435.7274
 11  7 24  0  5 30.0000000  0  8G17G02G20G09G10G04G27G28
    898342.28147    752416.41046  21174141.2504                   21174138.4344
  56650798.75047  44196336.18844  22625411.1564                   22625408.0394
  60478359.53546  47163448.84842  24005157.4694                   24005156.3674
  55675535.11747  43434252.16444  22252522.1484                   22252520.8674
  73517749.35945  57329081.03142  23915387.6564   23915392.1764   23646177.35947
                                  18480343.73446  19943409.1174   19943406.8094
  41016869.27747  32011417.13744  22413840.6254                   22413839.4144
 -14289373.65248 -11096919.89545  21553728.0944                   21553725.1524
 11  7 24  0  6  0.0000000  0  8G17G02G20G09G10G04G27G28
    818386.62147    690113.28546  21158926.0944                   21158923.7664
  56455712.33247  44044320.92244  22588287.1024                   22588284.0234
  60392248.78146  47096349.60542  23988771.7114                   23988770.5084
  55525079.71547  43317014.23844  22223891.8914                   22223889.9884
  73314591.19545  57170776.17242  23876729.1414   23876732.5234   23509056.82447
                                  18373496.58646  19917315.8444   19917313.6844
  40886562.57047  31909879.43844  22389044.7664                   22389042.3054
 -14355664.59847 -11148575.18745  21541112.9534                   21541110.4264
 11  7 24  0  6 30.0000000  0  8G17G02G20G09G10G04G27G28
    738679.27747    628003.65646  21143758.2274                   21143755.6024
  56261024.44947  43892616.17244  22551239.4064                   22551236.1054
  60306783.92646  47029753.59042  23972508.7974                   23972506.7504
  55375379.64847  43200364.89544  22195404.2424                   22195402.8364
  73111547.41045  57012560.43842  23838091.6334   23838093.8444   23372650.75847
                                  18267206.16846  19891358.8834   19891356.7344
  40756886.05547  31808832.81344  22364367.5474                   22364365.9494
 -14421447.23848 -11199834.41445  21528594.7504                   21528592.1724
 11  7 24  0  7  0.0000000  0  8G17G02G20G09G10G04G27G28
    659213.96947    566082.63346  21128636.8524                   21128633.8714
  56066730.98447  43741218.79345  22514266.1484                   22514263.2774
  60221959.45346  46963656.63342  23956367.0394                   23956364.7664
  55226430.43047  43084300.62544  22167060.4844                   22167058.7734
  72908615.46146  56854431.91842  23799474.0474   23799476.4924   23236953.69948
                                  18161468.22746  19865536.3834   19865534.5274
  40627834.35547  31708273.02345  22339809.8914                   22339808.1844
 -14486726.13747 -11250701.11745  21516172.5474                   21516169.8954
 11  7 24  0  7 30.0000000  0  8G17G02G20G09G10G04G27G28
   2155411.09847   1731950.51646  21413353.3284                   21413350.8674
  57448258.47347  44817733.83644  22777161.8054                   22777159.2194
  61713196.19546  48125659.32042  24240139.6724                   24240138.4144
  56653656.62547  44196424.96144  22438652.5314                   22438650.5514
  74281223.33646  57923996.72342  24060672.8284   24060674.8054   24677388.85548
                                  19283885.25046  20139642.1484   20139639.9654
  42074830.39147  32835802.38344  22615164.2894                   22615162.4104
 -12976080.60947 -10073574.75445  21803639.6644                   21803637.0204
 11  7 24  0  8  0.0000000  0  8G17G02G20G09G10G04G27G28
   2076424.35247   1670402.38745  21398322.5864                   21398320.0594
  57254754.66047  44666951.75844  22740339.4454                   22740336.2584
  61629647.89546  48060556.74243  24224241.9694                   24224239.9924
  56506208.97347  44081530.72744  22410594.6254                   22410592.4694
  74078519.69946  57766046.04742  24022100.0554   24022100.9884   24543106.71148
                                  19179249.83646  20114089.2344   20114086.8204
  41947025.35247  32736214.04344  22590843.6804                   22590841.9184
 -13040355.77347 -10123659.30145  21791408.3984                   21791405.0164
 11  7 24  0  8 30.0000000  0  8G17G02G20G09G10G04G27G28
   1997681.50047   1609044.30945  21383338.9924                   21383335.9024
  57061653.45347  44516483.38345  22703593.3984                   22703590.1994
  61546742.65646  47995955.29743  24208464.6094                   24208463.0474
  56359519.03147  43967226.92244  22382679.3594                   22382678.2234
  73875939.82046  57608191.73043  23983550.2034   23983551.6914   24409537.64848
                                  19075170.07046  20088671.5554   20088669.5234
  41819849.68847  32637116.14144  22566643.1174                   22566641.4024
 -13104123.28547 -10173348.30945  21779273.7424                   21779270.5234
 11  7 24  0  9  0.0000000  0  8G17G02G20G09G10G04G27G28
   1919175.59847   1547870.86345  21368399.0164                   21368396.7934
  56868949.13347  44366324.28144  22666923.2814                   22666919.9304
  61464473.72346  47931849.66843  24192808.5784                   24192807.5124
  56213581.54347  43853509.43044  22354909.1414                   22354907.2814
  73673480.25046  57450431.21943  23945023.4144   23945025.1254   24276675.32848
                                  18971641.00446  20063388.7894   20063386.1334
  41693297.03947  32538503.68844  22542560.8284                   22542558.8634
 -13167389.60947 -10222646.74645  21767234.1884                   21767231.7664
 11  7 24  0  9 30.0000000  0  8G17G02G20G09G10G04G27G28
   1840906.76647   1486882.13745  21353505.0084                   21353501.9264
  56676644.67647  44216476.75844  22630328.6414                   22630325.0664
  61382841.48846  47868240.16042  24177275.3984                   24177273.7624
  56068398.25847  43740379.60244  22327281.3524                   22327279.6884
  73471144.80146  57292767.41443  23906519.7114   23906521.3094   24144520.52048
                                  18868663.23846  20038240.7974   20038238.4454
  41567368.46147  32440377.54344  22518597.6254                   22518595.4304
 -13230153.49647 -10271553.71545  21755290.9144                   21755287.9414
 11  7 24  0 10  0.0000000  0  8G17G02G20G09G10G04G27G28
   1762872.33247   1426076.07445  21338656.0784                   21338652.8324
  56484739.32447  44066940.21144  22593810.1954                   22593806.7704
  61301843.77746  47805125.08643  24161862.1954                   24161860.7854
  55923968.43847  43627836.90644  22299796.8134                   22299795.2774
  73268934.59446  57135201.18843  23868041.5784   23868041.8484   24013071.51648
                                  18766235.46546  20013226.4694   20013224.2274
  41442062.31647  32342736.40245  22494752.1884                   22494750.9304
 -13292416.48047 -10320070.33645  21743442.3674                   21743439.5704
 11  7 24  0 10 30.0000000  0  8G17G02G20G09G10G04G27G28
   1685074.30547   1365454.21945  21323851.8674                   21323848.5824
  56293236.83647  43917717.57845  22557368.5704                   22557365.4104
  61221482.83246  47742506.19542  24146569.7734                   24146568.5204
  55780295.53547  43515883.97344  22272457.2114                   22272455.3364
  73066854.85946  56977736.64843  23829586.2584   23829587.0784   23882330.70347
                                  18664359.52746  19988347.4384   19988344.9024
  41317381.07847  32245582.19944  22471025.7894                   22471024.6024
 -13354176.29347 -10368194.88745  21731689.7814                   21731687.7664
 11  7 24  0 11  0.0000000  0  8G17G02G20G09G10G04G27G28
   1607511.70347   1305015.81345  21309092.1724                   21309088.6094
  56102138.44147  43768809.84045  22521003.4304                   22521000.1134
  61141757.74245  47680382.74242  24131398.3674                   24131397.7704
  55637380.02347  43404521.21944  22245261.8594                   22245259.2114
  72864908.16846  56820375.75443  23791156.1254   23791157.5354   23752297.56348
                                  18563035.02046  19963603.0634   19963600.8134
  41193324.69947  32148914.89545  22447419.2814                   22447417.0274
 -13415432.88347 -10415927.31245  21720033.3134                   21720030.7194
 11  7 24  0 11 30.0000000  0  8G17G02G20G09G10G04G27G28
   1530191.36347   1244766.18846  21294378.0704                   21294375.5824
  55911452.66847  43620223.60244  22484717.2424                   22484713.7234
  61062675.13745  47618759.93442  24116350.0234                   24116348.2034
  55495230.04347  43293754.98844  22218211.2584                   22218209.5354
  72663105.09046  56663126.78942  23752754.1414   23752755.1374   23622979.57048
                                  18462267.76646  19938994.4774   19938992.9144
  41069900.50847  32052740.21944  22423932.0234                   22423930.8634
 -13476179.24247 -10463262.16045  21708473.5314                   21708471.1564
 11  7 24  0 12  0.0000000  0  8G17G02G20G09G10G04G27G28
   1453109.24647   1184702.19545  21279709.6804                   21279707.1644
  55721177.58647  43471957.39845  22448509.0554                   22448505.1374
  60984231.44145  47557634.97343  24101422.1334                   24101420.6884
  55353843.14547  43183583.35244  22191306.1334                   22191304.6174
  72461444.85546  56505989.13742  23714379.5864   23714380.0474   23494373.12948
                                  18362054.97746  19914521.5004   19914519.1374
  40947105.34047  31957055.66445  22400565.0234                   22400563.9304
 -13536418.60547 -10510201.94145  21697010.9774                   21697007.7344
 11  7 24  0 12 30.0000000  0  8G17G02G20G09G10G04G27G28
   1376259.18047   1124819.02045  21265085.9924                   21265083.0704
  55531309.04747  43324007.96944  22412377.8134                   22412374.9774
  60906420.82446  47497003.33242  24086616.4304                   24086614.1484
  55213214.98847  43074002.93444  22164545.2504                   22164544.2194
  72259924.74246  56348960.62543  23676031.2814   23676031.3794   23366472.72348
                                  18262392.33646  19890183.0784   19890180.6024
  40824933.59047  31861856.89544  22377316.6024                   22377314.5824
 -13596156.02047 -10556750.60545  21685643.1954                   21685640.3014
 11  7 24  0 13  0.0000000  0  8G17G02G20G09G10G04G27G28
   1299647.36747   1065121.50045  21250507.0394                   21250504.4064
  55341855.12547  43176381.62545  22376325.8674                   22376322.9654
  60829249.04746  47436869.52043  24071929.8754                   24071928.7974
  55073352.72347  42965019.33644  22137930.9224                   22137928.9534
  72058554.26646  56192048.69942  23637712.1484   23637711.9224   23239284.75048
                                  18163284.83646  19865980.0234   19865977.5234
  40703391.87147  31767149.06645  22354187.8984                   22354186.6454
 -13655385.04347 -10602903.09845  21674371.4774                   21674369.6214
 11  7 24  0 13 30.0000000  0  8G17G02G20G09G10G04G27G28
   1223274.19147   1005609.93045  21235973.7894                   21235971.3364
  55152817.93847  43029080.00045  22340353.1024                   22340350.2304
  60752716.89845  47377234.09442  24057365.9844                   24057365.4184
  54934258.30547  42856634.06644  22111461.8754                   22111460.2194
  71857337.73846  56035256.77343  23599422.6254   23599421.8714   23112810.27048
                                  18064733.31346  19841912.3914   19841910.2584
  40582481.43447  31672933.12944  22331179.4844                   22331178.3444
 -13714104.53947 -10648658.59445  21663197.8984                   21663195.1844
 11  7 24  0 14  0.0000000  0  8G17G02G20G09G10G04G27G28
   1147137.29747    946282.48045  21221484.7974                   21221482.2934
  54964196.75047  42882102.52745  22304459.8524                   22304456.7384
  60676821.48045  47318094.87143  24042922.2344                   24042922.6724
  54795930.29747  42748846.00844  22085139.5004                   22085137.0044
  71656275.95346  55878585.44143  23561162.0864   23561161.3324   22987046.95748
                                  17966735.94946  19817980.7424   19817978.3954
  40462200.08247  31579207.39844  22308291.0084                   22308289.2074
 -13772316.83247 -10694018.85245  21652120.7344                   21652117.9924
 11  7 24  0 14 30.0000000  0  8G17G02G20G09G10G04G27G28
   1071235.13347    887137.93845  21207041.8284                   21207039.0004
  54775992.19947  42735449.71145  22268646.1024                   22268642.1884
  60601561.60245  47259450.78942  24028601.7194                   24028601.5784
  54658368.39547  42641654.93844  22058961.5554                   22058959.7154
  71455370.69946  55722036.10943  23522930.2274   23522929.5984   22861993.50848
                                  17869291.72346  19794183.5234   19794181.5274
  40342547.08247  31485971.28945  22285522.0394                   22285519.5634
 -13830022.67647 -10738984.46945  21641139.6954                   21641136.4804
 11  7 24  0 15  0.0000000  0  8G17G02G20G09G10G04G27G28
   2570992.51247   2055780.05545  21492436.1414                   21492433.4454
  56163634.56347  43816729.56345  22532705.6804                   22532701.9064
  62102361.66845  48428905.39842  24314196.0704                   24314194.1844
  56097001.27747  43762667.57844  22332724.4924                   22332722.8634
  72830055.07046  56793218.92243  23784522.3914   23784523.5204   24313077.18448
                                  19000006.28946  20070315.7274   20070312.8284
  41798949.30947  32620830.18045  22562666.0474                   22562664.4454
 -12311797.00447  -9555951.50045  21930048.5394                   21930046.0474
 11  7 24  0 15 30.0000000  0  8G17G02G20G09G10G04G27G28
   2495561.32447   1997002.50445  21478082.0394                   21478079.2464
  55976270.07847  43670731.34045  22497051.3134                   22497047.7114
  62028373.94945  48371252.68842  24300115.9144                   24300115.1684
  55960977.73847  43656675.23844  22306839.8834                   22306838.6054
  72629475.42246  56636923.31343  23746354.6804   23746353.8484   24189446.29348
  18903670.53946                  20046789.4224                   20046786.8714
  41680555.95747  32528575.61744  22540135.6954                   22540134.6954
 -12368486.39147  -9600125.07845  21919260.7034                   21919258.3484
 11  7 24  0 16  0.0000000  0  8G17G02G20G09G10G04G27G28
   2420360.68447   1938404.60246  21463771.7664                   21463769.4454
  55789323.67247  43525058.90245  22461475.9844                   22461472.6334
  61955017.14845  48314091.59442  24286155.7424                   24286155.6294
  55825720.07447  43551279.69144  22281101.0474                   22281099.2734
  72429059.03946  56480754.86743  23708215.0554   23708216.4414   24066522.34047
  18807885.66846                  20023397.9694                   20023395.6604
  41562788.33247  32436808.64845  22517725.7584                   22517723.6214
 -12424671.39147  -9643905.63345  21908569.7504                   21908566.6134
 11  7 24  0 16 30.0000000  0  8G17G02G20G09G10G04G27G28
   2345383.24647   1879980.62545  21449503.9844                   21449501.9104
  55602789.31647  43379707.55945  22425979.6024                   22425976.4924
  61882283.84845  48257416.29342  24272316.1564                   24272314.3204
  55691221.65247  43446475.77744  22255506.9224                   22255505.0514
  72228801.94546  56324710.57043  23670108.4454   23670108.2154   23944297.73848
  18712645.74246                  20000139.3594                   20000137.2384
  41445639.03147  32345523.48445  22495432.9454                   22495431.2544
 -12480359.82847  -9687299.24645  21897972.4614                   21897969.4264
 11  7 24  0 17  0.0000000  0  8G17G02G20G09G10G04G27G28
   2270636.64147   1821736.52046  21435280.4774                   21435277.5784
  55416676.20747  43234684.45745  22390564.1334                   22390560.3094
  61810181.30145  48201232.50042  24258595.3204                   24258593.7734
  55557491.23447  43342270.30944  22230058.6884                   22230056.8914
  72028714.91846  56168798.79343  23632032.8134   23632032.8404   23822780.21948
  18617956.78146                  19977015.2114                   19977012.9844
  41329116.15647  32254726.44144  22473259.0474                   22473258.2814
 -12535543.23847  -9730299.32845  21887471.2814                   21887468.9384
 11  7 24  0 17 30.0000000  0  8G17G02G20G09G10G04G27G28
   2196119.27047   1763671.02345  21421100.1334                   21421096.9224
  55230985.42247  43089990.41045  22355227.8444                   22355224.3554
  61738708.09846  48145539.12942  24244993.6094                   24244992.5864
  55424528.87147  43238663.30144  22204757.1094                   22204755.2194
  71828800.59446  56013021.57443  23593990.3054   23593990.2814   23701969.07848
  18523818.24646                  19954025.3984                   19954023.1334
  41213219.16847  32164417.11745  22451205.2814                   22451203.5514
 -12590222.35247  -9772906.45345  21877066.5474                   21877063.2854
 11  7 24  0 18  0.0000000  0  8G17G02G20G09G10G04G27G28
   2121821.64847   1705776.76645  21406962.2504                   21406959.1254
  55045708.55147  42945618.91045  22319970.4224                   22319966.9304
  61667854.18446  48090328.29743  24231510.8524                   24231509.3554
  55292325.56347  43135647.75844  22179599.2734                   22179597.9184
  71629052.09846  55857373.54343  23555979.3444   23555979.3324   23581854.24248
  18430222.28946                  19931168.8834                   19931165.8874
  41097938.18047  32074587.78145  22429267.0084                   22429266.1524
 -12644406.73847  -9815128.08245  21866754.8984                   21866752.5394
 11  7 24  0 18 30.0000000  0  8G17G02G20G09G10G04G27G28
   2047750.55947   1648059.02345  21392866.4844                   21392863.8324
  54860854.22747  42801576.66445  22284793.6644                   22284790.2814
  61597626.25046  48035605.20743  24218147.0554                   24218145.6644
  55160889.27047  43033229.88744  22154588.1334                   22154586.4344
  71429480.26246  55701863.18043  23518001.2424   23518001.0984   23462442.93048
  18337174.52746                  19908445.5314                   19908442.6954
  40983280.55947  31985244.19944  22407449.1024                   22407447.5634
 -12698089.03947  -9856958.44545  21856539.6414                   21856536.3634
 11  7 24  0 19  0.0000000  0  8G17G02G20G09G10G04G27G28
   1973902.53947   1590515.11745  21378813.8524                   21378810.8554
  54676420.63747  42657862.24645  22249697.3754                   22249693.8364
  61528020.37946  47981366.89143  24204901.8054                   24204899.8554
  55030217.33647  42931407.60944  22129721.4384                   22129720.4884
  71230085.09446  55546490.51243  23480058.0314   23480058.0984   23343731.78547
  18244672.37146                  19885855.4844                   19885852.9384
  40869242.89147  31896383.68445  22385748.1334                   22385746.5204
 -12751272.41447  -9898400.04745  21846419.5474                   21846415.9574
 11  7 24  0 19 30.0000000  0  8G17G02G20G09G10G04G27G28
   1900281.37147   1533147.96945  21364803.9844                   21364801.3754
  54492413.39147  42514480.04745  22214681.4694                   22214678.5474
  61459040.09846  47927616.06643  24191775.2034                   24191773.8594
  54900314.58647  42830184.67644  22105002.4384                   22105000.7034
  71030873.69546  55391261.01242  23442148.9774   23442149.2464   23225724.27047
  18152718.48846                  19863399.0554                   19863396.7424
  40755829.41847  31808009.55945  22364166.6174                   22364164.8404
 -12803952.78947  -9939449.69945  21836394.4224                   21836391.3754
 11  7 24  0 20  0.0000000  0  8G17G02G20G09G10G04G27G28
   1826880.09047   1475952.15645  21350835.9064                   21350833.2584
  54308827.05547  42371425.85245  22179746.6804                   22179742.9844
  61390678.38746  47874347.20343  24178766.8204                   24178764.4184
  54771174.94547  42729556.37944  22080428.2034                   22080426.8404
  70831842.75446  55236172.06642  23404274.5704   23404274.6914   23108413.65647
  18061307.63346                  19841075.9694                   19841073.2544
  40643033.28147  31720116.44545  22342702.3834                   22342700.9104
 -12856136.63347  -9980112.47345  21826464.5394                   21826461.8094
 11  7 24  0 20 30.0000000  0  8G17G02G20G09G10G04G27G28
   1753694.30947   1418924.26645  21336909.9614                   21336906.6844
  54125658.66847  42228697.30945  22144890.5314                   22144886.8594
  61322929.77346  47821556.09043  24165874.2274                   24165872.6374
  54642794.70347  42629519.79744  22055998.0394                   22055996.3914
  70632991.08246  55081222.85542  23366433.7034   23366433.8204   22991795.36347
  17970436.25046                  19818883.8054                   19818881.0824
  40530850.14547  31632701.02345  22321354.3594                   22321352.8404
 -12907828.38347 -10020391.78145  21816627.9144                   21816624.8404
 11  7 24  0 21  0.0000000  0  8G17G02G20G09G10G04G27G28
   1680718.65647   1362060.10545  21323023.1024                   21323020.0554
  53942904.69947  42086291.66845  22110113.7034                   22110110.1764
  61255788.89146  47769238.51243  24153097.5554                   24153096.1134
  54515169.52747  42530071.58244  22031711.5634                   22031709.7274
  70434317.13346  54926412.14142  23328628.4534   23328627.1374   22875863.84447
  17880100.02746                  19796823.5004                   19796820.6254
  40419274.98847  31545759.34445  22300122.1564                   22300120.2504
 -12959033.06247 -10060291.55544  21806883.9534                   21806881.0594
 11  7 24  0 21 30.0000000  0  8G17G02G20G09G10G04G27G28
   1607962.23848   1305366.77745  21309177.5634                   21309175.1884
  53760575.86347  41944217.34045  22075418.1334                   22075414.7154
  61189264.30946  47717401.20343  24140438.7424                   24140437.0984
  54388309.03547  42431219.21144  22007570.5234                   22007569.2974
  70235833.23446  54771749.51243  23290857.7664   23290857.0944   22760628.09848
  17790305.96546                  19774894.8674                   19774892.2424
  40308316.76247  31459298.37545  22279007.7114                   22279006.1134
 -13009741.20747 -10099804.39544  21797233.9844                   21797231.0474
 11  7 24  0 22  0.0000000  0  7G17G02G09G10G04G27G28
   1535416.28547   1248837.45745  21295372.9454                   21295369.6844
  53578665.14147  41802468.80145  22040801.0634                   22040797.3324
  54262205.38347  42332956.58644  21983574.0784                   21983572.4024
  70037534.38346  54617230.98843  23253121.9694   23253122.6884   22646079.66448
  17701047.46146                  19753096.2734                   19753094.3984
  40197967.26647  31373311.73845  22258009.7034                   22258007.3444
 -13059961.22747 -10138936.91445  21787678.2114                   21787674.8054
 11  7 24  0 22 30.0000000  0  7G17G02G09G10G04G27G28
   3038499.09847   2420070.80945  21581399.7894                   21581397.1134
  54972595.75447  42888648.56345  22306057.2194                   22306053.8244
  55712279.03947  43462884.07444  22259513.7424                   22259512.3164
  71414846.10946  55690461.00443  23515216.3984   23515215.5984   24107637.62947
  18839923.82446                  20031221.7114                   20031218.6764
  41663645.80147  32515398.89545  22536918.0944                   22536916.3324
 -11534275.76247  -8950091.10244  22078005.6804                   22078003.0164
 11  7 24  0 23  0.0000000  0  7G17G02G09G10G04G27G28
   2966369.08647   2363865.60945  21567673.9614                   21567671.2114
  54791520.29747  42747550.88345  22271599.9454                   22271596.1374
  55587685.60947  43365798.26244  22235805.0164                   22235803.5704
  71216922.05546  55536234.55143  23477552.2344   23477552.0274   23994457.50447
  18751731.54346                  20009683.8754                   20009681.2854
  41554508.32447  32430356.68444  22516150.1174                   22516148.3404
 -11583524.57847  -8988466.85245  22068634.5314                   22068632.3554
 11  7 24  0 23 30.0000000  0  7G17G02G09G10G04G27G28
   2894454.47347   2307828.24246  21553989.0634                   21553986.3914
  54610872.47347  42606786.41045  22237223.4064                   22237220.0234
  55463855.50047  43269307.24644  22212241.0944                   22212239.4534
  71019198.48446  55382164.34043  23439926.6024   23439925.8594   23881968.41448
  18664077.71946                  19988278.2814                   19988275.8404
  41445984.29747  32345792.48444  22495498.1414                   22495496.8484
 -11632280.13347  -9026458.22745  22059356.4694                   22059353.6564
 11  7 24  0 24  0.0000000  0  7G17G02G09G10G04G27G28
   2822757.30547   2251960.32445  21540345.2584                   21540342.3874
  54430655.74247  42466357.85945  22202929.4924                   22202926.0204
  55340791.89547  43173413.53544  22188822.2344                   22188820.9144
  70821680.82046  55228254.56643  23402340.0004   23402339.6604   23770172.58647
  18576964.10946                  19967003.7424                   19967001.9264
  41338075.95747  32261708.05145  22474964.7424                   22474962.6414
 -11680540.17247  -9064063.47344  22050173.2034                   22050170.3164
 11  7 24  0 24 30.0000000  0  7G17G02G09G10G04G27G28
   2751276.15247   2196260.72345  21526743.2114                   21526740.2154
  54250870.07847  42326265.19145  22168717.4924                   22168712.8444
  55218493.48047  43078116.05544  22165549.2814                   22165548.6564
  70624370.94546  55074506.70743  23364793.1254   23364793.1844   23659068.16847
  18490389.26646                  19945861.4694                   19945859.2894
  41230781.55547  32178102.00444  22454546.5704                   22454545.6994
 -11728305.89847  -9101283.54744  22041084.0704                   22041081.3914
 11  7 24  0 25  0.0000000  0  7G17G02G09G10G04G27G28
   2680006.49247   2140725.91845  21513181.0164                   21513178.0314
  54071512.57447  42186506.14845  22134586.9694                   22134583.4734
  55096956.35947  42983411.79744  22142422.7344                   22142420.7304
  70427267.99646  54920920.09843  23327286.0474   23327284.9964   23548650.32848
  18404349.41046                  19924849.7894                   19924847.1914
  41124096.59047  32094970.84445  22434245.3364                   22434243.7704
 -11775581.70347  -9138121.89145  22032087.4694                   22032085.2624
 11  7 24  0 25 30.0000000  0  7G17G02G09G10G04G27G28
   2608945.93847   2085354.06345  21499657.9614                   21499655.0084
  53892582.31347  42047080.03545  22100537.7504                   22100533.0354
  54976178.56347  42889299.27344  22119438.5394                   22119436.8954
  70230372.96546  54767495.50843  23289817.4774   23289817.6094   23438916.26647
  18318842.36746                  19903968.2974                   19903965.7894
  41018018.66447  32012312.70345  22414059.7584                   22414058.0474
 -11822369.96547  -9174580.30544  22023183.8674                   22023180.9614
 11  7 24  0 26  0.0000000  0  7G17G02G09G10G04G27G28
   2538087.57047   2030139.74645  21486174.4614                   21486172.0704
  53714073.29347  41907982.17645  22066568.3674                   22066564.3714
  54856153.16047  42795772.96944  22096599.4144                   22096596.9304
  70033681.82446  54614229.74643  23252388.7424   23252388.3094   23329858.05947
  18233861.95746                  19883214.8134                   19883212.6254
  40912540.11747  31930121.62144  22393987.8524                   22393986.4104
 -11868678.06247  -9210664.57444  22014371.8134                   22014368.8524
 11  7 24  0 26 30.0000000  0  7G17G02G09G10G04G27G28
   2467436.33247   1975086.84045  21472730.2734                   21472726.6214
  53535992.46547  41769217.97345  22032680.6334                   22032676.1094
  54736885.82847  42702837.43044  22073902.9064                   22073901.7074
  69837203.66046  54461129.95743  23214999.8134   23214999.8554   23221481.14547
  18149412.43046                  19862591.5634                   19862589.3754
  40807666.37547  31848401.79745  22374031.0784                   22374029.0554
 -11914500.36347  -9246370.29344  22005652.3284                   22005649.6604
 11  7 24  0 27  0.0000000  0  7G17G02G09G10G04G27G28
   2396989.27747   1920193.02745  21459324.3524                   21459321.7624
  53358338.44947  41630786.34445  21998873.9224                   21998870.2074
  54618373.97747  42610490.55944  22051351.1024                   22051349.5394
  69640938.96546  54308196.53543  23177652.1484   23177651.2934   23113781.99647
  18065491.03146                  19842097.4384                   19842094.7194
  40703394.32047  31767150.82845  22354188.3284                   22354186.7424
 -11959839.90247  -9281699.85244  21997024.7504                   21997021.0944
 11  7 24  0 27 30.0000000  0  7G17G02G09G10G04G27G28
   2326741.63347   1865454.60245  21445956.8364                   21445954.3444
  53181107.43047  41492684.32445  21965148.5314                   21965144.1334
  54500613.20747  42518728.95745  22028941.6414                   22028940.5864
  69444886.56346  54155428.56343  23140344.1414   23140343.6524   23006755.14547
  17982093.49646                  19821730.5234                   19821728.0164
  40599718.68847  31686364.60244  22334459.9534                   22334458.1484
 -12004701.62147  -9316657.06245  21988487.6094                   21988484.5984
 11  7 24  0 28  0.0000000  0  7G17G02G09G10G04G27G28
   2256694.25047   1810872.23445  21432627.0634                   21432624.4264
  53004301.29747  41354913.37145  21931502.3134                   21931498.7934
  54383604.32447  42427553.22345  22006675.8054                   22006673.7154
  69249050.26246  54002828.93443  23103077.2424   23103078.1134   22900400.53547
  17899219.78946                  19801491.7584                   19801489.6764
  40496639.85247  31606043.40645  22314844.7274                   22314843.2274
 -12049085.29747  -9351241.78145  21980041.5474                   21980039.0634
 11  7 24  0 28 30.0000000  0  7G17G02G09G10G04G27G28
   2186845.24247   1756444.43445  21419335.6724                   21419332.7424
  52827920.07447  41217473.51645  21897938.6564                   21897934.9884
  54267345.81347  42336962.19544  21984552.6724                   21984550.6914
  69053431.71146  53850398.99243  23065853.0704   23065852.8014   22794716.35548
  17816868.49646                  19781380.6484                   19781378.2234
  40394155.87547  31526185.75844  22295342.6804                   22295340.9414
 -12092992.24247  -9385455.02744  21971686.4534                   21971683.9884
 11  7 24  0 29  0.0000000  0  7G17G02G09G10G04G27G28
   2117195.14147   1702171.62545  21406081.3054                   21406078.6914
  52651965.47747  41080366.10245  21864455.8594                   21864451.8444
  54151838.38747  42246956.42644  21962571.8364                   21962570.1024
  68858035.25846  53698142.07843  23028669.6724   23028669.3524   22689702.22747
  17735039.30146                  19761397.1954                   19761394.7814
  40292266.93847  31446791.73844  22275953.9454                   22275952.3054
 -12136422.11747  -9419296.52344  21963422.5234                   21963419.3404
 11  7 24  0 29 30.0000000  0  7G17G02G09G10G04G27G28
   2047735.87947   1648047.52745  21392863.6094                   21392860.7424
  52476431.03947  40943586.07845  21831052.5784                   21831047.9344
  54037074.15647  42157529.74644  21940733.5314                   21940731.6954
  68662856.13746  53546054.52043  22991527.7894   22991527.8324   22585349.55148
  17653725.53546                  19741539.9924                   19741537.1294
  40190964.77347  31367854.97744  22256676.5944                   22256675.1524
 -12179383.14147  -9452772.65244  21955246.7814                   21955244.2154
 11  7 24  0 30  0.0000000  0  7G17G02G09G10G04G27G28
   3553896.52047   2821679.19145  21679476.8134                   21679473.5474
  53876749.71147  42034743.54345  22097524.0004                   22097520.5434
  55498483.46547  43296290.27044  22218830.1884                   22218828.1914
  70043330.58246  54621749.00443  23254225.1024   23254223.4064   24057087.72347
  18800534.51646                  20021602.3134                   20021599.5634
  41665678.79747  32516982.77745  22537305.5234                   22537304.0864
 -10646447.73047  -8258277.56244  22246954.8524                   22246951.7194
 11  7 24  0 30 30.0000000  0  7G17G02G09G10G04G27G28
   3484826.59847   2767858.46145  21666332.7974                   21666329.6804
  53702066.06647  41898626.47745  22064282.7814                   22064278.7504
  55385213.26647  43208027.79344  22197275.9694                   22197274.2114
  69848603.77046  54470013.96543  23217168.3444   23217168.5394   23954063.77347
  18720256.11746                  20001997.0234                   20001995.1484
  41565556.32447  32438965.24644  22518253.0474                   22518251.3014
 -10688464.06647  -8291017.59444  22238959.2734                   22238957.0314
 11  7 24  0 31  0.0000000  0  7G17G02G09G10G04G27G28
   3415947.03147   2714186.05945  21653225.7034                   21653222.6764
  53527805.40247  41762838.98845  22031121.9924                   22031118.1954
  55272685.53947  43120343.85544  22175862.3134                   22175860.6054
  69654103.77046  54318455.61344  23180156.8674   23180156.2344   23851698.50447
  18640490.98846                  19982517.9694                   19982515.4264
  41466018.75847  32361403.50844  22499311.3134                   22499309.3164
 -10730012.72347  -8323393.19944  22231052.7974                   22231049.9144
 11  7 24  0 31 30.0000000  0  7G17G02G09G10G04G27G28
   3347251.96947   2660657.44145  21640153.2664                   21640151.1414
  53353963.63747  41627377.93445  21998040.9064                   21998037.4184
  55160895.01247  43033234.39144  22154589.1254                   22154588.0394
  69459828.82046  54167072.66843  23143186.8204   23143186.0744   23749985.92647
  18561234.44946                  19963162.6724                   19963160.0044
  41367060.28147  32284292.98445  22480480.5704                   22480478.9774
 -10771099.24647  -8355408.71144  22223234.0164                   22223232.0204
 11  7 24  0 32  0.0000000  0  7G17G02G09G10G04G27G28
   3278745.71947   2607275.93045  21627117.0704                   21627114.9414
  53180545.69147  41492247.10245  21965040.2344                   21965036.7154
  55049845.52347  42946702.33645  22133457.1884                   22133455.7034
  69265786.09846  54015870.64543  23106262.5554   23106261.2584   23648929.29348
  18482489.02046                  19943932.3754                   19943929.2854
  41268684.04747  32207636.14845  22461760.1334                   22461758.4384
 -10811720.22347  -8387061.44944  22215504.4534                   22215501.6294
 11  7 24  0 32 30.0000000  0  7G17G02G09G10G04G27G28
   3210429.28147   2554042.32445  21614117.6484                   21614114.1054
  53007554.23847  41357448.62145  21932121.7194                   21932116.8754
  54939538.19947  42860748.57444  22112465.8834                   22112464.3914
  69071980.12146  53864853.10544  23069381.8834   23069381.3874   23548528.79347
  18404254.87546                  19924826.6644                   19924823.9024
  41170890.90647  32131433.71944  22443150.3204                   22443148.7854
 -10851874.64547  -8418350.63344  22207863.4304                   22207860.8444
 11  7 24  0 33  0.0000000  0  7G17G02G09G10G04G27G28
   3142293.64847   2500949.60245  21601150.8134                   21601148.0204
  52834981.02747  41222976.01645  21899282.2034                   21899277.7814
  54829963.66847  42775365.83644  22091615.5164                   22091613.2774
  68878405.39146  53714015.77443  23032544.9454   23032544.9104   23448774.63348
  18326524.38346                  19905844.1954                   19905841.5514
  41073671.16847  32055678.06644  22424650.2734                   22424648.7584
 -10891572.04347  -8449283.69544  22200308.5314                   22200306.0784
 11  7 24  0 33 30.0000000  0  7G17G02G09G10G04G27G28
   3074336.89147   2447996.26645  21588219.5474                   21588216.6644
  52662825.39147  41088828.82045  21866522.0474                   21866518.1684
  54721119.84847  42690552.46944  22070902.8364                   22070901.0124
  68685063.36346  53563359.75843  22995753.4064   22995753.2274   23349664.06347
  18249295.37546                  19886983.8524                   19886981.5354
  40977022.30547  31980367.24644  22406258.9534                   22406257.0554
 -10930814.28547  -8479862.09044  22192841.6724                   22192838.8594
 11  7 24  0 34  0.0000000  0  7G17G02G09G10G04G27G28
   3006561.23447   2395184.03945  21575322.3834                   21575319.2584
  52491090.74247  40955009.66045  21833841.2504                   21833837.2544
  54613009.04347  42606310.28144  22050329.8134                   22050327.8484
  68491959.58246  53412889.39843  22959006.9304   22959006.1294   23251198.33247
  18172568.84846                  19868246.6254                   19868244.0944
  40880945.80547  31905502.43844  22387976.1094                   22387973.9574
 -10969599.57447  -8510084.43044  22185461.0314                   22185458.1724
 11  7 24  0 34 30.0000000  0  7G17G02G09G10G04G27G28
   2938965.96547   2342512.38345  21562459.5784                   21562456.1484
  52319777.58647  40821518.93445  21801241.9694                   21801238.0314
  54505630.14847  42522638.40644  22029896.6954                   22029894.5234
  68299096.71946  53262606.75044  22922306.7734   22922305.4574   23153375.96948
  18096343.64146                  19849631.2424                   19849629.1024
  40785440.51647  31831082.72744  22369801.9694                   22369800.1884
 -11007929.10247  -8539951.62544  22178167.3914                   22178164.2704
 11  7 24  0 35  0.0000000  0  7G17G02G09G10G04G27G28
   2871546.77047   2289977.90645  21549629.7894                   21549627.5124
  52148882.75447  40688354.18445  21768721.0864                   21768717.6374
  54398978.54747  42439533.25044  22009601.9144                   22009599.7424
  68106473.98446  53112511.21943  22885651.3054   22885650.3914   23056191.63347
  18020615.60246                  19831137.6484                   19831135.1804
  40690501.55947  31757104.32445  22351734.9144                   22351733.6254
 -11045807.35547  -8569467.17244  22170959.4844                   22170956.4454
 11  7 24  0 35 30.0000000  0  7G17G02G09G10G04G27G28
   2804305.19547   2237581.84845  21536834.0784                   21536831.5824
  51978408.57847  40555517.20745  21736281.7504                   21736277.4804
  54293055.34047  42356995.66444  21989444.5864                   21989442.6764
  67914096.32846  52962606.63744  22849043.4774   22849042.0234   22959646.12947
  17945385.35546                  19812765.8204                   19812763.3324
  40596129.83647  31683567.92644  22333777.1484                   22333775.1764
 -11083233.18747  -8598630.17244  22163837.9224                   22163834.7344
 11  7 24  0 36  0.0000000  0  7G17G02G09G10G04G27G28
   2737245.11747   2185327.22345  21524073.5554                   21524070.2234
  51808360.34047  40423012.12545  21703921.9384                   21703917.8554
  54187864.22747  42275028.53944  21969427.9304                   21969425.6524
  67721971.01246  52812898.69544  22812483.2114   22812481.7974   22863742.25048
  17870655.05946                  19794516.2114                   19794513.0044
  40502328.45347  31610475.94144  22315927.1414                   22315925.8834
 -11120203.24647  -8627438.04344  22156802.6094                   22156800.2344
 11  7 24  0 36 30.0000000  0  7G17G02G09G10G04G27G28
   2670364.72747   2133212.60945  21511346.4774                   21511343.5434
  51638737.17247  40290838.28945  21671644.0004                   21671639.7464
  54083402.88747  42193630.07044  21949548.7974                   21949547.2384
  67530099.63346  52663388.64544  22775971.6024   22775970.6294   22768477.17647
  17796422.55546                  19776387.8054                   19776385.0044
  40409094.82447  31537826.36344  22298185.2664                   22298183.4614
 -11156719.65247  -8655892.43444  22149853.4924                   22149851.0204
 11  7 24  0 37  0.0000000  0  8G17G02G12G09G10G04G27G28
   2603660.13747   2081234.98845  21498652.9844                   21498650.2194
  51469536.05547  40158993.30145  21639445.7114                   21639442.3014
  83241269.70356  64909762.72753  24215120.3364                   24215118.0744
  53979667.05547  42112796.89844  21929809.0704                   21929807.4264
  67338481.90646  52514076.20744  22739507.9304   22739505.9844   22673845.82448
  17722683.84446                  19758379.8834                   19758377.6374
  40316424.08647  31465615.39145  22280550.0634                   22280548.5704
 -11192786.87947  -8683996.78144  22142990.3134                   22142986.8014
 11  7 24  0 37 30.0000000  0  8G17G02G12G09G10G04G27G28
   2537124.38347   2029388.93445  21485991.7424                   21485988.8914
  51300750.82047  40027472.40245  21607327.3834                   21607323.6644
  83042748.21946  64755070.69143  24177342.7894                   24177340.7734
  53876649.01247  42032523.07444  21910205.0944                   21910203.6804
  67147113.93046  52364958.41044  22703090.8204   22703090.1564   22579840.30548
  17649432.80946                  19740491.4454                   19740489.0004
  40224308.43047  31393836.95744  22263021.7504                   22263020.5704
 -11228412.35947  -8711756.92644  22136210.9614                   22136208.3284
 11  7 24  0 38  0.0000000  0  8G17G02G12G09G10G04G27G28
   4046179.78947   3205276.23845  21773155.3594                   21773152.8134
  52707808.51247  41123881.05145  21875081.2194                   21875077.1214
  84419740.89846  65828052.03943  24439374.8524                   24439374.0204
  55349771.89547  43180411.01644  22190531.1724                   22190529.4104
  68531425.42646  53443642.80944  22966517.1954   22966515.2074   24061882.35247
  18804270.77046                  20022514.2114                   20022511.6914
  41708170.14546  32550092.83245  22545391.0164                   22545389.5704
  -9688175.46147  -7511572.37144  22429308.2424                   22429306.4734
 11  7 24  0 38 30.0000000  0  8G17G02G12G09G10G04G27G28
   3979981.94947   3153693.49645  21760558.2114                   21760555.6414
  52539858.98047  40993011.34445  21843121.6644                   21843117.6024
  84221396.47746  65673498.05943  24401630.9454                   24401630.1724
  55248188.50047  43101255.10245  22171201.0164                   22171199.2814
  68340567.14146  53294922.14544  22930197.9694   22930196.0554   23969125.07448
  18731992.38746                  20004863.5944                   20004860.5474
  41617162.54747  32479177.80944  22528072.8524                   22528071.7544
  -9722919.08247  -7538645.35544  22422696.7974                   22422694.3554
 11  7 24  0 39  0.0000000  0  8G17G02G12G09G10G04G27G28
   3913946.96147   3102237.64545  21747992.5944                   21747989.3014
  52372322.45747  40862463.43445  21811239.8524                   21811236.3364
  84023137.11746  65519010.34043  24363903.9224                   24363902.2464
  55147315.89547  43022653.04744  22152005.5084                   22152003.6134
  68149962.95346  53146399.51644  22893926.8364   22893925.5084   23876984.43848
  18660194.50446                  19987329.4144                   19987326.4534
  41526701.68447  32408688.82844  22510858.7894                   22510857.8204
  -9757228.44146  -7565379.94544  22416167.8674                   22416165.5864
 11  7 24  0 39 30.0000000  0  8G17G02G12G09G10G04G27G28
   3848074.99247   3050908.82845  21735457.4454                   21735454.3094
  52205199.89848  40732238.11745  21779437.8914                   21779433.9964
  83824964.68446  65364590.28143  24326193.5704                   24326190.8554
  55047152.84847  42944603.91044  22132945.1024                   22132943.3634
  67959616.18446  52998077.44144  22857705.3054   22857704.1994   23785458.97747
  18588875.97346                  19969912.6174                   19969910.3204
  41436786.62547  32338625.11344  22493748.8834                   22493747.6414
  -9791104.15646  -7591776.63344  22409721.6804                   22409719.5864
 11  7 24  0 40  0.0000000  0  8G17G02G12G09G10G04G27G28
   3782368.87547   2999709.23445  21722954.5314                   21722951.3244
  52038495.08247  40602338.30945  21747715.3444                   21747710.9264
  83626884.13746  65210241.86343  24288499.8594                   24288497.6094
  54947701.56347  42867109.38744  22114020.2424                   22114018.0944
  67769532.98846  52849960.77744  22821532.7274   22821532.3524   23694550.32448
  18518038.07446                  19952613.8204                   19952610.6174
  41347419.23047  32268988.16845  22476742.3674                   22476740.8674
  -9824544.16047  -7617833.81644  22403358.2894                   22403355.6954
 11  7 24  0 40 30.0000000  0  8G17G02G12G09G10G04G27G28
   3716824.14847   2948635.41045  21710480.7114                   21710478.2504
  51872204.77747  40472761.48845  21716071.3674                   21716067.3444
  83428893.30547  65055963.35543  24250822.6414                   24250821.5594
  54848957.48047  42790165.94144  22095229.6484                   22095227.5904
  67579712.38747  52702048.68444  22785411.8834   22785410.4184   23604253.26648
  18447676.73846                  19935430.6884                   19935427.7504
  41258594.49247  32199774.05144  22459839.7894                   22459838.6454
  -9857553.05546  -7643555.06244  22397076.9694                   22397074.6094
 11  7 24  0 41  0.0000000  0  8G17G02G12G09G10G04G27G28
   3651443.66047   2897689.56345  21698039.8284                   21698037.0824
  51706332.39548  40343510.34845  21684507.1174                   21684502.9804
  83230996.09846  64901757.80143  24213164.2734                   24213163.1054
  54750922.39847  42713774.97344  22076574.2814                   22076572.5354
  67390160.62147  52554346.09844  22749341.6724   22749339.5984   23514568.99248
  18377792.91046                  19918364.2274                   19918361.6564
  41170313.98047  32130984.01245  22443040.5784                   22443039.1914
  -9890128.75847  -7668938.76644  22390878.6414                   22390875.3284
 11  7 24  0 41 30.0000000  0  8G17G02G12G09G10G04G27G28
   3586229.37547   2846873.23445  21685629.5944                   21685627.1134
  51540880.77747  40214587.04345  21653021.9844                   21653017.4614
  83033197.05947  64747628.75443  24175524.7274                   24175522.9304
  54653597.37947  42637937.29344  22058053.7974                   22058052.0164
  67200882.87547  52406857.03144  22713322.4924   22713321.1994   23425498.31348
  18308387.20346                  19901414.5004                   19901411.8674
  41082578.55547  32062618.70745  22426344.9304                   22426344.1994
  -9922270.10246  -7693984.00444  22384761.7894                   22384759.0664
 11  7 24  0 42  0.0000000  0  8G17G02G12G09G10G04G27G28
   3521178.72747   2796184.40645  21673250.9304                   21673248.1024
  51375848.62547  40085990.59845  21621617.7504                   21621613.6604
  82835495.12146  64593575.31344  24137903.0474                   24137900.8754
  54556979.28947  42562650.47744  22039667.8754                   22039666.5314
  67011880.19147  52259582.29744  22677356.7734   22677355.1214   23337037.77048
  18239456.92646                  19884581.2194                   19884578.2234
  40995385.01647  31994675.64144  22409753.2894                   22409751.4654
  -9953980.10946  -7718693.14144  22378727.3054                   22378724.7194
 11  7 24  0 42 30.0000000  0  8G17G02G12G09G10G04G27G28
   3456290.10247   2745621.82845  21660903.2814                   21660900.4844
  51211234.75447  39957720.10245  21590292.2734                   21590288.5984
  82637890.51246  64439597.75843  24100300.4534                   24100298.4534
  54461065.62547  42487912.55144  22021416.1954                   22021414.8714
  66823154.17247  52112523.14544  22641443.2664   22641441.4104   23249184.14848
  18170999.56346                  19867863.0394                   19867860.4104
  40908730.44947  31927152.54744  22393263.0784                   22393261.0594
  -9985261.19947  -7743068.04744  22372774.8284                   22372772.3714
 11  7 24  0 43  0.0000000  0  8G17G02G12G09G10G04G27G28
   3391564.14547   2695186.00445  21648586.5164                   21648583.2934
  51047040.46147  39829776.54745  21559047.1484                   21559043.2194
  82440385.61346  64285697.88343  24062716.2814                   24062714.7974
  54365856.10247  42413723.30544  22003297.9924                   22003296.4144
  66634708.52746  51965682.47344  22605583.2814   22605581.7304   23161936.37548
  18103014.29746                  19851260.0864                   19851257.4304
  40822614.19147  31860048.93845  22376875.9694                   22376874.8444
 -10016113.66446  -7767108.94144  22366903.9534                   22366901.5204
 11  7 24  0 43 30.0000000  0  8G17G02G12G09G10G04G27G28
   3327008.85547   2644883.18445  21636301.6024                   21636299.3524
  50883274.70348  39702166.91045  21527883.5474                   21527879.2464
  82242990.35546  64131883.47344  24025153.2814                   24025151.8244
  54271357.53547  42340088.07044  21985315.8444                   21985313.8874
  66446554.56646  51819069.10544  22569778.0394   22569777.1054   23075301.00448
  18035506.22746                  19834774.2274                   19834771.6844
  40737043.21947  31793370.19144  22360592.2664                   22360590.7504
 -10046530.20747  -7790810.19544  22361115.9534                   22361113.6214
 11  7 24  0 44  0.0000000  0  8G17G02G12G09G10G04G27G28
   3262610.96547   2594703.01245  21624047.2424                   21624044.6454
  50719924.68848  39574881.23845  21496799.1334                   21496795.1684
  82045693.17246  63978145.48043  23987608.7344                   23987606.6174
  54177555.86747  42266995.85244  21967466.4304                   21967464.7034
  66258682.17247  51672675.12944  22534027.4924   22534025.7734   22989263.66448
  17968464.14846                  19818401.7504                   19818398.6994
  40652003.03947  31727105.09844  22344409.6334                   22344408.3984
 -10076524.95347  -7814182.75044  22355409.8134                   22355406.0594
 11  7 24  0 44 30.0000000  0  8G17G02G12G09G10G04G27G28
   3198385.05147   2544656.82445  21611825.3984                   21611822.5944
  50557005.89547  39447931.57845  21465796.5864                   21465792.0984
  81848510.80546  63824496.90243  23950086.4144                   23950084.1564
  54084464.71547  42194457.29745  21949751.4384                   21949749.6334
  66071109.65247  51526514.81344  22498333.6954   22498332.4064   22903837.39148
  17901898.22746                  19802145.7344                   19802143.1174
  40567507.10947  31661264.05145  22328330.9924                   22328329.7154
 -10106083.79747  -7837215.62944  22349782.7424                   22349780.8134
 11  7 24  0 45  0.0000000  0  8G17G02G12G09G10G04G27G28
   3134323.74647   2494738.92645  21599635.0314                   21599632.6484
  50394511.92647  39321312.94145  21434874.6954                   21434870.8754
  81651438.03946  63670933.76243  23912584.3364                   23912582.5394
  53992075.98847  42122466.06644  21932170.7114                   21932168.7424
  65883833.03147  51380585.09444  22462695.8834   22462694.9454   22819013.49648
  17835801.69146                  19786004.1024                   19786001.8914
  40483546.97347  31595840.53144  22312353.2424                   22312352.6884
 -10135215.17247  -7859915.44544  22344240.4304                   22344237.6564
 11  7 24  0 45 30.0000000  0  8G17G02G12G09G10G04G27G28
   4645846.05947   3672548.50445  21887268.4614                   21887265.2624
  51807865.69947  40422627.61345  21703827.3444                   21703823.5824
  83029899.80146  64745059.83243  24174896.7504                   24174894.9884
  55475808.41447  43278621.20744  22214515.4144                   22214513.8524
  67272278.49647  52462490.73844  22726908.4534                   22726906.9064
  24310210.14848  18997773.10246  20069769.3054                   20069767.0704
  41975541.23447  32758433.41445  22596270.8674                   22596269.4964
  -8588501.96147  -6654684.41844  22638569.8834                   22638566.5354
 11  7 24  0 46  0.0000000  0  8G17G02G12G09G10G04G27G28
   4582109.61747   3622883.75045  21875139.6094                   21875136.8954
  51646218.95747  40296669.17245  21673067.2504                   21673062.8444
  82833046.77346  64591667.89543  24137436.5864                   24137435.1134
  55384816.32047  43207718.29744  22197199.9924                   22197198.4454
  67085598.73847  52317026.06644  22691384.5234                   22691383.3404
  24226581.80948  18932608.16846  20053855.9534                   20053853.2034
  41892644.64847  32693838.62544  22580495.7974                   22580494.8984
  -8616784.73847  -6676723.01244  22633187.3364                   22633185.5234
 11  7 24  0 46 30.0000000  0  8G17G02G12G09G10G04G27G28
   4518535.88347   3573345.77745  21863041.2344                   21863039.4264
  51484996.71147  40171041.48445  21642387.3134                   21642382.8484
  82636307.01646  64438364.23443  24099998.7424                   24099996.9614
  55294521.16447  43137358.42644  22180017.2034                   22180015.7154
  66899222.48447  52171797.89844  22655918.0944                   22655916.4884
  24143549.66848  18867907.79746  20038055.0474                   20038052.9844
  41810278.09447  32629656.83645  22564822.3524                   22564821.1564
  -8644644.54747  -6698431.98844  22627886.1484                   22627883.9844
 11  7 24  0 47  0.0000000  0  8G17G02G12G09G10G04G27G28
   4455122.71147   3523932.91045  21850974.8364                   21850972.0594
  51324197.59848  40045743.52345  21611787.7664                   21611784.4844
  82439680.14146  64285148.55143  24062581.2584                   24062580.1884
  55204919.46547  43067538.91044  22162966.8984                   22162965.3054
  66713151.00047  52026807.23844  22620509.4774                   22620509.1454
  24061109.53148  18803668.73046  20022367.1254                   20022365.2274
  41728437.98847  32565885.29344  22549248.4384                   22549247.3674
  -8672084.35247  -6719813.69144  22622664.9844                   22622662.4844
 11  7 24  0 47 30.0000000  0  8G17G02G12G09G10G04G27G28
   4391868.89847   3474644.22345  21838937.6724                   21838934.9104
  51163821.18048  39920774.94145  21581269.6644                   21581265.5204
  82243166.89146  64132021.39143  24025186.3674                   24025184.4574
  55116008.94147  42998257.98044  22146047.3674                   22146046.0514
  66527386.36347  51882055.65244  22585160.3204                   22585158.4774
  23979258.76648  18739888.91446  20006791.4144                   20006789.2344
  41647122.10947  32502522.26244  22533774.9384                   22533773.3094
  -8699106.25447  -6740869.76244  22617522.5234                   22617520.1994
 11  7 24  0 48  0.0000000  0  8G17G02G12G09G10G04G27G28
   4328778.57847   3425482.94545  21826931.6644                   21826929.4574
  51003871.87947  39796139.18845  21550832.1174                   21550827.8754
  82046772.68847  63978986.99243  23987814.7424                   23987811.6374
  55027792.11347  42929517.55944  22129260.6484                   22129259.2234
  66341935.46947  51737548.53544  22549869.3134                   22549868.0204
  23897999.55548  18676570.04746  19991328.1334                   19991326.4144
  41566332.86347  32439569.55944  22518401.4534                   22518399.6724
  -8725706.99647  -6761597.65644  22612460.4144                   22612458.0984
 11  7 24  0 48 30.0000000  0  8G17G02G12G09G10G04G27G28
   4265850.63747   3376448.16445  21814957.4304                   21814954.5044
  50844349.64847  39671836.19145  21520476.0004                   21520471.9884
  81850498.95347  63826046.49243  23950464.7664                   23950462.1134
  54940266.84447  42861316.03144  22112605.1724                   22112604.0394
  66156801.08247  51593288.05144  22514639.2974                   22514637.7194
  23817329.52748  18613710.27346  19975977.6644                   19975975.3554
  41486068.12947  32377025.60544  22503127.3594                   22503126.1604
  -8751888.75447  -6781999.05944  22607478.4224                   22607475.4414
 11  7 24  0 49  0.0000000  0  8G17G02G12G09G10G04G27G28
   4203081.90647   3327537.46145  21803012.8134                   21803009.6334
  50685251.79347  39547863.88345  21490200.7894                   21490196.9614
  81654344.39846  63673198.87543  23913136.4924                   23913135.6214
  54853428.94947  42793650.10944  22096080.0944                   22096078.8794
  65971983.18047  51449274.18844  22479469.9774                   22479468.5204
  23737243.74248  18551305.75846  19960737.4384                   19960735.3754
  41406323.10247  32314886.60244  22487952.3984                   22487951.2344
  -8777655.86347  -6802077.35544  22602574.6644                   22602572.1414
 11  7 24  0 49 30.0000000  0  8G17G02G12G09G10G04G27G28
   4140478.54747   3278755.60945  21791100.4924                   21791097.0554
  50526584.87548  39424227.38745  21460007.7734                   21460003.2344
  81458317.02046  63520450.33644  23875833.7034                   23875831.8524
  54767282.93447  42726523.31644  22079687.1254                   22079686.2034
  65787490.82447  51305514.00044  22444362.8754                   22444360.4614
  23657746.82448  18489360.10946  19945610.3364                   19945607.5354
  41327102.31647  32253156.11744  22472877.0164                   22472875.7814
  -8803002.75047  -6821828.24644  22597750.9064                   22597749.4574
 11  7 24  0 50  0.0000000  0  8G17G02G12G09G10G04G27G28
   4078036.14147   3230099.17645  21779217.4924                   21779214.6334
  50368344.76648  39300923.45345  21429895.1254                   21429890.9264
  81262414.35546  63367798.99643  23838555.5704                   23838552.6994
  54681823.02347  42659931.15644  22063424.6804                   22063423.7384
  65603323.15247  51162006.79744  22409315.9384                   22409314.4104
  23578832.54348  18427868.46546  19930592.8284                   19930590.4964
  41248400.05547  32191829.66445  22457900.3444                   22457899.5944
  -8827934.85247  -6841255.92244  22593006.7894                   22593004.8834
 11  7 24  0 50 30.0000000  0  8G17G02G12G09G10G04G27G28
   4015760.96547   3181573.05945  21767366.9844                   21767364.2584
  50210538.34047  39177957.46145  21399865.9384                   21399861.9344
  81066644.00046  63215250.74643  23801299.9774                   23801298.9494
  54597053.69547  42593877.09444  22047294.2734                   22047292.2734
  65419489.40647  51018759.79744  22374333.6174                   22374331.7814
  23500505.27048  18366834.23046  19915687.8204                   19915685.3364
  41170220.80947  32130910.75845  22443023.1254                   22443022.4844
  -8852447.25047  -6860356.52044  22588342.6414                   22588340.0354
 11  7 24  0 51  0.0000000  0  8G17G02G12G09G10G04G27G28
   3953642.22747   3133168.83645  21755546.2814                   21755543.3594
  50053155.69147  39055321.68045  21369916.5634                   21369912.6024
  80870997.65646  63062799.17643  23764070.5554                   23764069.1414
  54512963.12547  42528351.92244  22031292.1644                   22031290.7734
  65235982.11747  50875767.18044  22339413.0234                   22339411.8914
  23422752.71948  18306247.82846  19900891.7814                   19900889.6214
  41092552.69547  32070390.12545  22428243.8834                   22428242.7774
  -8876551.68447  -6879139.22744  22583755.6094                   22583753.2234
 11  7 24  0 51 30.0000000  0  8G17G02G12G09G10G04G27G28
   3891686.81347   3084891.86745  21743756.7504                   21743753.9614
  49896203.94547  38933021.67645  21340049.4924                   21340045.6684
  80675484.24346  62910451.18143  23726865.8204                   23726864.1294
  54429556.99247  42463360.08644  22015420.3984                   22015419.2234
  65052811.51647  50733036.91044  22304556.9614                   22304554.6884
  23345580.06648  18246113.29346  19886206.4064                   19886204.5084
  41015401.31647  32010272.16844  22413561.9774                   22413561.5784
  -8900242.13747  -6897599.34444  22579247.9844                   22579245.3794
 11  7 24  0 52  0.0000000  0  8G17G02G12G09G10G04G27G28
   3829893.42647   3036741.16445  21731997.8134                   21731994.9694
  49739682.07448  38811056.63345  21310264.3134                   21310260.2734
  80480103.79746  62758206.78144  23689686.0634                   23689684.2154
  54346831.91447  42398898.92644  21999679.2584                   21999677.0554
  64869978.97747  50590570.04344  22269764.8364                   22269763.9414
  23268983.91448  18186427.98446  19871631.0784                   19871628.7234
  40938763.05947  31950554.01244  22398979.0634                   22398977.6644
  -8923521.36347  -6915739.02043  22574818.2504                   22574815.6214
 11  7 24  0 52 30.0000000  0  8G17G02G12G09G10G04G27G28
   3768259.90247   2988715.02345  21720269.1484                   21720265.8014
  49583588.60247  38689425.40245  21280560.3134                   21280556.6684
  80284856.77346  62606066.29344  23652531.6804                   23652529.9264
  54264784.43047  42334965.79344  21984065.1884                   21984063.8054
  64687485.98847  50448367.78144  22235037.8914                   22235036.2274
  23192960.45348  18127188.93446  19857164.0704                   19857161.3754
  40862634.82447  31891233.31645  22384491.6024                   22384490.8754
  -8946392.37146  -6933560.62144  22570465.2344                   22570463.9224
 11  7 24  0 53  0.0000000  0  8G17G02G12G09G10G04G27G28
   3706788.95747   2940815.56645  21708571.3754                   21708568.1994
  49427926.28147  38568130.14545  21250939.2664                   21250935.0594
  80089747.37547  62454033.05144  23615404.0314                   23615401.7504
  54183415.45347  42271561.35244  21968582.0944                   21968579.8754
  64505338.19147  50306434.52744  22200376.0164                   22200374.4224
  23117510.49648  18068396.76646  19842805.9924                   19842804.2274
  40787017.21947  31832310.48845  22370102.2814                   22370101.5004
  -8968853.41847  -6951062.76644  22566191.4774                   22566188.8324
 11  7 24  0 53 30.0000000  0  8G17G02G12G09G10G04G27G28
   5220900.78947   4120642.92245  21996697.8444                   21996694.6804
  50848118.99247  39674773.86345  21521192.9534                   21521189.1414
  81470202.25046  63529712.20744  23878094.9844                   23878092.6374
  55678144.09047  43436284.91444  22253019.3444                   22253018.0434
  65898963.24247  51392376.18444  22465573.6954   22465572.4494   24618052.68048
                                  19237650.41846  20128349.9144   20128347.7774
  42287329.31347  33001384.84045  22655602.1024                   22655601.0314
  -7415487.50847  -5740647.82843  22861787.7114                   22861784.7234
 11  7 24  0 54  0.0000000  0  8G17G02G12G09G10G04G27G28
   5159755.84447   4072997.48845  21985062.0314                   21985059.7544
  50693321.22747  39554152.27745  21491735.3984                   21491731.9804
  81275374.60946  63377898.50444  23841020.3984                   23841018.7114
  55598127.95347  43373934.65244  22237792.2814                   22237790.7544
  65717516.25047  51250989.01244  22431046.0234   22431044.3244   24543744.98048
                                  19179748.31646  20114209.5784   20114207.4304
  42212729.03947  32943254.75444  22641406.5164                   22641405.4844
  -7437132.34846  -5757513.93744  22857667.8834                   22857665.8794
 11  7 24  0 54 30.0000000  0  8G17G02G12G09G10G04G27G28
   5098768.91047   4025475.18445  21973456.8364                   21973453.6684
  50538951.44548  39433864.17645  21462360.4304                   21462355.7734
  81080685.92246  63226193.06344  23803973.1334                   23803970.8834
  55518780.91447  43312105.75844  22222693.5234                   22222691.1994
  65536419.41847  51109874.66444  22396583.9694   22396582.5594   24470000.46148
                                  19122285.05946  20100176.8364   20100174.1374
  42138630.06347  32885515.28544  22627305.6484                   22627304.1684
  -7458375.80946  -5774067.31244  22853625.4454                   22853624.1054
 11  7 24  0 55  0.0000000  0  8G17G02G12G09G10G04G27G28
   5037943.44547   3978078.68445  21961881.6724                   21961879.4224
  50385013.70747  39313912.72746  21433066.5634                   21433062.8054
  80886141.81646  63074600.23844  23766952.0394                   23766950.4454
  55440104.78147  43250799.64544  22207721.6484                   22207720.4964
  65355679.57047  50969038.48844  22362189.5784   22362188.3054   24396821.02748
                                  19065262.12946  20086251.0164   20086248.7234
  42065034.39847  32828168.00444  22613300.9924                   22613299.9534
  -7479215.18446  -5790305.82044  22849660.7664                   22849658.8204
 11  7 24  0 55 30.0000000  0  8G17G02G12G09G10G04G27G28
   4977277.70347   3930806.66445  21950337.9064                   21950334.8714
  50231506.23048  39194296.56346  21403855.3754                   21403851.3834
  80691742.19946  62923120.02743  23729959.5704                   23729956.7774
  55362095.94947  43190013.52344  22192876.7194                   22192875.3164
  65175298.01247  50828481.50844  22327865.0784   22327863.5944   24324202.78148
                                  19008676.49246  20072432.4144   20072429.8164
  41991938.16447  32771209.91844  22599391.3364                   22599390.1604
  -7499653.82047  -5806232.07444  22845771.3364                   22845768.8014
 11  7 24  0 56  0.0000000  0  8G17G02G12G09G10G04G27G28
   4916773.00047   3883660.12545  21938823.9384                   21938821.3714
  50078430.37547  39075016.71545  21374726.2664                   21374721.7664
  80497490.25446  62771754.88743  23692994.3054                   23692992.0394
  55284753.75847  43129746.85544  22178159.3134                   22178158.3054
  64995279.05147  50688207.06344  22293608.2734   22293606.9384   24252144.94148
                                  18952527.53146  20058720.2664   20058717.4774
  41919340.92647  32714640.64144  22585576.6484                   22585575.3674
  -7519691.77046  -5821846.10244  22841957.8134                   22841955.8914
 11  7 24  0 56 30.0000000  0  8G17G02G12G09G10G04G27G28
   4856429.08247   3836638.85945  21927340.4064                   21927338.6024
  49925786.37547  38956073.37145  21345678.7664                   21345674.4304
  80303388.03946  62620506.40643  23656057.7274                   23656055.6414
  55208076.22747  43069998.13744  22163567.7584                   22163566.4024
  64815625.46147  50548217.31344  22259421.9924   22259419.5274   24180645.32048
                                  18896813.55546  20045114.2274   20045111.4964
  41847240.70747  32658458.62944  22571856.7664                   22571855.2384
  -7539330.28146  -5837148.89543  22838220.7274                   22838218.7034
 11  7 24  0 57  0.0000000  0  8G17G02G12G09G10G04G27G28
   4796250.34047   3789746.31645  21915889.6254                   21915886.6414
  49773579.00047  38837470.27345  21316714.4304                   21316709.9024
  80109441.61346  62469379.37143  23619151.1724                   23619149.2774
  55132065.88347  43010769.27344  22149103.9924                   22149101.8444
  64636344.97347  50408518.28944  22225305.9224   22225304.1024   24109706.36348
                                  18841536.44546  20031614.8674   20031612.1954
  41775640.18047  32602666.00444  22558230.6094                   22558229.6604
  -7558566.35946  -5852138.05143  22834560.3364                   22834558.2584
 11  7 24  0 57 30.0000000  0  8G17G02G12G09G10G04G27G28
   4736232.51647   3742979.17245  21904468.4694                   21904465.7584
  49621804.09847  38719204.14545  21287832.5634                   21287828.0984
  79915648.45746  62318371.78143  23582272.8134                   23582271.2934
  55056716.41847  42952055.43044  22134765.2734                   22134763.8954
  64457436.08247  50269108.77744  22191260.6094   22191258.8134   24039321.62948
                                  18786691.21146  20018221.2664   20018218.5164
  41704533.08247  32547257.86744  22544699.9534                   22544698.4774
  -7577405.63746  -5866818.01243  22830975.9384                   22830973.1024
 11  7 24  0 58  0.0000000  0  8G17G02G12G09G10G04G27G28
   4676374.25047   3696336.35245  21893077.8284                   21893075.0824
  49470460.50847  38601274.11345  21259032.9694                   21259028.7034
  79722009.14146  62167484.05144  23545425.5944                   23545423.1524
  54982024.63347  42893854.02344  22120551.9304                   22120550.4844
  64278900.46947  50129990.18844  22157285.5864   22157284.0234   23969487.76648
                                  18732275.21946  20004931.7194   20004929.7814
  41633916.27047  32492231.76244  22531261.9454                   22531260.6684
  -7595851.07847  -5881191.12143  22827465.4694                   22827463.2384
 11  7 24  0 58 30.0000000  0  8G17G02G12G09G10G04G27G28
   4616674.91047   3649817.38345  21881716.9614                   21881713.9774
  49319547.61347  38483679.67646  21230315.3674                   21230310.8054
  79528525.24246  62016717.46944  23508606.6724                   23508604.5474
  54907987.63747  42836162.88344  22106462.5784                   22106461.4964
  64100740.62147  49991164.38744  22123383.0864   22123382.3164   23900202.02748
                                  18678286.33646  19991747.6414   19991745.1724
  41563786.92247  32437585.50844  22517917.2974                   22517914.8014
  -7613904.71546  -5895258.92243  22824030.1334                   22824028.5864
 11  7 24  0 59  0.0000000  0  8G17G02G12G09G10G04G27G28
   4557136.85547   3603424.07445  21870387.1954                   21870384.5664
  49169068.12947  38366422.97745  21201679.7194                   21201675.0554
  79335200.88746  61866075.20344  23471817.6724                   23471816.3594
  54834606.18447  42778982.53144  22092499.3984                   22092497.7344
  63922962.30547  49852635.89844  22089553.3444   22089551.3014   23831464.92648
                                  18624724.96946  19978666.8594   19978664.6564
  41494146.01647  32383319.84044  22504664.1174                   22504663.8754
  -7631565.16846  -5909020.34444  22820669.2974                   22820667.7704
 11  7 24  0 59 30.0000000  0  8G17G02G12G09G10G04G27G28
   4497755.05947   3557152.54345  21859087.5704                   21859085.3244
  49019017.64148  38249500.55146  21173125.8444                   21173121.6684
  79142033.62146  61715555.35244  23435059.0004                   23435057.6454
  54761873.66447  42722307.84844  22078658.6484                   22078656.5274
  63745563.71147  49714403.28944  22055794.7974   22055792.7934   23763269.34048
                                  18571585.55546  19965689.9144   19965687.2424
  41424986.70747  32329429.45744  22491504.2274                   22491502.4144
  -7648838.65246  -5922480.19943  22817382.1174                   22817379.7934
 11  7 24  1  0  0.0000000  0  8G17G02G12G09G10G04G27G28
   4438529.19147   3511002.51645  21847817.8204                   21847814.3364
  48869395.36348  38132911.80946  21144653.6334                   21144649.6644
  78949024.70347  61565158.88744  23398330.8444                   23398328.9344
  54689787.16047  42666136.55544  22064941.1174                   22064939.2114
  63568547.27347  49576468.47744  22022110.0864   22022108.3324   23695612.73848
                                  18518866.12946  19952815.7504   19952812.8714
  41356306.39147  32275912.30944  22478435.0474                   22478433.0004
  -7665727.35946  -5935640.26243  22814168.6954                   22814166.0394
 11  7 24  1  0 30.0000000  0  8G17G02G12G09G10G04G27G28
   4379463.67647   3464977.43845  21836578.0784                   21836574.8984
  48720206.09448  38016660.45745  21116264.1094                   21116259.9614
  78756180.14547  61414890.50444  23361633.6564                   23361631.6644
  54618348.80147  42610470.32844  22051346.8914                   22051345.1644
  63391920.16447  49438837.01644  21988498.7974   21988496.9304   23628497.32448
                                  18466568.41046  19940043.8054   19940041.4494
  41288107.38347  32222770.19144  22465457.1724                   22465455.7814
  -7682228.34446  -5948498.16844  22811028.4454                   22811025.8444
 11  7 24  1  1  0.0000000  0  8G17G02G12G09G10G04G27G28
   4320559.48047   3419078.08245  21825368.1724                   21825366.2704
  48571450.62547  37900747.12545  21087956.7814                   21087952.3524
  78563503.27746  61264752.80144  23324967.8594                   23324966.7544
  54547557.62946  42555308.38344  22037875.6174                   22037873.8404
  63215686.44947  49301512.10244  21954962.5004   21954960.2774   23561922.02748
                                  18414691.55546  19927375.0704   19927372.4654
  41220388.84847  32170002.48444  22452570.2894                   22452569.1764
  -7698341.85246  -5961054.16843  22807962.1254                   22807960.0084
 11  7 24  1  1 30.0000000  0  8G17G02G12G09G10G04G27G28
   5837231.72747   4600900.61345  22113982.0864                   22113978.7274
  49998547.32848  39012770.56346  21359524.4144                   21359519.9534
  79946415.59446  62342346.89144  23588127.4774                   23588126.0124
  56052826.76647  43728245.38744  22324319.0314                   22324316.8324
  64615268.00447  50392095.18444  22221294.3444   22221292.5124   25071299.64548
                                  19590829.95746  20214600.0704   20214597.3954
  42728563.99647  33345203.86744  22739566.5234                   22739565.5394
  -6138655.91046  -4745714.50043  23104760.5084                   23104758.1414
 11  7 24  1  2  0.0000000  0  8G17G02G12G09G10G04G27G28
   5778637.70347   4555242.94545  22102831.4384                   22102829.1764
  49850647.77747  38897524.18045  21331379.9144                   21331375.4414
  79754067.52046  62192465.37544  23551525.0634                   23551522.8914
  55983310.72746  43674077.08244  22311090.4614                   22311088.9884
  64439817.45747  50255380.56344  22187907.1644   22187905.1764   25005785.21948
                                  19539779.75446  20202133.0394   20202130.3094
  42661787.61747  33293170.28944  22726859.5704                   22726858.1174
  -6154011.62546  -4757680.02744  23101838.5634                   23101836.3754
 11  7 24  1  2 30.0000000  0  8G17G02G12G09G10G04G27G28
   5720201.40647   4509708.16845  22091711.3674                   22091708.5044
  49703178.85947  38782613.35545  21303317.2584                   21303313.0554
  79561889.28546  62042716.18844  23514954.6024                   23514952.1844
  55914431.66047  43620405.10544  22297982.1564                   22297981.8674
  64264765.87547  50118976.81344  22154595.5864   22154593.4224   24940800.65648
                                  19489142.44146  20189766.6954   20189763.9614
  42595482.04347  33241503.57444  22714242.3914                   22714241.0474
  -6168988.13346  -4769350.06243  23098989.1254                   23098986.7234
 11  7 24  1  3  0.0000000  0  8G17G02G12G09G10G04G27G28
   5661926.98847   4464299.52745  22080622.3054                   22080618.8054
  49556144.43047  38668041.11345  21275337.4924                   21275333.4574
  79369886.74646  61893103.87944  23478416.8134                   23478415.4804
  55846191.46547  43567230.91444  22284997.4844                   22284995.8324
  64090120.19147  49982889.34844  22121361.8364   22121359.8324   24876347.58648
                                  19438919.26646  20177501.6644   20177498.8984
  42529648.91847  33190205.02344  22701714.6414                   22701712.5944
  -6183582.93447  -4780722.66444  23096211.5634                   23096208.9774
 11  7 24  1  3 30.0000000  0  8G17G02G12G09G10G04G27G28
   5603811.78947   4419014.96945  22069563.1804                   22069560.5124
  49409542.08247  38553805.54746  21247439.9844                   21247435.8364
  79178059.52046  61743628.17644  23441914.3834                   23441911.6174
  55778585.48847  43514550.97344  22272132.5084                   22272131.1994
  63915881.11747  49847118.72344  22088204.9064   22088203.2424   24812421.37548
                                  19389106.64546  20165337.3284   20165334.3054
  42464284.05547  33139271.32444  22689276.3834                   22689274.5004
  -6197799.82046  -4791800.76243  23093505.8054                   23093503.5664
 11  7 24  1  4  0.0000000  0  8G17G02G12G09G10G04G27G28
   5545854.81347   4373853.68845  22058534.2734                   22058531.7504
  49263371.10247  38439906.10945  21219625.1884                   21219620.2814
  78986408.73846  61594289.96143  23405443.9774                   23405441.4024
  55711610.28147  43462362.50045  22259387.5944                   22259385.8404
  63742050.05947  49711666.04744  22055125.7894   22055123.6914   24749018.75048
                                  19339702.00046  20153272.0704   20153269.7504
  42399383.98446  33088699.83644  22676925.7734                   22676924.6994
  -6211641.61346  -4802586.62143  23090871.8984                   23090869.3284
 11  7 24  1  4 30.0000000  0  8G17G02G12G09G10G04G27G28
   5488056.62147   4328816.13745  22047535.3054                   22047532.9574
  49117631.76647  38326343.01646  21191891.6254                   21191887.2464
  78794936.62546  61445090.93044  23369008.5704                   23369005.8204
  55645263.43447  43410663.66844  22246761.3674                   22246760.1254
  63568630.45747  49576533.96544  22022125.4614   22022123.5634   24686137.82448
                                  19290703.87946  20141306.2814   20141303.6254
  42334947.14147  33038489.28944  22664664.2194                   22664662.7074
  -6225109.45746  -4813081.07443  23088308.7584                   23088306.8954
 11  7 24  1  5  0.0000000  0  8G17G02G12G09G10G04G27G28
   5430418.59447   4283903.38745  22036568.0944                   22036565.0314
  48972325.69147  38213117.52746  21164240.6024                   21164236.3794
  78603647.13746  61296034.18844  23332607.3364                   23332604.0744
  55579544.74247  43359454.30944  22234255.8444                   22234254.6994
  63395627.23847  49441726.30145  21989204.0084   21989202.1134   24623778.38748
                                  19242112.10246  20129439.2584   20129436.8794
  42270973.33647  32988639.53144  22652490.6804                   22652489.1644
  -6238202.94546  -4823283.78143  23085817.9534                   23085815.2584
 11  7 24  1  5 30.0000000  0  8G17G02G12G09G10G04G27G28
   5372937.90247   4239113.23045  22025629.4454                   22025626.6254
  48827449.60548  38100227.10546  21136671.6564                   21136667.1724
  78412538.66447  61147118.48444  23296240.7734                   23296238.0354
  55514448.44147  43308729.90644  22221869.2974                   22221867.4064
  63223039.96947  49307242.78544  21956361.3914   21956359.4264   24561934.39848
                                  19193921.97346  20117670.8754   20117668.4304
  42207456.80546  32939146.10544  22640403.5004                   22640402.0354
  -6250927.29346  -4833198.90243  23083396.3914                   23083394.0904
 11  7 24  1  6  0.0000000  0  8G17G02G12G09G10G04G27G28
   5315616.23447   4194446.99245  22014721.6484                   22014718.7154
  48683005.30948  37987673.14146  21109185.0784                   21109180.5474
  78221615.32846  60998347.08244  23259908.7424                   23259907.1174
  55449974.22347  43258490.23844  22209599.5234                   22209597.5004
  63050873.46147  49173087.13744  21923599.0474   21923597.1484   24500605.48048
                                  19146133.21546  20106000.6484   20105998.0084
  42144397.30147  32890008.79744  22628404.2114                   22628402.4494
  -6263282.13347  -4842826.08243  23081045.1254                   23081042.7704
 11  7 24  1  6 30.0000000  0  8G17G02G12G09G10G04G27G28
   5258451.68447   4149903.17245  22003843.4844                   22003840.4964
  48538990.92247  37875454.16446  21081779.8444                   21081775.3284
  78030877.46546  60849720.16844  23223612.1804                   23223610.0634
  55386117.73047  43208731.93844  22197448.0394                   22197446.3954
  62879128.60947  49039260.00844  21890917.2504   21890914.7584   24439787.57848
                                  19098742.63346  20094427.2274   20094424.4804
  42081790.93846  32841224.58644  22616490.5164                   22616488.5394
  -6275270.99646  -4852168.09443  23078763.7114                   23078761.8204
 11  7 24  1  7  0.0000000  0  8G17G02G12G09G10G04G27G28
   5201445.34447   4105482.64845  21992995.3834                   21992993.0164
  48395407.02348  37763570.65246  21054456.5394                   21054452.7274
  77840327.41446  60701239.62944  23187352.1024                   23187350.2384
  55322877.51247  43159453.82844  22185414.5164                   22185412.6914
  62707809.15247  48905764.37544  21858316.1334   21858314.0904   24379479.33248
                                  19051749.19546  20082951.2344   20082948.4924
  42019636.05947  32792792.19944  22604662.3834                   22604661.2034
  -6286894.61346  -4861225.47343  23076551.8914                   23076549.3874
 11  7 24  1  7 30.0000000  0  8G17G02G12G09G10G04G27G28
   5144599.18447   4061186.94145  21982177.9614                   21982175.8134
  48252255.88747  37652024.33646  21027215.9144                   21027211.3404
  77649969.65646  60552908.89844  23151127.9454                   23151126.6954
  55260252.88347  43110655.41444  22173496.4614                   22173495.2774
  62536919.93047  48772603.98445  21825796.8444   21825795.3554   24319680.25448
                                  19005152.52346  20071571.3754   20071568.4924
  41957932.80147  32744711.71944  22592920.2274                   22592919.7384
  -6298152.50846  -4869997.87543  23074409.2664                   23074407.3634
 11  7 24  1  8  0.0000000  0  8G17G02G12G09G10G04G27G28
   5087916.03547   4017018.25045  21971392.0634                   21971388.8204
  48109539.98848  37540817.18446  21000057.8524                   21000053.4774
  77459808.99247  60404731.78544  23114941.8364                   23114939.9144
  55198244.28947  43062336.99644  22161696.8594                   22161695.8244
  62366466.60247  48639783.26245  21793360.6954   21793358.7974   24260390.88348
                                  18958953.01246  20060289.3284   20060286.7384
  41896681.62146  32696983.50044  22581265.0634                   22581263.5234
  -6309043.77047  -4878484.65644  23072337.5084                   23072334.9694
 11  7 24  1  8 30.0000000  0  8G17G02G12G09G10G04G27G28
   5031392.20347   3972973.69945  21960635.3914                   21960632.9184
  47967255.18048  37429945.93846  20972982.2344                   20972977.6334
  77269843.96547  60256707.10944  23078792.7034                   23078790.5354
  55136845.34047  43014493.64844  22150013.1644                   22150011.3794
  62196448.46147  48507301.62944  21761006.9694   21761005.1374   24201604.93448
                                  18913145.78946  20049102.4844   20049100.3204
  41835876.31646  32649602.69544  22569694.6414                   22569692.9534
  -6319573.85946  -4886689.96943  23070333.1564                   23070331.7114
 11  7 24  1  9  0.0000000  0  8G17G02G12G09G10G04G27G28
   4975032.72747   3929057.23445  21949910.3204                   21949907.6174
  47825406.27048  37319414.35246  20945989.1414                   20945984.5084
  77080080.62147  60108839.60244  23042681.4844                   23042679.7624
  55076058.10247  42967126.94944  22138445.5474                   22138444.2704
  62026872.94147  48375164.90245  21728738.4844   21728735.8754   24143324.85948
                                  18867732.74646  20038012.1884   20038009.7774
  41775519.23447  32602571.18844  22558208.7584                   22558206.7624
  -6329739.58647  -4894611.36343  23068399.1724                   23068397.3914
 11  7 24  1  9 30.0000000  0  8G17G02G12G09G10G04G27G28
   6494256.13747   5112867.67645  22239008.9614                   22239006.5904
  49259414.75847  38436823.60546  21218871.8834                   21218867.6484
  78465944.60947  61188733.66844  23306403.2504                   23306401.1414
  56591299.09047  44147834.20344  22426786.3834                   22426785.3794
  63433165.54347  49470977.38345  21996346.8364                   21996344.9104
                                  25660967.11348  20050311.13346  20326810.1564
  20326807.1994   43291027.17647  33783486.44944  22846599.7814   22846598.9304
  -4764125.44546  -3674652.34044  23366325.4384                   23366324.0514
 11  7 24  1 10  0.0000000  0  8G17G02G12G09G10G04G27G28
   6438214.83247   5069199.11745  22228345.5004                   22228341.5864
  49118427.33648  38326963.29746  21192042.7504                   21192038.4184
  78276581.70747  61041178.20744  23270368.5554                   23270366.6254
  56531717.94547  44101407.30544  22415449.1414                   22415447.1764
  63264474.38347  49339529.78145  21964245.8284                   21964244.2274
                                  25603681.70348  20005673.15646  20315908.9304
  20315906.1524   43231550.20346  33737140.73044  22835281.7814   22835281.1174
  -4773577.44947  -3682017.55543  23364527.1174                   23364525.2194
 11  7 24  1 10 30.0000000  0  8G17G02G12G09G10G04G27G28
   6382335.70347   5025656.93445  22217711.5554                   22217708.3834
  48977873.19548  38217440.62546  21165296.0864                   21165291.6604
  78087425.09047  60893783.48844  23234373.2584                   23234371.0664
  56472738.72747  44055449.46944  22404225.4064                   22404224.1374
  63096232.15647  49208431.97745  21932230.8984                   21932228.2774
                                  25546892.69548  19961422.00046  20305102.2584
  20305099.7854   43172512.34046  33691137.17644  22824047.4304   22824046.8524
  -4782672.77746  -3689104.86743  23362796.2424                   23362794.4224
 11  7 24  1 11  0.0000000  0  8G17G02G12G09G10G04G27G28
   6326618.01647   4982240.55545  22207108.6724                   22207105.8484
  48837751.62948  38108255.03146  21138631.7344                   21138627.2424
  77898476.23847  60746550.67244  23198417.0784                   23198415.1294
  56414358.26646  44009958.17244  22393116.0234                   22393114.3524
  62928441.72747  49077686.21945  21900300.5944                   21900298.6024
                                  25490597.55148  19917555.65646  20294389.5164
  20294387.2934   43113911.18047  33645473.92244  22812896.3834   22812895.2424
  -4791413.28146  -3695915.69143  23361133.4454                   23361130.8634
 11  7 24  1 11 30.0000000  0  8G17G02G12G09G10G04G27G28
   6271063.17247   4938951.06345  22196536.5394                   22196534.5664
  48698063.44148  37999407.11346  21112050.4144                   21112045.6334
  77709738.12547  60599482.06644  23162501.5394                   23162499.4344
  56356574.98447  43964932.20744  22382119.9534                   22382119.0474
  62761106.46547  48947295.15245  21868458.0084                   21868456.2384
                                  25434794.52748  19874072.78146  20283770.3284
  20283768.5234   43055745.03147  33600149.63344  22801827.7114   22801826.4884
  -4799799.78546  -3702450.66443  23359536.8284                   23359534.8874
 11  7 24  1 12  0.0000000  0  8G17G02G12G09G10G04G27G28
   6215666.53547   4895784.84845  22185995.3204                   22185993.0944
  48558803.66448  37890893.02746  21085550.0314                   21085545.4384
  77521208.13347  60452575.66044  23126625.5234                   23126623.3404
  56299381.26646  43920365.66044  22371236.2034                   22371234.5234
  62594224.73447  48817257.48045  21836701.4224                   21836700.0394
                                  25379476.60948  19830967.91046  20273244.1254
  20273241.5514   42998006.92647  33555158.86744  22790840.0394   22790839.4804
  -4807838.53946  -3708714.73443  23358008.1334                   23358005.1294
 11  7 24  1 12 30.0000000  0  8G17G02G12G09G10G04G27G28
   6160432.75047   4852745.52745  22175484.4454                   22175482.0314
  48419977.29748  37782716.67646  21059131.6564                   21059127.3794
  77332893.30147  60305836.91044  23090790.0784                   23090787.9884
  56242779.57046  43876260.42644  22360465.4844                   22360463.8204
  62427804.19947  48687579.19545  21805032.6644                   21805030.9384
                                  25324646.25847  19788242.96146  20262810.0474
  20262807.3014   42940699.56647  33510503.76644  22779934.7894   22779933.5744
  -4815526.60246  -3714705.47343  23356544.3674                   23356542.2464
 11  7 24  1 13  0.0000000  0  9G17G02G12G09G10G04G27G28G05
   6105356.26647   4809828.77745  22165004.5084                   22165001.4344
  48281577.59047  37674872.76646  21032795.6644                   21032790.8954
  77144789.44547  60159262.54744  23054994.8984                   23054992.8284
  56186760.75047  43832609.36344  22349806.0084                   22349804.6134
  62261841.10247  48558257.33245  21773451.3524                   21773448.9064
                                  25270294.59848  19745891.03546  20252467.0314
  20252464.6764   42883814.39547  33466177.62144  22769110.3914   22769109.2504
  -4822872.02746  -3720429.21943  23355146.6804                   23355144.3404
  91113665.10256  71045010.34853  24366931.2504                   24366932.4344
 11  7 24  1 13 30.0000000  0  9G17G02G12G09G10G04G27G28G05
   6050434.95347   4767032.94145  22154552.5004                   22154550.5124
  48143602.28948  37567359.57046  21006539.8984                   21006534.8714
  76956896.70747  60012852.69544  23019240.0554                   23019237.8794
  56131320.47746  43789409.11744  22339255.7894                   22339254.1054
  62096336.56647  48429292.79345  21741956.4774                   21741954.7934
                                  25216417.57048  19703908.93846  20242215.0394
  20242212.3484   42827346.90646  33422176.96144  22758364.7274   22758364.0354
  -4829878.41846  -3725888.76643  23353813.9384                   23353811.0784
  90911149.53546  70887206.28143  24328393.9774                   24328394.2854
 11  7 24  1 14  0.0000000  0  9G17G02G12G09G10G04G27G28G05
   5995668.46147   4724357.74645  22144130.9774                   22144128.6684
  48006051.02348  37460176.79746  20980364.2974                   20980359.9924
  76769217.30147  59866609.07044  22983526.2114                   22983523.2544
  56076455.64546  43746657.27044  22328815.9534                   22328814.1724
  61931293.04747  48300687.49645  21710549.9844                   21710547.2854
                                  25163012.44948  19662294.56346  20232052.1484
  20232049.5984   42771294.47346  33378499.71144  22747699.2424   22747696.8834
  -4836547.84846  -3731085.68042  23352544.5394                   23352541.4384
  90708645.00046  70729410.79743  24289858.7734                   24289859.1724
 11  7 24  1 14 30.0000000  0  9G17G02G12G09G10G04G27G28G05
   5941052.67247   4681799.97345  22133738.2974                   22133735.4064
  47868919.28148  37353320.91846  20954268.9694                   20954264.3404
  76581748.93447  59720529.87944  22947852.7114                   22947849.4574
  56022158.97747  43704348.16844  22318482.9534                   22318481.5394
  61766708.96147  48172440.19545  21679230.7034                   21679227.9964
                                  25110072.23048  19621042.44946  20221977.9614
  20221975.1994   42715650.23447  33335140.56344  22737110.1414   22737109.0554
  -4842886.66846  -3736025.04743  23351338.3524                   23351335.6844
  90506149.27046  70571622.17243  24251324.4384                   24251324.9804
 11  7 24  1 15  0.0000000  0  9G17G02G12G09G10G04G27G28G05
   5886585.71547   4639358.18845  22123373.2504                   22123370.4454
  47732204.57848  37246790.00446  20928252.8594                   20928248.6024
  76394491.42647  59574614.98844  22912217.8834                   22912215.9964
  55968425.60247  43662477.96944  22308257.7274                   22308256.5594
  61602584.88347  48044551.36745  21647998.6884                   21647996.8954
                                  25057592.53948  19580149.18846  20211991.7424
  20211988.6604   42660409.75847  33292096.00444  22726597.6334   22726596.7974
  -4848898.86346  -3740709.87543  23350193.3674                   23350191.8754
  90303662.54346  70413840.58643  24212792.3524                   24212793.0864
 11  7 24  1 15 30.0000000  0  9G17G02G12G09G10G04G27G28G05
   5832271.32047   4597035.27345  22113037.3984                   22113034.8094
  47595910.35248  37140586.73446  20902316.8444                   20902312.6174
  76207450.78547  59428869.08644  22876625.6334                   22876623.0744
  55915256.51647  43621047.47344  22298140.3834                   22298138.9804
  61438927.43447  47917026.12145  21616855.8594                   21616853.2544
                                  25005574.61348  19539615.73846  20202092.6954
  20202090.3094   42605574.39546  33249367.13744  22716162.8134   22716161.8524
  -4854582.23446  -3745138.53143  23349112.0864                   23349110.7734
  90101191.27046  70256071.02043  24174263.0084                   24174263.7274
 11  7 24  1 16  0.0000000  0  9G17G02G12G09G10G04G27G28G05
   5778111.09447   4554832.49245  22102731.7974                   22102729.1214
  47460037.93848  37034712.14546  20876461.3054                   20876456.9884
  76020630.85547  59283295.16444  22841074.1094                   22841072.2274
  55862650.52047  43580055.75044  22288130.0004                   22288127.6134
  61275740.83247  47789867.77045  21585802.5634                   21585799.6094
                                  24954017.53548  19499441.39546  20192281.9454
  20192279.1134   42551143.23847  33206953.20344  22705804.8594   22705804.2584
  -4859937.00846  -3749311.16443  23348094.1334                   23348091.9654
  89898739.68846  70098316.79343  24135737.5634                   24135738.0824
 11  7 24  1 16 30.0000000  0  9G17G02G12G09G10G04G27G28G05
   5724107.32047   4512751.62545  22092455.0164                   22092452.2234
  47324588.79348  36929167.38746  20850686.4924                   20850681.6604
  75834035.55147  59137896.28544  22805566.5704                   22805564.0394
  55810606.68847  43539502.09444  22278225.9224                   22278224.7304
  61113029.52347  47663079.77745  21554838.9614                   21554836.8204
                                  24902920.58248  19459625.58246  20182558.3594
  20182556.0394   42497115.54747  33164853.68044  22695523.6724   22695522.8954
  -4864963.28946  -3753227.81643  23347137.1724                   23347135.5984
  89696311.55546  69940580.84843  24097216.9774                   24097217.0314
 11  7 24  1 17  0.0000000  0  9G17G02G12G09G10G04G27G28G05
   5670258.41847   4470791.43445  22082207.6094                   22082205.3834
  47189560.80547  36823950.79746  20824991.1804                   20824986.8754
  75647665.30947  58992672.77344  22770101.4774                   22770099.1524
  55759120.21947  43499382.72344  22268428.2814                   22268426.7894
  60950794.85247  47536663.19145  21523966.8284                   21523965.0514
                                  24852279.80948  19420165.23446  20172921.8674
  20172919.6644   42443487.35247  33123065.44144  22685319.3284   22685318.1254
  -4869664.48646  -3756891.12943  23346242.6954                   23346240.2304
  89493907.68846  69782863.80543  24058700.6174                   24058700.2704
 11  7 24  1 17 30.0000000  0  9G17G02G12G09G10G04G27G28G05
   7191986.85947   5656553.85945  22371783.0164                   22371780.1644
  48630379.20747  37946666.46946  21099169.8444                   21099165.4654
  77036949.16847  60075231.67244  23034473.0864                   23034471.2074
  57283611.02747  44687297.61344  22558529.0554                   22558527.6054
  62364465.55147  48638224.83245  21792979.3524                   21792977.4144
                                  26377514.95348  20608660.14846  20463164.7584
  20463162.2194   43965678.61747  34309188.49244  22974982.5634   22974981.0824
  -3298621.85246  -2532702.04342  23645201.3444                   23645200.0554
  90866958.48446  70852773.73043  24319983.7344                   24319982.5084
 11  7 24  1 18  0.0000000  0  9G17G02G12G09G10G04G27G28G05
   7138444.14847   5614832.25445  22361594.1414                   22361591.8554
  48496188.93848  37842102.64546  21073633.9144                   21073629.7234
  76851031.47747  59930360.80144  22999094.2114                   22999092.5784
  57233227.06347  44648037.35544  22548941.4384                   22548940.1644
  62203187.91447  48512553.98045  21762289.8204                   21762286.5904
                                  26327774.59848  20569901.42246  20453699.0314
  20453696.7034   43912837.59846  34268013.63344  22964927.3984   22964925.8634
  -3302682.94546  -2535866.59043  23644428.8284                   23644427.8634
  90664607.04746  70695097.44943  24281478.3284                   24281476.7464
 11  7 24  1 18 30.0000000  0  9G17G02G12G09G10G04G27G28G05
   7085057.80947   5573232.52045  22351434.9224                   22351432.8674
  48362420.48848  37737867.50446  21048179.2344                   21048174.1484
  76665347.08647  59785671.71544  22963760.0944                   22963757.6684
  57183393.53947  44609206.02344  22539459.3984                   22539457.1174
  62042396.55547  48387262.03545  21731691.7974                   21731689.1334
                                  26278484.32048  20531493.41446  20444319.7344
  20444317.5394   43860390.02046  34227145.36344  22954946.9144   22954945.5864
  -3306423.37546  -2538781.28142  23643717.7194                   23643716.0984
  90462288.83646  70537447.06343  24242977.2344                   24242976.0744
 11  7 24  1 19  0.0000000  0  9G17G02G12G09G10G04G27G28G05
   7031827.82447   5531754.61345  22341305.6334                   22341303.5824
  48229072.63348  37633960.11346  21022803.9224                   21022799.0394
  76479897.19947  59641165.33644  22928469.6564                   22928467.3954
  57134106.84447  44570800.77744  22530079.8444                   22530078.6844
  61882092.94147  48262350.17645  21701186.5864                   21701184.8244
                                  26229641.04748  20493433.70346  20435024.9454
  20435022.4574   43808332.72346  34186581.20744  22945040.5864   22945039.5004
  -3309845.25846  -2541447.73043  23643066.5864                   23643064.8634
  90260006.07846  70379824.28543  24204483.7974                   24204483.3444
 11  7 24  1 19 30.0000000  0  9G17G02G12G09G10G04G27G28G05
   6978755.86747   5490399.85945  22331206.3834                   22331203.9144
  48096146.68848  37530381.47346  20997508.9304                   20997504.2854
  76294685.71547  59496844.72344  22893225.3364                   22893223.1214
  57085365.21547  44532820.25044  22520804.3754                   22520802.8794
  61722281.45747  48137821.78545  21670775.8054                   21670773.5514
                                  26181243.59848  20455721.41046  20425814.6484
  20425813.1564   43756664.59846  34146320.28944  22935208.5704   22935207.6564
  -3312949.38746  -2543866.49643  23642476.3984                   23642473.7034
  90057762.35946  70222231.87143  24165998.0554                   24165998.3094
 11  7 24  1 20  0.0000000  0  9G17G02G12G09G10G04G27G28G05
   6925840.72347   5449167.27345  22321137.0554                   22321134.0664
  47963640.91048  37427130.24246  20972293.8674                   20972288.9024
  76109713.40647  59352710.46944  22858026.4614                   22858023.3554
  57037164.79747  44495261.46144  22511632.3914                   22511631.1684
  61562963.75047  48013678.17245  21640458.7114                   21640456.7194
                                  26133288.38748  20418353.70346  20416689.5944
  20416686.8984   43705381.90246  34106359.73844  22925449.7344   22925448.4804
  -3315738.98046  -2546040.27743  23641946.2194                   23641943.3634
  89855559.10946  70064671.02743  24127519.6804                   24127520.3014
 11  7 24  1 20 30.0000000  0  9G17G02G12G09G10G04G27G28G05
   6873084.59447   5408058.60945  22311098.0554                   22311095.0394
  47831557.10948  37324207.82446  20947159.0864                   20947154.7424
  75924984.91447  59208766.21544  22822874.3204                   22822870.8094
  56989504.51647  44458123.55144  22502563.2584                   22502561.4454
  61404144.28947  47889922.77345  21610236.6024                   21610233.3134
                                  26085774.70348  20381330.04346  20407648.1414
  20407645.6294   43654483.98047  34066698.99644  22915763.9224   22915763.3594
  -3318213.78546  -2547968.69143  23641475.0554                   23641472.9844
  89653400.61346  69907145.03143  24089050.0704                   24089050.1764
 11  7 24  1 21  0.0000000  0  9G17G02G12G09G10G04G27G28G05
   6820485.11747   5367072.00045  22301088.1804                   22301086.0514
  47699892.66448  37221612.18846  20922103.8204                   20922099.4344
  75740500.06647  59065011.79344  22787767.4144                   22787764.9924
  56942379.45347  44421402.69144  22493595.1644                   22493594.0354
  61245823.58647  47766556.02345  21580108.7114                   21580106.4384
                                  26038698.09848  20344646.96146  20398690.0784
  20398687.4414   43603966.10546  34027334.39844  22906150.9614   22906149.7274
  -3320377.79746  -2549654.91042  23641062.3134                   23641060.6484
  89451287.36346  69749654.29743  24050588.5004                   24050589.2074
 11  7 24  1 21 30.0000000  0  9G17G02G12G09G10G04G27G28G05
   6768047.88347   5326211.82445  22291109.8984                   22291107.5824
  47568651.51648  37119346.38346  20897130.0704                   20897125.1054
  75556265.45347  58921452.36744  22752708.8204                   22752705.8594
  56895790.94147  44385099.92244  22484730.4304                   22484728.9734
  61088008.70747  47643583.42645  21550077.5784                   21550075.6564
                                  25992060.27748  20308305.78946  20389815.0394
  20389812.1764   43553830.31646  33988267.52044  22896610.5004   22896609.5824
  -3322228.33246  -2551096.95742  23640710.1484                   23640708.1764
  89249226.46146  69592204.35943  24012138.0164                   24012138.3364
 11  7 24  1 22  0.0000000  0  9G17G02G12G09G10G04G27G28G05
   6715770.29347   5285476.05145  22281161.9844                   22281159.7664
  47437832.05948  37017409.17246  20872235.7734                   20872231.1174
  75372281.82047  58778088.52344  22717697.6564                   22717695.3634
  56849734.14547  44349211.50844  22475965.6094                   22475964.1214
  60930700.67247  47521005.78945  21520143.0314                   21520140.7114
                                  25945857.21948  20272303.40246  20381022.7584
  20381020.1134   43504072.59046  33949495.26644  22887142.0784   22887140.5044
  -3323769.37946  -2552297.73842  23640417.1334                   23640415.7464
  89047218.93446  69434796.03943  23973697.1954                   23973697.4494
 11  7 24  1 22 30.0000000  0  9G17G02G12G09G10G04G27G28G05
   6663652.38747   5244864.69545  22271244.2664                   22271241.8524
  47307432.25448  36915798.96546  20847421.3594                   20847416.8284
  75188550.63347  58634921.41045  22682734.7664                   22682732.5984
  56804205.16847  44313734.35244  22467301.7194                   22467300.3594
  60773901.16047  47398824.39845  21490304.4614                   21490302.2344
                                  25900085.46148  20236637.09046  20372312.8054
  20372310.3244   43454689.39546  33911014.79744  22877745.5164   22877743.7934
  -3325003.63346  -2553259.52742  23640181.6884                   23640181.2304
  88845266.16846  69277430.40244  23935266.8364                   23935267.5204
 11  7 24  1 23  0.0000000  0  9G17G02G12G09G10G04G27G28G05
   6611693.65647   5204377.34845  22261357.3754                   22261354.2664
  47177451.28148  36814515.12546  20822686.5314                   20822681.7464
  75005073.43847  58491952.19945  22647820.0164                   22647817.6994
  56759200.35947  44278665.65644  22458738.0234                   22458736.3874
  60617611.93047  47277040.61345  21460564.8594                   21460561.2194
                                  25854742.03948  20201304.55146  20363683.9144
  20363681.5314   43405677.37946  33872823.60944  22868417.9694   22868416.5434
  -3325933.63346  -2553984.24243  23640004.2664                   23640004.6054
  88643370.23447  69120109.01644  23896847.7584                   23896847.8444
 11  7 24  1 23 30.0000000  0  9G17G02G12G09G10G04G27G28G05
   6559893.55947   5164013.65245  22251499.8364                   22251497.0784
  47047888.27048  36713556.97746  20798031.6884                   20798026.7734
  74821851.79347  58349182.12545  22612954.6484                   22612951.3444
  56714716.22747  44244002.66444  22450272.6174                   22450271.4884
  60461835.03547  47155656.03545  21430920.9384                   21430918.1914
                                  25809823.61348  20166303.17246  20355136.6884
  20355134.0314   43357033.23046  33834919.04344  22859161.3524   22859160.4414
  -3326562.05546  -2554474.00043  23639885.2114                   23639884.5354
  88441532.88747  68962833.26644  23858439.1024                   23858439.9964
 11  7 24  1 24  0.0000000  0  9G17G02G12G09G10G04G27G28G05
   6508251.56647   5123773.12545  22241672.7344                   22241670.3404
  46918741.77048  36612923.38346  20773455.7664                   20773451.5594
  74638887.19147  58206612.37144  22578137.1254                   22578135.1254
  56670748.62147  44209742.16044  22441905.5784                   22441904.6024
  60306572.26247  47034672.08645  21401375.1484                   21401372.3164
                                  25765326.89848  20131630.39546  20346668.7194
  20346666.6914   43308753.69546  33797298.60544  22849974.0314   22849972.8524
  -3326891.58646  -2554730.78943  23639823.7034                   23639821.1844
  88239756.07447  68805604.69544  23820042.4304                   23820041.7274
 11  7 24  1 24 30.0000000  0  9G17G02G12G09G10G04G27G28G05
   6456773.47747   5083660.33645  22231876.6954                   22231873.7854
  46790016.85247  36512618.27746  20748960.1724                   20748955.8444
  74456187.52747  58064249.04745  22543370.4064                   22543367.9534
  56627300.16847  44175886.19144  22433638.2664                   22433636.4264
  60151831.44547  46914094.87545  21371929.0084                   21371926.4844
                                  25721254.82848  20097288.52346  20338282.5944
  20338279.6054   43260841.58646  33759964.44944  22840855.6644   22840855.7934
  -3326918.64546  -2554751.90243  23639817.2344                   23639815.8674
  88038047.78146  68648429.50443  23781658.0394                   23781657.2034
 11  7 24  1 25  0.0000000  0  9G17G02G12G09G10G04G27G28G05
   6405458.67247   5043674.77745  22222111.9384                   22222109.5434
  46661712.44948  36412640.85546  20724544.8204                   20724540.3054
  74273754.37947  57922093.41445  22508654.6484                   22508652.4104
  56584366.93847  44142431.68844  22425468.2894                   22425466.2114
  59997614.78547  46793926.07845  21342582.6334                   21342580.0314
                                  25677604.35948  20063275.16046  20329975.9924
  20329973.3984   43213293.43846  33722913.89144  22831808.4454   22831807.7704
  -3326645.87545  -2554539.46143  23639867.3914                   23639868.8324
  87836409.88346  68491309.18843  23743287.7424                   23743286.8404
 11  7 24  1 25 30.0000000  0  9G17G02G12G09G10G04G27G28G05
   6354307.72347   5003816.88345  22212377.7974                   22212375.4614
  46533828.18848  36312990.81346  20700209.1724                   20700204.5824
  74091590.13347  57780147.32445  22473989.8594                   22473987.5514
  56541945.98847  44109376.38744  22417395.8134                   22417394.2234
  59843924.76647  46674167.66045  21313335.9534                   21313333.4304
                                  25634372.99248  20029588.37146  20321749.3364
  20321746.8444   43166107.05546  33686145.21144  22822829.1884   22822828.2624
  -3326075.21545  -2554094.87542  23639976.7034                   23639978.5784
  87634845.34846  68334246.04743  23704930.6484                   23704930.0824
 11  7 24  1 26  0.0000000  0  9G17G02G12G09G10G04G27G28G05
   7878737.82847   6191684.46945  22502467.7974                   22502464.4064
  47981782.67247  37441267.07846  20975745.5394                   20975740.8634
  75485117.83247  58866013.14545  22739169.4224                   22739167.2154
  58075450.78947  45304315.16444  22709212.2034                   22709210.9614
  61266183.89547  47782421.55545  21583983.4614                   21583980.4694
                                  27166974.67248  21223823.43446  20613393.5474
  20613390.9494   44694696.15646  34877253.53544  23113710.7584   23113709.5514
  -1749793.68446  -1325823.52042  23939934.9224                   23939934.3094
  89008778.18846  69404843.25043  23966381.6884                   23966381.0514
 11  7 24  1 26 30.0000000  0  9G17G02G12G09G10G04G27G28G05
   7827908.54347   6152077.24245  22492795.0164                   22492792.4494
  47854730.36348  37342265.30146  20951568.6724                   20951564.0084
  75303491.25447  58724486.03145  22704606.8754                   22704604.7234
  58034038.46147  45272045.77744  22701331.3524                   22701330.0864
  61113547.77047  47663484.34445  21554937.2504                   21554935.2894
                                  27124567.16848  21190778.60946  20605323.9844
  20605321.3634   44648218.09046  34841036.77744  23104865.9144   23104865.3954
  -1748639.91447  -1324924.42643  23940153.7664                   23940152.3914
  88807360.84846  69247894.82043  23928052.5944                   23928052.9414
 11  7 24  1 27  0.0000000  0  9G17G02G12G09G10G04G27G28G05
   7777246.96147   6112600.69145  22483154.6094                   22483152.3914
  47728099.98448  37243592.31346  20927471.2814                   20927466.7274
  75122143.92247  58583176.50845  22670097.6094                   22670095.1564
  57993132.05547  45240170.62544  22693547.3524                   22693546.1954
  60961448.88347  47544965.76645  21525994.0004                   21525991.7464
                                  27082574.48448  21158057.02346  20597333.0004
  20597330.6214   44602097.01647  34805098.19544  23096089.7274   23096088.6414
  -1747191.10946  -1323795.48443  23940430.1724                   23940427.7814
  88606027.98047  69091012.22744  23889741.5314                   23889739.8754
 11  7 24  1 27 30.0000000  0  9G17G02G12G09G10G04G27G28G05
   7726748.48847   6073251.23045  22473544.8594                   22473541.8834
  47601885.75047  37145243.60546  20903453.5554                   20903449.3244
  74941072.75447  58442082.15645  22635641.0784                   22635638.4574
  57952723.39846  45208683.31344  22685857.2274                   22685856.2234
  60809884.64847  47426863.79745  21497151.4844                   21497149.5354
                                  27040988.82848  21125652.61346  20589419.3674
  20589417.0634   44556325.21946  34769431.78544  23087379.4924   23087377.9454
  -1745454.18746  -1322442.05143  23940760.9064                   23940759.0004
  88404776.84047  68934193.32044  23851443.5944                   23851443.2624
 11  7 24  1 28  0.0000000  0  9G17G02G12G09G10G04G27G28G05
   7676418.78947   6034033.28545  22463967.5234                   22463964.9494
  47476092.82848  37047223.17246  20879516.0944                   20879511.2734
  74760285.82047  58301209.31645  22601238.0234                   22601236.1024
  57912815.35947  45177586.12144  22678263.0394                   22678262.3134
  60658863.33247  47309184.89145  21468413.3054                   21468411.4344
                                  26999813.56648  21093567.98846  20581584.0164
  20581581.5864   44510905.60946  34734039.80544  23078736.5634   23078735.1644
  -1743425.56646  -1320861.34443  23941146.0314                   23941145.3554
  88203615.84847  68777444.64544  23813163.8054                   23813162.7464
 11  7 24  1 28 30.0000000  0  9G17G02G12G09G10G04G27G28G05
   7626252.09047   5994942.34445  22454420.9224                   22454418.5664
  47350714.32048  36949525.66846  20855657.7194                   20855652.8594
  74579779.41047  58160555.06345  22566888.0234                   22566885.9104
  57873398.46546  45146871.62144  22670762.4844                   22670761.2464
  60508381.27047  47191926.16445  21439777.3914                   21439775.9264
                                  26959039.84448  21061796.24246  20573824.6954
  20573822.6604   44465829.30146  34698915.34444  23070158.7734   23070157.4494
  -1741113.66845  -1319059.99242  23941585.2504                   23941584.9264
  88002541.39846  68620763.40243  23774900.4224                   23774899.3674
 11  7 24  1 29  0.0000000  0  9G17G02G12G09G10G04G27G28G05
   7576251.45347   5955980.80544  22444906.2114                   22444903.6914
  47225752.84848  36852153.12946  20831877.8984                   20831873.5944
  74399558.65647  58020123.38745  22532593.9534                   22532591.2304
  57834472.39846  45116539.60244  22663355.5164                   22663354.0234
  60358443.75847  47075091.78145  21411245.5314                   21411243.5474
                                  26918668.08648  21030337.73446  20566142.7424
  20566140.1994   44421096.60546  34664058.62944  23061646.4614   23061645.4344
  -1738517.16045  -1317036.78942  23942080.8834                   23942079.8834
  87801559.24646  68464154.06343  23736654.7274                   23736653.5204
 11  7 24  1 29 30.0000000  0  9G17G02G12G09G10G04G27G28G05
   7526416.74247   5917148.56645  22435422.9304                   22435420.1994
  47101207.47348  36755104.82046  20808177.7114                   20808173.1094
  74219625.56647  57879915.85245  22498353.8834                   22498350.7384
  57796033.58246  45086587.24244  22656040.7034                   22656040.1844
  60209052.73047  46958683.24245  21382816.8444                   21382814.9304
                                  26878695.43848  20999190.19946  20558536.1884
  20558533.7664   44376704.55547  34629467.37144  23053198.5864   23053197.9454
  -1735638.83646  -1314793.88743  23942627.8444                   23942627.1294
  87600671.32446  68307618.12943  23698426.5234                   23698426.0394
 11  7 24  1 30  0.0000000  0  9G17G02G12G09G10G04G27G28G05
   7476749.57847   5878446.87145  22425971.4774                   22425969.5044
  46977078.55948  36658381.02346  20784556.6484                   20784552.1334
  74039983.09447  57739934.77345  22464169.0634                   22464166.2424
  57758079.56347  45057012.67244  22648818.3284                   22648817.4964
  60060211.46147  46842703.06345  21354493.1804                   21354491.2234
                                  26839120.02748  20968352.21146  20551005.1484
  20551002.8134   44332651.37546  34595140.16444  23044816.0474   23044814.7274
  -1732479.81646  -1312332.35242  23943229.3284                   23943227.1454
  87399881.20746  68151158.39843  23660218.2584                   23660216.8014
 11  7 24  1 30 30.0000000  0  9G17G02G12G09G10G04G27G28G05
   7427250.09047   5839875.84445  22416552.2894                   22416549.8674
  46853365.89548  36561981.57046  20761015.1254                   20761010.1524
  73860634.27747  57600182.48845  22430039.5164                   22430036.9454
  57720607.66447  45027813.77744  22641687.9384                   22641687.0594
  59911922.44147  46727153.20745  21326275.3914                   21326273.3094
                                  26799940.13348  20937822.42646  20543549.6644
  20543546.7774   44288934.67646  34561075.17644  23036496.3444   23036495.5084
  -1729041.61746  -1309653.26243  23943884.1414                   23943882.0514
  87199192.20546  67994777.49643  23622028.1804                   23622026.6134
 11  7 24  1 31  0.0000000  0  9G17G02G12G09G10G04G27G28G05
   7377920.05147   5801436.84045  22407165.1024                   22407162.5164
  46730070.22348  36465907.05546  20737552.5864                   20737547.9144
  73681582.66847  57460661.80945  22395967.4384                   22395964.7274
  57683615.97347  44998989.05544  22634648.5164                   22634647.3954
  59764189.44147  46612036.63745  21298162.4924                   21298160.6454
                                  26761154.16048  20907599.59046  20536169.0944
  20536166.1564   44245553.12546  34527271.32444  23028242.0704   23028240.6254
  -1725324.99646  -1306757.19143  23944592.1644                   23944589.8244
  86998608.19946  67838478.41044  23583858.0314                   23583856.6374
 11  7 24  1 31 30.0000000  0  9G17G02G12G09G10G04G27G28G05
   7328759.87947   5763130.23044  22397809.7504                   22397807.7034
  46607190.83647  36370156.90646  20714169.0004                   20714164.9804
  73502830.87947  57321374.72745  22361952.2034                   22361950.0274
  57647100.88246  44970535.74444  22627699.8834                   22627698.3954
  59617015.07047  46497355.34445  21270156.2424                   21270153.5554
                                  26722759.66848  20877681.80546  20528862.0234
  20528860.0664   44202503.84846  34493726.39844  23020049.2274   23020048.6254
  -1721332.04746  -1303645.86342  23945350.2034                   23945349.9024
  86798131.85946  67682263.23844  23545707.9454                   23545707.6484
 11  7 24  1 32  0.0000000  0  9G17G02G12G09G10G04G27G28G05
   7279762.69147   5724950.59044  22388486.3754                   22388483.3914
  46484720.09048  36274725.17646  20690864.1724                   20690859.4384
  73324374.06347  57182317.50045  22327992.8914                   22327989.9844
  57611052.48447  44942446.05144  22620839.8754                   22620839.3404
  59470394.16047  46383105.31645  21242254.9304                   21242252.7504
                                  26684747.18448  20848061.68446  20521628.8594
  20521626.6724   44159777.07046  34460432.77744  23011919.2344   23011917.8674
  -1717071.81246  -1300326.25443  23946161.2664                   23946160.1294
  86597758.60946  67526128.39144  23507578.2034                   23507577.8984
 11  7 24  1 32 30.0000000  0  8G17G02G12G09G10G04G27G05
   7230933.00847   5686901.50444  22379194.3984                   22379191.3594
  46362661.45748  36179614.59046  20667636.8594                   20667632.1484
  73146218.44147  57043494.96145  22294091.0864                   22294088.2504
  57575471.49246  44914720.56644  22614069.8204                   22614067.4654
  59324333.56347  46269291.90645  21214460.2344                   21214458.4774
                                  26647118.25848  20818740.45346  20514467.7584
  20514465.6024   44117374.27746  34427391.62144  23003850.2034   23003849.3794
  86397495.55146  67370079.38744  23469468.7974                   23469468.8284
 11  7 24  1 33  0.0000000  0  8G17G02G12G09G10G04G27G05
   7182275.71947   5648986.71945  22369935.1804                   22369932.4344
  46241019.13748  36084828.38346  20644489.3984                   20644484.2584
  72968371.05547  56904912.57845  22260248.1024                   22260244.8524
  57540358.91046  44887360.09444  22607387.9304                   22607386.7304
  59178839.98447  46155920.33245  21186774.0164                   21186771.5864
                                  26609874.84448  20789719.61346  20507381.1484
  20507378.7934   44075297.33647  34394604.38344  22995843.3754   22995841.9344
  86197349.98847  67214121.93044  23431383.3134                   23431382.6414
 11  7 24  1 33 30.0000000  0  8G17G02G12G09G10G04G27G05
   7133788.60247   5611204.56645  22360708.3284                   22360705.7424
  46119789.98048  35990364.12946  20621419.9774                   20621415.4104
  72790832.19547  56766570.62945  22226463.1884                   22226460.2424
  57505709.32447  44860360.40244  22600794.5004                   22600792.3674
  59033913.39547  46042990.55145  21159195.0164                   21159193.0744
                                  26573012.23048  20760995.49246  20500366.7814
  20500363.5864   44033541.37546  34362067.23444  22987897.4614   22987896.7074
  85997322.50047  67058256.46944  23393319.4844                   23393318.1844
 11  7 24  1 34  0.0000000  0  8G17G02G12G09G10G04G27G05
   7085472.09047   5573555.32044  22351513.7664                   22351511.4804
  45998972.86347  35896220.94146  20598429.2584                   20598424.5594
  72613603.79747  56628470.58245  22192737.9924                   22192735.0204
  57471519.08647  44833718.59044  22594287.8754                   22594287.3014
  58889555.63347  45930504.02045  21131725.2034                   21131723.0084
                                  26536527.54748  20732565.87146  20493423.5474
  20493421.1414   43992103.01646  34329777.60243  22980011.6414   22980010.6764
  85797415.02347  66902484.53944  23355277.9534                   23355276.9304
 11  7 24  1 34 30.0000000  0  8G17G02G12G09G10G04G27G05
   8612761.35547   6763650.87945  22642147.6564                   22642144.9654
  47454005.15648  37030012.37146  20875312.8444                   20875307.9844
  74012127.82447  57718229.57845  22458867.9454                   22458865.3364
  59013219.95747  46035043.90244  22887663.7504                   22887662.7114
  60321207.32047  47046076.79345  21404159.2424                   21404157.0164
  28075853.04348                  21932040.28546  20786347.4224
  20786344.5904   45526414.55546  35525344.98444  23271981.4304   23271981.4654
  87173070.85247  67974424.29744  23617055.6094                   23617055.1414
 11  7 24  1 35  0.0000000  0  8G17G02G12G09G10G04G27G05
   8564809.78947   6726286.02345  22633022.7344                   22633020.0394
  47334034.19148  36936528.52746  20852483.1644                   20852477.9654
  73835550.93047  57580637.19145  22425266.5394                   22425263.9224
  58979962.35546  46009128.84444  22881334.7194                   22881333.9884
  60178017.09847  46934500.01245  21376911.1724                   21376908.6804
  28040140.04348                  21904211.96946  20779551.9304
  20779548.7704   45485626.79746  35493562.31643  23264219.2974   23264219.0984
  86973435.28546  67818864.27744  23579065.7034                   23579065.2424
 11  7 24  1 35 30.0000000  0  8G17G02G12G09G10G04G27G05
   8517037.58647   6689060.93844  22623932.3674                   22623929.2734
  47214481.34048  36843370.47746  20829733.1254                   20829727.5314
  73659299.79747  57443298.65245  22391726.6414                   22391724.2234
  58947162.45747  45983570.42644  22875093.7194                   22875092.2074
  60035410.54347  46823378.06345  21349774.1414                   21349771.9884
  28004805.52048                  21876678.57046  20772827.5084
  20772825.1644   45445156.46147  35462026.94144  23256519.6644   23256518.2664
  86773936.25846  67663410.61344  23541103.2974                   23541102.1214
 11  7 24  1 36  0.0000000  0  8G17G02G12G09G10G04G27G05
   8469439.36747   6651971.42244  22614874.3204                   22614871.4964
  47095340.21548  36750533.25846  20807060.8284                   20807056.1764
  73483371.10547  57306211.35545  22358248.5634                   22358246.5314
  58914810.93446  45958361.38744  22868937.3444                   22868936.1914
  59893383.93047  46712708.01645  21322747.0164                   21322745.3754
  27969841.11748                  21849433.58246  20766174.2584
  20766171.6844   45404994.97747  35430732.21544  23248877.0634   23248875.1484
  86574570.53946  67508060.83644  23503165.9774                   23503164.1524
 11  7 24  1 36 30.0000000  0  8G17G02G12G09G10G04G27G05
   8422017.30947   6615019.19144  22605849.4694                   22605848.0124
  46976612.59848  36658018.25446  20784468.1884                   20784463.3164
  73307769.27747  57169378.78145  22324833.4304                   22324830.2934
  58882906.59047  45933500.77044  22862866.2734                   22862864.8524
  59751941.57447  46602493.20745  21295831.8284                   21295829.2274
  27935246.31348                  21822476.59846  20759590.9694
  20759588.6644   45365142.04346  35399677.94944  23241293.1174   23241291.4654
  86375342.92646  67352818.68044  23465253.3134                   23465252.1094
 11  7 24  1 37  0.0000000  0  8G17G02G12G09G10G04G27G05
   8374770.50447   6578203.50045  22596859.4774                   22596856.4144
  46858296.11348  36565823.62146  20761952.9454                   20761948.1294
  73132495.01647  57032801.45745  22291479.7504                   22291477.3284
  58851444.48046  45908984.76644  22856879.4064                   22856878.4344
  59611083.98847  46492734.07845  21269027.4844                   21269024.8834
  27901017.25448                  21795804.60546  20753077.3984
  20753075.2274   45325593.28947  35368860.66044  23233766.5784   23233765.9184
  86176254.79746  67197685.23844  23427367.4924                   23427366.6914
 11  7 24  1 37 30.0000000  0  8G17G02G12G09G10G04G27G05
   8327692.43447   6541519.32844  22587899.9384                   22587897.3284
  46740382.98848  36473943.28146  20739514.5864                   20739510.0984
  72957543.53147  56896475.66045  22258187.5864                   22258184.6524
  58820414.15647  45884805.24644  22850974.0004                   22850973.4844
  59470806.48847  46383426.96945  21242333.4304                   21242331.1254
  27867144.37948                  21769410.16046  20746631.4224
  20746628.9694   45286338.60247  35338272.53544  23226296.6484   23226295.8484
  85977301.77747  67042657.05144  23389507.6644                   23389506.9264
 11  7 24  1 38  0.0000000  0  8G17G02G12G09G10G04G27G05
   8280789.93047   6504971.91045  22578975.7974                   22578972.5044
  46622879.51648  36382382.14846  20717154.5554                   20717149.6454
  72782924.60247  56760409.00045  22224958.1484                   22224955.5554
  58789819.51646  45860965.20344  22845152.6954                   22845151.1844
  59331117.92247  46274578.75445  21215751.1484                   21215748.7424
  27833631.83648                  21743296.49246  20740254.7344
  20740251.8874   45247382.38347  35307916.94144  23218884.0864   23218883.2854
  85778493.94147  66887741.96144  23351676.6644                   23351675.0904
 11  7 24  1 38 30.0000000  0  8G17G02G12G09G10G04G27G05
   8234060.55547   6468559.43445  22570082.9384                   22570080.5864
  46505781.80548  36291137.21146  20694871.4304                   20694866.9884
  72608637.66447  56624601.01645  22191792.4064                   22191789.9344
  58759654.15646  45837459.65244  22839411.5784                   22839411.7584
  59192017.38747  46166188.74245  21189281.6414                   21189279.2034
  27800474.45348                  21717459.57446  20733944.8054
  20733942.3714   45208718.66047  35277789.34843  23211526.3134   23211525.6054
  85579830.72347  66732939.56644  23313872.4844                   23313870.1994
 11  7 24  1 39  0.0000000  0  8G17G02G12G09G10G04G27G05
   8187512.07447   6432287.89144  22561225.0634                   22561222.6294
  46389096.71148  36200213.79346  20672667.0084                   20672662.5164
  72434692.48447  56489059.37145  22158691.2584                   22158689.0704
  58729922.01646  45814291.70344  22833753.4304                   22833753.1844
  59053514.19947  46058264.20345  21162925.2194                   21162922.7934
  27767677.00048                  21691903.12146  20727703.5784
  20727701.0234   45170352.18047  35247893.27344  23204225.9384   23204226.1524
  85381322.27746  66578257.79744  23276096.9924                   23276095.7504
 11  7 24  1 39 30.0000000  0  8G17G02G12G09G10G04G27G05
   8141140.50447   6396154.22345  22552400.8754                   22552398.4304
  46272819.12148  36109607.89846  20650540.0784                   20650535.1604
  72261086.80947  56353782.26645  22125655.2504                   22125652.8204
  58700615.24246  45791455.22344  22828177.4304                   22828176.1254
  58915606.39147  45950803.61745  21136682.3914                   21136680.0984
  27735232.75848                  21666621.89146  20721529.9924
  20721527.0824   45132275.63347  35218223.21144  23196979.6724   23196978.9804
  85182966.98047  66423695.36344  23238350.9224                   23238349.6214
 11  7 24  1 40  0.0000000  0  8G17G02G12G09G10G04G27G05
   8094944.87947   6360157.65244  22543610.2274                   22543607.7194
  46156947.23848  36019318.14546  20628490.5554                   20628485.4964
  72087822.29747  56218771.00445  22092684.4694                   22092681.9104
  58671729.41446  45768946.73044  22822680.9454                   22822679.8484
  58778294.83647  45843807.63345  21110552.6484                   21110550.5004
  27703137.94948                  21641612.96546  20715421.9614
  20715419.8794   45094485.25046  35188776.06343  23189788.7034   23189788.0314
  84984766.46147  66269253.56344  23200634.4064                   23200632.9654
 11  7 24  1 40 30.0000000  0  8G17G02G12G09G10G04G27G05
   8048924.00447   6324297.22745  22534852.2664                   22534850.1764
  46041478.22348  35929342.31346  20606517.8284                   20606512.4734
  71914899.38347  56084025.92245  22059778.0634                   22059775.9614
  58643259.08246  45746762.05144  22817262.6024                   22817262.1094
  58641579.42647  45737276.17245  21084536.8984                   21084533.9804
  27671388.37148                  21616873.04346  20709380.6804
  20709377.8674   45056976.26646  35159548.24243  23182650.7504   23182650.3794
  84786722.14547  66114933.44944  23162948.1884                   23162946.3204
 11  7 24  1 41  0.0000000  0  8G17G02G12G09G10G04G27G05
   8003076.09847   6288571.58644  22526128.0634                   22526125.1174
  45926409.21948  35839678.18046  20584620.2034                   20584615.4384
  71742318.27047  55949547.16445  22026937.4924                   22026934.2194
  58615198.86346  45724896.88744  22811923.9924                   22811922.9774
  58505460.12947  45631209.21545  21058634.2814                   21058631.3404
  27639979.27748                  21592398.42245  20703403.4144
  20703401.0084   45019743.88746  35130535.91443  23175566.6024   23175565.2854
  84588834.19146  65960735.19944  23125290.4774                   23125289.8054
 11  7 24  1 41 30.0000000  0  8G17G02G12G09G10G04G27G05
   7957400.79347   6252980.44945  22517436.3984                   22517433.9064
  45811739.04748  35750324.82846  20562799.9534                   20562794.5554
  71570080.89147  55815336.24645  21994161.9454                   21994159.0394
  58587544.98046  45703348.44144  22806660.8204                   22806659.7464
  58369938.72347  45525608.15645  21032845.0314                   21032842.1374
  27608907.59048                  21568186.72746  20697490.8054
  20697488.4064   44982784.72746  35101736.52743  23168533.2274   23168532.5004
  84391104.98846  65806660.64543  23087663.7734                   23087662.6564
 11  7 24  1 42  0.0000000  0  8G17G02G12G09G10G04G27G05
   7911902.96947   6217527.59044  22508778.2664                   22508775.8754
  45697471.47348  35661285.18846  20541055.2034                   20541050.3164
  71398193.95747  55681398.41845  21961452.7114                   21961450.0354
  58560298.10246  45682117.07044  22801476.2664                   22801474.7624
  58235021.30547  45420477.73445  21007170.9614                   21007168.3914
  27578175.61748                  21544239.73846  20691642.0234
  20691640.2304   44946100.47346  35073151.35543  23161551.9064   23161551.5004
  84193541.80547  65652715.41044  23050069.2504                   23050067.5514
 11  7 24  1 42 30.0000000  0  8G17G02G12G09G10G04G27G05
   9441999.61347   7409810.72744  22799946.1334                   22799943.7424
  47159024.52048  36800157.72346  20819179.7274                   20819174.7234
  72802080.81647  56775336.25445  22228603.2974                   22228600.2894
  60108871.01246  46888797.28144  23096159.5864                   23096158.6684
  59676129.10247  46543418.90645  21281405.0164                   21281402.4774
  29123196.55948                  22748152.15645  20985649.9844
  20985648.0084   46485104.62946  36272375.30143  23454414.8834   23454414.1134
  85571569.09447  66726503.02044  23312299.5474                   23312297.4694
 11  7 24  1 43  0.0000000  0  8G17G02G12G09G10G04G27G05
   9396851.18047   7374630.10944  22791354.6644                   22791352.0124
  47045552.77348  36711738.20346  20797586.2734                   20797581.5394
  72630895.77047  56641945.32845  22196027.8754                   22196024.8834
  60082421.50446  46868187.25044  23091126.8204                   23091126.6094
  59542418.57447  46439228.91445  21255960.4694                   21255957.9574
  29093129.28148                  22724723.10545  20979929.1954
  20979926.0434   46448955.10946  36244206.78543  23447535.4454   23447535.1724
  85374339.99647  66572818.12144  23274767.0704                   23274765.8674
 11  7 24  1 43 30.0000000  0  8G17G02G12G09G10G04G27G05
   9351879.31347   7339587.08644  22782797.1254                   22782794.0084
  46932479.43448  36623629.13346  20776069.6564                   20776064.4304
  72460066.55547  56508831.68045  22163520.2734                   22163516.9694
  60056366.82446  46847884.91844  23086169.3834                   23086167.1214
  59409315.76647  46335512.47345  21230632.1484                   21230629.6804
  29063392.07048                  22701551.26245  20974269.9224
  20974267.4414   46413070.15646  36216244.45343  23440707.2034   23440706.5984
  85177283.06647  66419267.41044  23237268.3134                   23237267.0864
 11  7 24  1 44  0.0000000  0  8G17G02G12G09G10G04G27G05
   9307079.21547   7304677.92244  22774271.6954                   22774269.0664
  46819798.10548  36535825.52746  20754626.8594                   20754622.1134
  72289590.23847  56375993.00845  22131079.6644                   22131076.5824
  60030698.28146  46827883.45744  23081284.2894                   23081283.2664
  59276817.11747  46232266.80945  21205418.5004                   21205415.9184
  29033977.12948                  22678630.53946  20968672.7194
  20968669.9614   46377441.49246  36188481.79343  23433927.3984   23433927.4344
  84980395.78547  66265848.89144  23199801.6174                   23199800.6374
 11  7 24  1 44 30.0000000  0  8G17G02G12G09G10G04G27G05
   9262463.91847   7269912.74644  22765781.4304                   22765779.3484
  46707520.44548  36448336.48046  20733260.8134                   20733256.0354
  72119481.83647  56243441.03945  22098708.8674                   22098706.2234
  60005425.02747  46808190.02744  23076475.0704                   23076473.8714
  59144936.86347  46129503.02345  21180322.0944                   21180319.7814
  29004894.64848                  22655968.87545  20963137.9924
  20963135.8244   46342078.61746  36160926.27343  23427197.7894   23427197.5634
  84783693.92647  66112574.76244  23162371.3984                   23162368.9264
 11  7 24  1 45  0.0000000  0  8G17G02G12G09G10G04G27G05
   9218029.43447   7235288.46944  22757325.7274                   22757322.8754
  46595641.46148  36361158.07846  20711971.1174                   20711966.0124
  71949739.68447  56111174.44945  22066407.7034                   22066405.0124
  59980539.36746  46788798.60544  23071738.5394                   23071738.2624
  59013672.84447  46027219.40645  21155343.6564                   21155341.3054
  28976138.09448                  22633561.17245  20957665.8204
  20957663.6094   46306974.88746  36133572.69143  23420518.5234   23420517.7234
  84587176.08247  65959444.00444  23124974.9384                   23124972.9534
 11  7 24  1 45 30.0000000  0  8G17G02G12G09G10G04G27G05
   9173771.84047   7200802.03944  22748903.5634                   22748900.6254
  46484156.51248  36274286.71546  20690755.7114                   20690750.8874
  71780362.44147  55979192.20345  22034176.8054                   22034173.5904
  59956033.59046  46769703.16444  23067076.0864                   23067075.8054
  58883022.79747  45925414.21145  21130482.0394                   21130479.4414
  28947700.44548                  22611401.96145  20952254.4614
  20952252.1134   46272123.09846  36106415.43043  23413885.1564   23413885.1484
  84390840.72347  65806455.50845  23087613.1414                   23087611.7464
 11  7 24  1 46  0.0000000  0  8G17G02G12G09G10G04G27G05
   9129688.23447   7166451.17244  22740514.9614                   22740512.7074
  46373060.85948  36187718.69946  20669615.1724                   20669610.4924
  71611348.52347  55847493.09445  22002014.3984                   22002011.7384
  59931900.69546  46750898.30544  23062483.8284                   23062482.3094
  58752984.78148  45824085.91845  21105735.8984                   21105733.6644
  28919575.98448                  22589486.79346  20946902.9924
  20946900.1844   46237516.97746  36079449.53543  23407301.2734   23407299.8134
  84194687.41847  65653608.87544  23050286.3054                   23050285.1884
 11  7 24  1 46 30.0000000  0  8G17G02G12G09G10G04G27G05
   9085778.60947   7132235.85944  22732159.5234                   22732157.1844
  46262353.27048  36101453.07846  20648548.2974                   20648543.4224
  71442699.43447  55716078.27345  21969921.3134                   21969918.8984
  59908136.78147  46732380.93844  23057961.0864                   23057960.1454
  58623560.28148  45723235.70345  21081107.3834                   21081104.7384
  28891761.59048                  22567813.25045  20941609.8984
  20941607.3094   46203153.07846  36052672.42643  23400761.9454   23400761.4144
  83998718.52347  65500905.93844  23012994.7114                   23012993.2734
 11  7 24  1 47  0.0000000  0  8G17G02G12G09G10G04G27G05
   9042040.98847   7098154.61344  22723836.3594                   22723833.5274
  46152030.59448  36015487.39546  20627554.6334                   20627549.9774
  71274416.05547  55584948.41845  21937898.1884                   21937895.3634
  59884736.30947  46714146.75444  23053509.3524                   23053507.4694
  58494748.78947  45622863.14545  21056595.3524                   21056592.4454
  28864252.89148                  22546377.88745  20936374.5944
  20936372.7624   46169026.50846  36026080.24643  23394267.7734   23394267.1764
  83802934.42647  65348346.96944  22975738.8284                   22975736.6174
 11  7 24  1 47 30.0000000  0  8G17G02G12G09G10G04G27G05
   8998483.18847   7064213.46544  22715547.5084                   22715545.0594
  46042099.84848  35929827.10246  20606635.6884                   20606630.5234
  71106508.37547  55454111.31645  21905946.4924                   21905943.4534
  59861703.19547  46696198.82844  23049125.7034                   23049124.7074
  58366559.43447  45522975.35945  21032201.9064                   21032199.4384
  28837054.78948                  22525184.55545  20931199.0314
  20931196.9384   46135141.97346  35999676.65643  23387820.0634   23387819.3444
  83607345.60947  65195940.17644  22938519.0004                   22938517.5664
 11  7 24  1 48  0.0000000  0  8G17G02G12G09G10G04G27G05
   8955102.67247   7030410.46544  22707292.6884                   22707290.0164
  45932556.95348  35844469.03546  20585790.5164                   20585785.5044
  70938975.59847  55323566.35245  21874065.7194                   21874063.3204
  59839030.81347  46678532.00844  23044811.9064                   23044810.2464
  58238990.50048  45423571.04345  21007926.4144                   21007923.8524
  28810161.87147                  22504229.03545  20926082.0864
  20926079.7854   46101493.40646  35973456.94544  23381416.8204   23381415.9534
  83411951.89847  65043685.43445  22901337.2424                   22901335.5784
 11  7 24  1 48 30.0000000  0  8G17G02G12G09G10G04G27G05
   8911898.87547   6996745.19544  22699071.2584                   22699068.5664
  45823399.81648  35759411.55946  20565018.1884                   20565012.8674
  70771818.97747  55193314.50845  21842256.3984                   21842253.9534
  59816714.60947  46661142.73444  23040564.8754                   23040563.5164
  58112042.98448  45324650.93445  20983768.5704                   20983766.2584
  28783570.44948                  22483508.44545  20921021.7894
  20921019.5044   46068076.95346  35947418.09443  23375057.1954   23375057.4534
  83216755.15647  64891584.19544  22864191.7034                   22864189.9024
 11  7 24  1 49  0.0000000  0  8G17G02G12G09G10G04G27G05
   8868877.75447   6963222.23044  22690884.8674                   22690881.9734
  45714633.45348  35674658.57846  20544320.7664                   20544315.4384
  70605046.73847  55063362.18845  21810521.1484                   21810518.6374
  59794757.03546  46644032.85243  23036386.6884                   23036384.9574
  57985724.32847  45226220.83645  20959731.2814                   20959728.2424
  28757284.36748                  22463025.77745  20916019.7504
  20916017.1484   46034895.35946  35921562.26244  23368743.1254   23368743.6914
  83021763.90647  64739643.07044  22827085.7584                   22827084.7664
 11  7 24  1 49 30.0000000  0  8G17G02G12G09G10G04G27G05
   8826032.30147   6929836.15244  22682731.7034                   22682728.3754
  45606249.51248  35590203.57846  20523695.9694                   20523690.8834
  70438653.80547  54933705.42245  21778857.6724                   21778854.6884
  59773146.89547  46627193.73444  23032274.0864                   23032273.0824
  57860028.50847  45128276.07045  20935812.3674                   20935809.0394
  28731293.26248                  22442772.97345  20911073.8284
  20911071.6174   46001938.30146  35895881.37543  23362472.3834   23362472.2584
  82826973.23847  64587858.20344  22790018.9144                   22790017.0434
 11  7 24  1 50  0.0000000  0  8G17G02G12G09G10G04G27G05
   8783368.03547   6896591.30144  22674612.7814                   22674610.0744
  45498252.10947  35506049.78146  20503144.6724                   20503139.6914
  70272647.51647  54804349.93045  21747267.8984                   21747264.4924
  59751885.76246  46610626.54744  23028227.9774                   23028227.1414
  57734961.94947  45030821.64545  20912012.6564                   20912010.1374
  28705599.91047                  22422752.17645  20906184.4844
  20906182.1914   45969208.00846  35870377.20344  23356243.2424   23356243.9964
  82632391.39847  64436236.05945  22752991.3204                   22752989.4614
 11  7 24  1 50 30.0000000  0  8G17G02G12G09G10G04G27G05
   8740882.46147   6863485.67244  22666528.4614                   22666525.6954
  45390637.69548  35422194.41446  20482665.9774                   20482661.1724
  70107027.74247  54675295.62945  21715751.3284                   21715748.2894
  59730967.51647  46594326.53543  23024247.5704                   23024246.6604
  57610523.80947  44933856.89545  20888332.6334                   20888330.3014
  28680199.35248                  22402959.52345  20901350.6094
  20901347.9384   45936699.28146  35845045.67243  23350057.4384   23350057.8244
  82438018.46947  64284776.71544  22716002.7274                   22716001.2544
 11  7 24  1 51  0.0000000  0  8G17G02G12G09G10G04G27G05
  10273998.63347   8058121.65644  22958270.0004                   22958267.5234
  46858829.94948  36566240.35546  20762054.2034                   20762048.8094
  71517223.72747  55774149.70745  21984102.7814                   21984099.7194
  61285810.88746  47805892.75444  23320124.8594                   23320123.2704
  59062140.93447  46064987.15645  21164565.8754                   21164563.6214
  30230511.03547                  23610994.59845  21196365.3984
  21196363.0084   47479831.21546  37047486.11343  23643706.1024   23643705.7664
  83819284.92647  65361088.34044  22978849.2114                   22978847.5314
 11  7 24  1 51 30.0000000  0  8G17G02G12G09G10G04G27G05
  10231873.69947   8025297.05144  22950254.6024                   22950251.5124
  46751980.50848  36482981.05546  20741721.5474                   20741716.0824
  71352386.57847  55645705.24245  21952734.6414                   21952731.9654
  61265570.48446  47790120.96943  23316273.3594                   23316272.4414
  58938966.00447  45969006.73445  21141126.5314                   21141124.1054
  30205690.66848                  23591654.05545  21191642.0234
  21191639.6954   47447758.43046  37022494.27343  23637602.6024   23637601.8714
  83625340.50047  65209962.89544  22941943.2344                   22941941.4804
 11  7 24  1 52  0.0000000  0  8G17G02G12G09G10G04G27G05
  10189933.82847   7992616.63744  22942273.5704                   22942270.6604
  46645516.02048  36400021.73446  20721461.9534                   20721456.2344
  71187947.95347  55517571.30145  21921443.7504                   21921440.3444
  61245667.18446  47774611.84844  23312485.6094                   23312485.5044
  58816428.77347  45873523.19545  21117808.6884                   21117806.2114
  30181160.44548                  23572539.60245  21186974.3754
  21186971.8754   47415903.23046  36997671.95743  23631540.4694   23631540.4734
  83431618.11347  65059010.46945  22905078.2974                   22905076.6174
 11  7 24  1 52 30.0000000  0  8G17G02G12G09G10G04G27G05
  10148178.71147   7960080.18045  22934327.3134                   22934325.1914
  46539435.44148  36317361.55946  20701275.4924                   20701270.5514
  71023909.70747  55389749.35945  21890228.1414                   21890224.8484
  61226097.00046  47759362.31343  23308760.8674                   23308760.2114
  58694530.19547  45778537.32445  21094611.7504                   21094609.3164
  30156917.67248                  23553649.11345  21182361.0944
  21182358.5784   47384262.31346  36973016.64843  23625519.8524   23625519.6024
  83238120.48447  64908233.19544  22868256.6094                   22868255.3984
 11  7 24  1 53  0.0000000  0  8G17G02G12G09G10G04G27G05
  10106602.29347   7927682.98844  22926415.8364                   22926413.3554
  46433730.69148  36234994.23446  20681160.5164                   20681155.2114
  70860267.73047  55262236.17645  21859087.4614                   21859084.7974
  61206849.76246  47744364.42643  23305099.1254                   23305097.2974
  58573264.80147  45684044.83645  21071536.4144                   21071533.7234
  30132953.19547                  23534975.49245  21177800.7664
  21177798.3594   47352825.83246  36948520.60243  23619536.5474   23619537.6564
  83044843.72747  64757628.01644  22831477.4694                   22831475.4344
 11  7 24  1 53 30.0000000  0  8G17G02G12G09G10G04G27G05
  10065209.36747   7895428.80144  22918538.4694                   22918536.0274
  46328405.70748  36152922.82846  20661117.6644                   20661112.1374
  70697028.98047  55135037.18845  21828024.5634                   21828021.4064
  61187926.49646  47729618.98443  23301497.8674                   23301496.1094
  58452638.87147  45590050.64545  21048582.0164                   21048579.4144
  30109269.36347                  23516520.55945  21173293.8284
  21173291.1054   47321595.72746  36924185.43843  23613594.0864   23613594.4454
  82851795.31347  64607200.76644  22794741.5864                   22794740.0784
 11  7 24  1 54  0.0000000  0  8G17G02G12G09G10G04G27G05
  10023999.48046   7863317.19944  22910697.0394                   22910694.8484
  46223458.83248  36071146.05946  20641146.9844                   20641141.7664
  70534195.07447  55008153.67245  21797038.3674                   21797035.2464
  61169322.94546  47715122.67244  23297957.8444                   23297956.8984
  58332652.85547  45496555.07845  21025748.9454                   21025746.5004
  30085862.77348                  23498281.65245  21168839.7194
  21168837.1684   47290568.32046  36900008.19543  23607690.7034   23607691.1764
  82658977.39547  64456953.10945  22758049.3594                   22758047.9064
 11  7 24  1 54 30.0000000  0  8G17G02G12G09G10G04G27G05
   9982968.17647   7831344.75844  22902889.1414                   22902887.1054
  46118883.73048  35989658.98046  20621246.7584                   20621241.7894
  70371763.35947  54881583.54345  21766128.4694                   21766125.3134
  61151030.99246  47700869.16843  23294477.0474                   23294476.0004
  58213303.38347  45403555.52745  21003037.2894                   21003034.9344
  30062726.67247                  23480253.50845  21164436.9224
  21164434.3984   47259735.98446  36875982.93443  23601822.5864   23601822.1454
  82466387.59047  64306883.23445  22721400.6564                   22721399.0204
 11  7 24  1 55  0.0000000  0  8G17G02G12G09G10G04G27G05
   9942120.86347   7799515.70744  22895115.6724                   22895113.3834
  46014684.74648  35908464.99246  20601418.6484                   20601413.5354
  70209741.38347  54755332.67645  21735296.5784                   21735293.4654
  61133051.99246  47686859.52743  23291055.3524                   23291054.2894
  58094596.78947  45311056.91845  20980448.2504                   20980445.6954
  30039863.35247                  23462437.93045  21160086.1414
  21160083.7194   47229100.93846  36852111.41443  23595994.0634   23595993.2894
  82274034.04347  64156997.44944  22684796.6954                   22684794.6954
 11  7 24  1 55 30.0000000  0  8G17G02G12G09G10G04G27G05
   9901457.27047   7767829.78944  22887377.4844                   22887375.4024
  45910860.30548  35827562.84446  20581661.6564                   20581656.0744
  70048130.75847  54629402.35245  21704543.2114                   21704539.7074
  61115381.68047  47673090.40643  23287693.3594                   23287692.4344
  57976533.61347  45219059.65645  20957981.7274                   20957979.1254
  30017269.63348                  23444832.43445  21155787.1484
  21155785.0234   47198659.34846  36828390.60943  23590200.2114   23590199.8554
  82081918.94547  64007297.46545  22648238.8134                   22648236.9184
 11  7 24  1 56  0.0000000  0  8G17G02G12G09G10G04G27G05
   9860979.50046   7736288.66844  22879675.0314                   22879672.1994
  45807411.15648  35746953.12946  20561975.7734                   20561970.6564
  69886935.84047  54503795.94945  21673868.4384                   21673865.4144
  61098018.11346  47659560.33244  23284388.6724                   23284387.8674
  57859116.68447  45127565.96145  20935638.1564                   20935635.3324
  29994945.19148                  23427436.77045  21151538.7814
  21151536.2934   47168410.10246  36804819.71943  23584444.2814   23584444.0004
  81890046.69147  63857786.70345  22611726.8054                   22611724.5984
 11  7 24  1 56 30.0000000  0  8G17G02G12G09G10G04G27G05
   9820690.02747   7704894.28544  22872008.6094                   22872005.9884
  45704338.15248  35666636.53146  20542361.3284                   20542355.9414
  69726160.79747  54378516.71545  21643274.2194                   21643271.4844
  61080960.05147  47646268.30944  23281143.7814                   23281142.4454
  57742349.46947  45036578.55145  20913417.9144                   20913415.3164
  29972889.55147                  23410250.55145  21147341.6644
  21147339.3014   47138352.33646  36781398.03143  23578724.9224   23578725.2074
  81698422.55547  63708469.25045  22575261.7504                   22575259.4734
 11  7 24  1 57  0.0000000  0  8G17G02G12G09G10G04G27G05
   9780585.89546   7673644.32044  22864376.8524                   22864374.1174
  45601637.06648  35586609.73846  20522817.9534                   20522812.7854
  69565804.73047  54253563.96145  21612759.4534                   21612756.3404
  61064200.24646  47633208.69943  23277953.4774                   23277953.4534
  57626229.99247  44946095.87145  20891321.1884                   20891318.2034
  29951097.01247                  23393269.35545  21143194.7664
  21143191.7274   47108479.82446  36758120.69943  23573040.0784   23573040.8054
  81507045.70747  63559344.52745  22538843.3204                   22538841.7894
 11  7 24  1 57 30.0000000  0  8G17G02G12G09G10G04G27G05
   9740664.54346   7642536.76244  22856779.9224                   22856777.7304
  45499304.11748  35506869.80146  20503344.6724                   20503339.3914
  69405867.08647  54128937.23845  21582324.4454                   21582321.5784
  61047732.32846  47620376.52344  23274819.6724                   23274819.1334
  57510756.16847  44856116.28545  20869347.0704                   20869344.2114
  29929562.68047                  23376489.37145  21139096.4844
  21139094.3674   47078786.73946  36734983.17143  23567389.5004   23567389.7464
  81315916.27347  63410412.55545  22502472.6334                   22502470.9774
 11  7 24  1 58  0.0000000  0  8G17G02G12G09G10G04G27G05
   9700925.42246   7611571.20744  22849217.4774                   22849215.4184
  45397337.19548  35427415.09446  20483941.0704                   20483935.8364
  69246349.06347  54004637.50845  21551969.0784                   21551966.2464
  61031551.76647  47607768.24644  23271741.5164                   23271740.2234
  57395928.45347  44766640.16845  20847496.4304                   20847493.3634
  29908282.90647                  23359907.73845  21135047.1334
  21135044.7464   47049269.36846  36711982.56943  23561773.1644   23561772.8714
  81125036.17647  63261674.87545  22466149.6954                   22466147.5594
 11  7 24  1 58 30.0000000  0  8G17G02G12G09G10G04G27G05
   9661372.08247   7580750.43044  22841690.9144                   22841688.4734
  45295738.31648  35348247.16046  20464607.6564                   20464602.4344
  69087256.43047  53880669.24245  21521694.5474                   21521691.3094
  61015658.28547  47595383.70744  23268717.2504                   23268716.7544
  57281751.02747  44677670.77045  20825768.6484                   20825766.3794
  29887258.44147                  23343525.02345  21131046.9064
  21131044.2234   47019927.85946  36689118.97343  23556189.5554   23556189.6414
  80934411.25447  63113136.02745  22429874.9304                   22429872.9884
 11  7 24  1 59  0.0000000  0  8G17G02G12G09G10G04G27G05
   9622003.43447   7550073.55144  22834199.2344                   22834196.8484
  45194505.12548  35269364.19146  20445343.4064                   20445338.3634
  68928589.87947  53757032.98045  21491501.1804                   21491498.3014
  61000046.74246  47583218.80543  23265746.4844                   23265744.6484
  57168223.59447  44589207.85945  20804166.1334                   20804163.0904
  29866485.53147                  23327338.35245  21127093.3204
  21127091.0084   46990757.77346  36666388.98843  23550638.5554   23550639.0354
  80744042.96547  62964797.16445  22393648.7504                   22393647.1024
 11  7 24  1 59 30.0000000  0  8G17G02G12G09G10G04G27G05
  11158239.44547   8747140.57044  23126535.7194                   23126533.5824
  46669058.14148  36418366.57046  20725941.5554                   20725936.2464
  70345775.48047  54861333.47745  21761183.0314                   21761179.9144
  62560132.46547  48798869.99244  23562620.1564                   23562619.9104
  58630769.26647  45728853.85545  21082478.7664                   21082475.9734
  31421381.00447                  24538945.22745  21422979.9304
  21422977.2894   48537175.53546  37871389.75443  23844912.2274   23844912.5004
  82129358.64847  64044263.98045  22657266.2814                   22657263.6684
 11  7 24  2  0  0.0000000  0  8G17G02G12G09G10G04G27G05
  11119238.09846   8716749.91844  23119113.2504                   23119111.0824
  46568549.84448  36340048.44946  20706815.5474                   20706810.1524
  70187964.93447  54738364.25845  21731152.4614                   21731149.3794
  62545071.14546  48787133.84044  23559755.0704                   23559753.7384
  58518541.44947  45641403.63745  21061122.1724                   21061119.6334
  31401101.29347                  24523142.85545  21419121.0474
  21419118.6054   48508336.50846  37848917.71543  23839425.1804   23839425.6644
  81939508.70747  63896329.03544  22621138.6414                   22621136.1094
 11  7 24  2  0 30.0000000  0  8G17G02G12G09G10G04G27G05
  11080419.37547   8686501.53944  23111727.3444                   23111724.0394
  46468400.91848  36262010.35546  20687757.6174                   20687752.0594
  70030584.30947  54615730.04345  21701203.7664                   21701200.7734
  62530277.95347  48775606.64144  23556939.7114                   23556938.5784
  58406963.41847  45554459.75045  21039889.4454                   21039886.7304
  31381063.01647                  24507528.61745  21415308.3364
  21415305.7704   48479657.02046  37826569.99643  23833967.2034   23833967.0904
  81749920.47347  63748598.01645  22585061.0234                   22585058.1844
 11  7 24  2  1  0.0000000  0  8G17G02G12G09G10G04G27G05
  11041787.24647   8656398.57844  23104375.7274                   23104373.3204
  46368613.64548  36184254.06346  20668768.6414                   20668763.3134
  69873639.38347  54493435.32445  21671338.4454                   21671334.8524
  62515752.75846  48764288.26243  23554175.8364                   23554175.4804
  58296039.84847  45468025.82045  21018781.5704                   21018778.5474
  31361267.44147                  24492103.49245  21411541.3914
  21411538.9104   48451137.84546  37804347.21443  23828539.2814   23828540.0164
  81560600.84447  63601076.29345  22549035.0084                   22549031.9694
 11  7 24  2  1 30.0000000  0  8G17G02G12G09G10G04G27G05
  11003340.97347   8626440.47344  23097060.0554                   23097056.7194
  46269186.24248  36106778.19546  20649848.4924                   20649842.5744
  69717131.63347  54371481.27745  21641556.0314                   21641552.6644
  62501491.27046  48753175.39843  23551461.6484                   23551461.3594
  58185770.68447  45382101.82445  20997798.2114                   20997795.1254
  31341711.49647                  24476865.10245  21407819.3594
  21407817.0474   48422775.09046  37782246.25843  23823142.6724   23823143.9774
  81371551.68047  63453765.33645  22513059.6564                   22513057.5084
 11  7 24  2  2  0.0000000  0  8G17G02G12G09G10G04G27G05
  10965082.32847   8596628.55144  23089779.2894                   23089776.3834
  46170118.83648  36029582.83246  20630996.5944                   20630990.4264
  69561064.40647  54249870.51245  21611857.5314                   21611853.9344
  62487491.27746  48742266.23843  23548796.5864                   23548796.8134
  58076158.07847  45296689.42645  20976939.9384                   20976936.9884
  31322394.04347                  24461812.53945  21404143.9064
  21404141.0084   48394567.07846  37760265.89843  23817775.4534   23817775.8364
  81182776.64547  63306667.96545  22477137.2814                   22477134.9654
 11  7 24  2  2 30.0000000  0  8G17G02G12G09G10G04G27G05
  10927010.81647   8566962.46944  23082534.2274                   23082531.7034
  46071409.53948  35952666.52746  20612212.7424                   20612207.4804
  69405439.50047  54128604.40645  21582242.2894                   21582239.7344
  62473748.11346  48731557.27343  23546182.0394                   23546181.6484
  57967202.04747  45211788.64545  20956206.2114                   20956202.8984
  31303312.01247                  24446943.41445  21400512.6564
  21400509.6804   48366510.20746  37738403.34443  23812436.0004   23812436.3404
  80994277.85547  63159785.87945  22441266.8444                   22441264.6804
 11  7 24  2  3  0.0000000  0  8G17G02G12G09G10G04G27G05
  10889128.42646   8537443.74644  23075325.2114                   23075321.8444
  45973058.97748  35876029.74646  20593497.1094                   20593491.5984
  69250260.53547  54007685.78945  21552713.3134                   21552709.9104
  62460259.92647  48721046.93044  23543616.0784                   23543615.1684
  57858905.18447  45127401.50445  20935597.6564                   20935594.8014
  31284464.60947                  24432257.12145  21396925.7114
  21396923.6214   48338603.29746  37716657.60543  23807125.6484   23807126.2504
  80806059.78147  63013122.50045  22405449.7734                   22405448.0234
 11  7 24  2  3 30.0000000  0  8G17G02G12G09G10G04G27G05
  10851434.04747   8508071.50044  23068152.9844                   23068149.2504
  45875064.40648  35799670.35946  20574849.2814                   20574844.1054
  69095528.16047  53887115.16445  21523268.5704                   21523265.3954
  62447021.52046  48710731.25043  23541095.5554                   23541095.5594
  57751266.68847  45043527.37545  20915114.7664                   20915111.9614
  31265848.05547                  24417750.69545  21393383.4844
  21393380.8364   48310841.56346  37695025.06643  23801842.6254   23801842.7384
  80618123.94947  62866679.06345  22369686.9224                   22369684.8484
 11  7 24  2  4  0.0000000  0  9G17G02G12G09G10G04G27G25G05
  10813924.73847   8478843.48044  23061015.3754                   23061011.8094
  45777421.30148  35723584.84046  20556268.4614                   20556262.8364
  68941241.48847  53766891.84445  21493908.5234                   21493905.6564
  62434026.19546  48700604.99243  23538622.6564                   23538622.9924
  57644284.01647  44960164.27745  20894756.3284                   20894753.9104
  31247456.78547                  24403419.83645  21389883.7424
  21389881.4104   48283218.86346  37673500.78543  23796586.7894   23796587.3324
 100578480.77056  78417998.48053  24325388.0394                   24325388.2504
  80430469.34847  62720454.78545  22333977.1564                   22333975.4884
 11  7 24  2  4 30.0000000  0  9G17G02G12G09G10G04G27G25G05
  10776604.38347   8449762.75044  23053913.2034                   23053909.7504
  45680132.28948  35647775.23846  20537754.7194                   20537749.5004
  68787406.53147  53647020.51245  21464634.8204                   21464631.7504
  62421274.23446  48690668.31343  23536197.0704                   23536196.0394
  57537962.14148  44877316.09045  20874524.4614                   20874521.6374
  31229292.43047                  24389265.77745  21386427.3524
  21386424.7704   48255736.09446  37652085.59043  23791356.3834   23791357.0124
 100385609.55146  78267709.19943  24288686.1174                   24288686.3324
  80243102.93047  62574455.02045  22298323.0164                   22298320.3554
 11  7 24  2  5  0.0000000  0  9G17G02G12G09G10G04G27G25G05
  10739464.27047   8420822.44144  23046844.8594                   23046842.6414
  45583186.94148  35572233.41846  20519306.7584                   20519301.2854
  68634016.10547  53527495.56345  21435445.3834                   21435442.5594
  62408752.30546  48680910.94543  23533813.9144                   23533813.3134
  57432291.93047  44794975.67645  20854416.0084                   20854413.1884
  31211343.18047                  24375279.36345  21383011.3134
  21383009.2814   48228380.94146  37630769.83643  23786151.1804   23786151.6524
 100192917.30546  78117559.45743  24252017.1414                   24252018.0354
  80056018.03947  62428674.65645  22262721.3134                   22262719.8914
 11  7 24  2  5 30.0000000  0  9G17G02G12G09G10G04G27G25G05
  10702501.34447   8392020.18444  23039811.4774                   23039808.4344
  45486581.20348  35496956.24646  20500923.4774                   20500917.6994
  68481069.46147  53408316.41445  21406340.4844                   21406337.6804
  62396454.29746  48671328.01643  23531473.8834                   23531473.0234
  57327271.19147  44713141.36745  20834430.8134                   20834427.9804
  31193603.96147                  24361456.58645  21379636.0864
  21379634.2344   48201147.71946  37609549.07843  23780969.5164   23780969.5314
 100000403.43046  77967548.68843  24215383.1254                   24215383.6414
  79869214.71147  62283113.69545  22227174.1484                   22227171.6954
 11  7 24  2  6  0.0000000  0  9G17G02G12G09G10G04G27G25G05
  10665716.27346   8363356.51644  23032811.4304                   23032808.9804
  45390314.26247  35421943.05946  20482604.1484                   20482598.7854
  68328568.97347  53289484.91446  21377320.7424                   21377317.4454
  62384376.51246  48661916.71143  23529176.0634                   23529174.4804
  57222900.83247  44631813.83645  20814569.9534                   20814566.6644
  31176072.66847                  24347795.84445  21376299.5314
  21376297.5004   48174033.44546  37588421.03143  23775809.9144   23775809.6994
  99808070.52746  77817678.91043  24178783.5394                   24178783.9224
  79682695.90247  62137774.42245  22191680.5944                   22191678.3244
 11  7 24  2  6 30.0000000  0  9G17G02G12G09G10G04G27G25G05
  10629111.37546   8334833.22344  23025845.4454                   23025843.1454
  45294386.42647  35347194.11746  20464349.6024                   20464344.2974
  68176518.71147  53171004.23446  21348386.9774                   21348382.9844
  62372517.23046  48652675.66843  23526918.8284                   23526918.2814
  57119183.31648  44550995.01645  20794832.8674                   20794830.0004
  31158748.57047                  24334296.55145  21373003.0004
  21373000.8444   48147036.91046  37567384.76243  23770672.0944   23770672.4414
  99615922.78546  77667953.40243  24142219.0164                   24142219.5944
  79496465.96947  61992660.23445  22156242.3134                   22156240.1844
 11  7 24  2  7  0.0000000  0  9G17G02G12G09G10G04G27G25G05
  10592693.23846   8306455.50044  23018915.7504                   23018912.3874
  45198802.99648  35272713.52346  20446160.6174                   20446155.6724
  68024926.76647  53052880.68045  21319539.5314                   21319535.9104
  62360879.00446  48643606.85543  23524704.3204                   23524703.2934
  57016125.69148  44470690.40245  20775221.9614                   20775219.0904
  31141635.99247                  24320962.07045  21369746.3054
  21369744.4384   48120161.74646  37546443.00443  23765558.2894   23765558.3204
  99423968.94946  77518379.05143  24105691.5394                   24105692.0314
  79310533.93047  61847778.19945  22120860.6254                   22120858.1564
 11  7 24  2  7 30.0000000  0  9G17G02G12G09G10G04G27G25G05
  10556462.27746   8278223.60244  23012021.4384                   23012018.1564
  45103562.91048  35198500.48846  20428037.5164                   20428031.8914
  67873795.64547  52935116.19545  21290780.2974                   21290777.3364
  62349458.71946  48634707.90643  23522530.5784                   23522530.5864
  56913728.75447  44390900.61745  20755736.5164                   20755733.3404
  31124732.76647                  24307790.73445  21366529.8914
  21366527.8984   48093404.91446  37525593.55943  23760466.1094   23760466.8524
  99232211.55146  77368957.74243  24069201.5164                   24069201.3284
  79124902.51247  61703130.37945  22085536.5164                   22085533.3954
 11  7 24  2  8  0.0000000  0  9G17G02G12G09G10G04G27G25G05
  12095836.84446   9477736.26644  23304953.6564                   23304952.0274
  46584085.41448  36352154.40246  20709771.5944                   20709766.1684
  69298549.84047  54045314.31645  21561901.7114                   21561898.5594
  63913670.03946  49853573.84043  23820190.2034                   23820190.6054
  58387413.10948  45539226.11745  21036169.1724                   21036166.3484
  32683454.22747                  25522378.90245  21663144.6254
  21663142.6024   49642181.61346  38732432.48442  24055188.5234   24055189.1294
 100616076.39546  78447294.06343  24332541.1024                   24332542.5044
  80514998.13347  62786321.82845  22350062.5084                   22350060.5124
 11  7 24  2  8 30.0000000  0  9G17G02G12G09G10G04G27G25G05
  12059975.73846   9449792.58244  23298129.5004                   23298127.7034
  46489523.71148  36278469.96546  20691776.9694                   20691771.9694
  69148341.93047  53928269.22745  21533318.0944                   21533314.9344
  63902669.03946  49845001.58243  23818096.7814                   23818096.6954
  58286333.52348  45460462.83245  21016934.2664                   21016931.2704
  32666957.69947                  25509524.46145  21660005.7894
  21660003.1914   49615647.82846  38711756.73843  24050139.3834   24050139.2854
 100424714.01646  78298180.59843  24296125.8754                   24296127.3754
  80329971.89547  62642145.58245  22314852.9224                   22314850.3874
 11  7 24  2  9  0.0000000  0  9G17G02G12G09G10G04G27G25G05
  12024294.68046   9421989.18444  23291339.7584                   23291337.8984
  46395293.67648  36205043.97746  20673845.5474                   20673840.1414
  68998593.45747  53811582.14545  21504821.7034                   21504819.1094
  63891866.91846  49836584.29743  23816041.7114                   23816040.6374
  58185907.84047  45382209.08245  20997823.6724                   20997821.0274
  32650655.91447                  25496821.78145  21656903.8284
  21656901.2464   49589215.66045  38691160.20743  24045109.8674   24045110.5554
 100233547.32446  78149219.65643  24259748.9614                   24259749.8834
  80145246.90247  62498204.07445  22279701.0784                   22279698.8954
 11  7 24  2  9 30.0000000  0  9G17G02G12G09G10G04G27G25G05
  11988802.43046   9394332.93044  23284585.7274                   23284583.8594
  46301402.90247  36131882.35546  20655978.4304                   20655973.6214
  68849315.02747  53695261.30545  21476415.3284                   21476412.0004
  63881268.86346  49828326.02743  23814025.1174                   23814024.1644
  58086145.16848  45304471.96545  20978839.9224                   20978836.3954
  32634555.03147                  25484275.66045  21653839.8674
  21653837.1644   49562890.81646  38670647.31642  24040100.4454   24040101.4494
 100042587.37546  78000419.82043  24223409.7584                   24223411.0704
  79960834.35247  62354506.03145  22244608.5394                   22244606.0864
 11  7 24  2 10  0.0000000  0  9G17G02G12G09G10G04G27G25G05
  11953496.96546   9366822.21944  23277866.9614                   23277864.9344
  46207847.31348  36058981.90246  20638175.7814                   20638170.7234
  68700506.10248  53579306.33246  21448097.5634                   21448094.6484
  63870868.73046  49820221.96543  23812046.1174                   23812045.1684
  57987043.16847  45227249.64545  20959981.1644                   20959978.3594
  32618650.16847                  25471882.27045  21650813.3284
  21650810.6564   49536667.34446  38650213.34843  24035110.3984   24035111.3484
  99851833.78946  77851780.77343  24187111.4144                   24187111.7464
  79776734.37947  62211051.55545  22209575.3524                   22209572.7034
 11  7 24  2 10 30.0000000  0  9G17G02G12G09G10G04G27G25G05
  11918382.32846   9339460.16844  23271185.5234                   23271183.0124
  46114630.11748  35986345.14546  20620436.8134                   20620431.7194
  68552172.69147  53463721.87545  21419870.5634                   21419867.8874
  63860666.79746  49812272.35943  23810104.7974                   23810103.9774
  57888606.62947  45150545.87145  20941249.4454                   20941246.1094
  32602943.25047                  25459643.13345  21647824.1564
  21647821.2734   49510546.57446  38629859.46943  24030139.6334   24030139.9694
  99661293.10246  77703307.63743  24150852.0944                   24150852.9494
  79592953.60547  62067845.80545  22174602.9454                   22174600.7274
 11  7 24  2 11  0.0000000  0  9G17G02G12G09G10G04G27G25G05
  11883455.84046   9312244.73444  23264539.3364                   23264536.7464
  46021747.03947  35913968.73046  20602761.7584                   20602756.6954
  68404313.91048  53348507.26646  21391734.4304                   21391731.2544
  63850656.30946  49804471.94943  23808199.5474                   23808198.8874
  57790832.66047  45074358.38745  20922643.2194                   20922640.6884
  32587429.09447                  25447554.19945  21644872.0864
  21644869.3714   49484522.98046  38609581.28942  24025187.3364   24025187.7074
  99470964.84446  77555000.03143  24114633.8914                   24114634.6134
  79409492.02747  61924888.78545  22139690.9774                   22139688.9964
 11  7 24  2 11 30.0000000  0  9G17G02G12G09G10G04G27G25G05
  11848716.76246   9285175.34044  23257928.9614                   23257926.1174
  45929195.89847  35841850.96546  20585150.2734                   20585144.6094
  68256931.30147  53233663.70746  21363688.5314                   21363684.9224
  63840833.14546  49796817.43043  23806330.8204                   23806329.9774
  57693720.77047  44998686.80945  20904163.5634                   20904160.7734
  32572104.80147                  25435613.22345  21641955.7504
  21641953.4454   49458592.59846  38589375.70343  24020253.9224   24020253.8524
  99280850.66846  77406859.26643  24078455.7504                   24078456.1564
  79226351.57047  61782181.99645  22104841.3914                   22104838.6414
 11  7 24  2 12  0.0000000  0  9G17G02G12G09G10G04G27G25G05
  11814163.46946   9258250.70744  23251353.6174                   23251350.4654
  45836973.16448  35769989.11346  20567599.9924                   20567595.0204
  68110024.41048  53119190.82446  21335733.0704                   21335729.7934
  63831191.09046  49789304.12943  23804495.1094                   23804495.1994
  57597268.94947  44923529.57845  20885809.4614                   20885806.8984
  32556965.62547                  25423816.45345  21639075.0004
  21639072.0744   49432750.01646  38569238.58643  24015335.8914   24015336.6564
  99090950.59847  77258885.26643  24042319.5944                   24042319.9414
  79043532.47347  61639725.60245  22070051.5164                   22070048.7894
 11  7 24  2 12 30.0000000  0  9G17G02G12G09G10G04G27G25G05
  11779802.94546   9231476.27344  23244815.0634                   23244812.1414
  45745084.64547  35698387.66846  20550114.4534                   20550109.1024
  67963602.21948  53005095.63345  21307869.4144                   21307866.1914
  63821733.62546  49781934.62943  23802696.1024                   23802695.4844
  57501484.55947  44848892.41445  20867582.1724                   20867579.3284
  32542016.47747                  25412167.77045  21636230.7664
  21636227.7424   49406999.29346  38549173.01643  24010435.6884   24010436.3404
  98901273.93046  77111085.38743  24006224.3204                   24006225.8984
  78861044.23047  61497527.03145  22035324.6174                   22035322.5314
 11  7 24  2 13  0.0000000  0  9G17G02G12G09G10G04G27G25G05
  11745631.55547   9204849.25844  23238312.0634                   23238309.5044
  45653524.86347  35627042.39846  20532691.6884                   20532685.8674
  67817662.82848  52891376.66045  21280098.5784                   21280094.9224
  63812453.41446  49774703.19143  23800930.3674                   23800929.2074
  57406363.35547  44774772.02345  20849481.4144                   20849478.6254
  32527250.93047                  25400662.18445  21633420.4304
  21633417.7544   49381333.59846  38529173.70343  24005551.2344   24005552.3874
  98711819.18446  76963458.46943  23970172.7584                   23970173.7544
  78678885.94147  61355585.56345  22000662.1174                   22000658.8754
 11  7 24  2 13 30.0000000  0  9G17G02G12G09G10G04G27G25G05
  11711650.89147   9178370.86344  23231845.8204                   23231843.1564
  45562294.30547  35555953.66046  20515331.0864                   20515325.7194
  67672209.75448  52778036.62946  21252419.3284                   21252416.2814
  63803348.10246  49767608.07843  23799197.2584                   23799196.9414
  57311907.59447  44701170.15645  20831506.7974                   20831504.3204
  32512668.66447                  25389299.39145  21630644.7424
  21630642.7384   49355751.41446  38509239.48843  24000684.0474   24000684.5354
  98522590.23846  76816007.43043  23934163.7194                   23934164.3914
  78497061.74247  61213904.42645  21966061.0784                   21966058.6954
 11  7 24  2 14  0.0000000  0  9G17G02G12G09G10G04G27G25G05
  11677860.55947   9152040.77044  23225416.2344                   23225413.0594
  45471390.94548  35485119.88346  20498032.7894                   20498027.4344
  67527244.40248  52665076.64145  21224833.5634                   21224830.2664
  63794413.46546  49760645.98043  23797497.8984                   23797496.0744
  57218116.73047  44628086.39145  20813659.3754                   20813656.5274
  32498266.71147                  25378077.09045  21627905.4924
  21627902.6644   49330249.14146  38489367.53943  23995830.3204   23995831.1134
  98333588.98847  76668733.78143  23898198.0474                   23898198.5904
  78315573.43447  61072485.02045  21931524.8754                   21931522.8054
 11  7 24  2 14 30.0000000  0  9G17G02G12G09G10G04G27G25G05
  11644258.96947   9125857.75044  23219021.9774                   23219019.1214
  45380811.73447  35414538.69146  20480795.7034                   20480789.9454
  67382766.52747  52552496.52046  21197340.2814                   21197336.8444
  63785644.10246  49753812.64143  23795828.8204                   23795828.4454
  57124988.75447  44555519.16845  20795937.8754                   20795934.8794
  32484040.92247                  25366992.09445  21625197.6484
  21625195.1994   49304822.02046  38469554.12943  23990991.7814   23990992.5864
  98144815.88747  76521637.91843  23862275.4694                   23862276.4304
  78134421.80547  60931327.93845  21897053.4534                   21897050.5124
 11  7 24  2 15  0.0000000  0  9G17G02G12G09G10G04G27G25G05
  11610852.64146   9099826.87144  23212664.3204                   23212662.0784
  45290561.61348  35344213.93446  20463622.2894                   20463616.8524
  67238784.48047  52440302.74246  21169941.2814                   21169937.7814
  63777042.83646  49747110.31643  23794191.9144                   23794191.6844
  57032529.96147  44483473.37545  20778342.6804                   20778340.0434
  32469995.55947                  25356047.65245  21622524.6484
  21622522.6564   49279473.14146  38449801.73443  23986168.2344   23986169.2194
  97956279.69147  76374726.62543  23826397.9064                   23826398.5044
  77953615.82047  60790440.19945  21862647.0474                   21862644.6954
 11  7 24  2 15 30.0000000  0  9G17G02G12G09G10G04G27G25G05
  11577639.88746   9073946.78544  23206344.7114                   23206341.9344
  45200637.37548  35274143.10246  20446509.7344                   20446504.0784
  67095298.56648  52328495.56346  21142637.1094                   21142633.6994
  63768604.21947  49740534.72343  23792586.1254                   23792586.1484
  56940738.77047  44411947.80545  20760875.9454                   20760872.8594
  32456126.55147                  25345240.63745  21619885.8594
  21619883.2894   49254197.94546  38430106.71943  23981358.8984   23981358.8204
  97767981.02047  76228000.39143  23790566.3054                   23790566.1524
  77773156.05947  60649822.27345  21828306.9144                   21828304.6484
 11  7 24  2 16  0.0000000  0  9G17G02G12G09G10G04G27G25G05
  11544617.74646   9048215.27743  23200060.5394                   23200057.0784
  45111034.71148  35204322.85246  20429459.1254                   20429453.5434
  66952307.23448  52217073.77746  21115426.5004                   21115422.9064
  63760321.30947  49734080.45743  23791009.7814                   23791009.1564
  56849612.17247  44340940.08645  20743534.6564                   20743531.7274
  32442428.47747                  25334566.82445  21617279.1174
  21617276.6054   49228990.10546  38410464.21143  23976562.5554   23976561.7974
  97579918.93047  76081458.47343  23754778.9694                   23754779.0234
  77593042.28547  60509473.92645  21794031.8524                   21794029.5594
 11  7 24  2 16 30.0000000  0  9G17G02G12G09G10G04G27G25G05
  11511789.94946   9022635.18843  23193813.5314                   23193810.9494
  45021755.66047  35134754.78546  20412470.2034                   20412464.1764
  66809816.12548  52106041.77346  21088311.5234                   21088308.0864
  63752193.94547  49727747.41443  23789463.1644                   23789463.0514
  56759153.24647  44270452.63745  20726321.7734                   20726318.6994
  32428902.41047                  25324027.03145  21614705.0944
  21614701.9534   49203850.14846  38390874.58643  23971778.2504   23971777.5004
  97392099.41847  75935105.59443  23719038.6884                   23719038.3244
  77413280.62547  60369399.92645  21759824.7664                   21759822.0784
 11  7 24  2 17  0.0000000  0  9G17G02G12G09G10G04G27G25G05
  13054571.17246  10224802.35944  23487395.2344                   23487391.9384
  46508215.39848  36293035.11746  20695333.9224                   20695328.3634
  68243245.55948  53222999.80946  21361083.8914                   21361080.5164
  65319632.50446  50949128.08243  24087737.2034                   24087736.8954
  58244778.52048  45428082.74645  21009026.1254                   21009023.0784
  33990960.68447                  26541215.31345  21911955.0004
  21911952.4924   50754189.64845  39598931.32843  24266796.3834   24266798.0004
  98779944.85247  77016543.60243  23983136.9454                   23983136.8324
  78809293.39547  61457202.15645  22025477.0164                   22025474.0314
 11  7 24  2 17 30.0000000  0  9G17G02G12G09G10G04G27G25G05
  13022124.07446  10199518.91444  23481219.9614                   23481217.0234
  46419571.32448  36223961.82046  20678465.3594                   20678459.9184
  68101752.18448  53112745.26246  21334158.4844                   21334155.4654
  65311797.31646  50943022.70343  24086245.3284                   24086245.8094
  58155646.58647  45358629.31645  20992064.6484                   20992061.8204
  33977764.60247                  26530932.66045  21909443.8984
  21909441.2974   50729168.53145  39579434.28942  24262036.6094   24262037.6374
  98592609.63746  76870568.12544  23947487.4304                   23947488.1954
  78630235.12147  61317676.26645  21991403.2504                   21991400.4384
 11  7 24  2 18  0.0000000  0  9G17G02G12G09G10G04G27G25G05
  12989868.72746  10174384.89844  23475082.4844                   23475079.6994
  46331243.31647  36155134.81646  20661657.2584                   20661651.4924
  67960761.28948  53002882.25846  21307329.2584                   21307325.6644
  65304103.39847  50937027.38343  24084782.0164                   24084780.7384
  58067179.10547  45289693.64145  20975230.2664                   20975227.2934
  33964731.00047                  26520776.61745  21906963.3364
  21906961.1524   50704203.13745  39559980.64842  24257285.1094   24257287.6844
  98405521.03146  76724784.81643  23911886.0554                   23911887.2814
  78451533.42247  61178428.23045  21957397.8754                   21957394.9734
 11  7 24  2 18 30.0000000  0  9G17G02G12G09G10G04G27G25G05
  12957805.02747  10149400.20344  23468980.9454                   23468978.7464
  46243230.57848  36086553.47346  20644909.2424                   20644903.2974
  67820274.69148  52893412.19946  21280595.1644                   21280591.7974
  65296547.39546  50931139.54343  24083343.9614                   24083343.4224
  57979375.57847  45221275.32845  20958521.7114                   20958518.8594
  33951857.71547                  26510745.49245  21904513.6414
  21904511.1054   50679290.34045  39540568.06642  24252544.9384   24252546.7894
  98218681.35947  76579195.49243  23876331.7344                   23876331.8524
  78273190.65647  61039459.90245  21923459.8834                   21923457.2154
 11  7 24  2 19  0.0000000  0  9G17G02G12G09G10G04G27G25G05
  12925936.01246  10124567.17244  23462916.2894                   23462914.7424
  46155534.54748  36018218.91046  20628221.1024                   20628214.9574
  67680297.16448  52784338.82446  21253958.1644                   21253955.0394
  65289128.53947  50925358.59843  24081932.9304                   24081931.6214
  57892239.09047  45153376.77745  20941940.2894                   20941937.1884
  33939145.63747                  26500839.98045  21902095.3594
  21902092.3444   50654430.40645  39521196.55542  24247814.1174   24247816.3634
  98032096.03547  76433804.39143  23840825.6414                   23840825.7894
  78095212.46147  60900775.64145  21889591.9384                   21889589.3134
 11  7 24  2 19 30.0000000  0  9G17G02G12G09G10G04G27G25G05
  12894259.89146  10099884.46544  23456889.0394                   23456886.0944
  46068151.82047  35950128.49646  20611592.5864                   20611587.0784
  67540828.38748  52675661.89146  21227418.5234                   21227414.5554
  65281841.30546  50919680.20743  24080546.2664                   24080545.2034
  57805767.25847  45085996.15245  20925484.8914                   20925481.7664
  33926590.57447                  26491056.81645  21899705.5474
  21899703.5164   50629618.402 5                                  24243093.086
  97845765.52747  76288611.82043  23805368.0634                   23805368.0124
  77917599.51247  60762376.00045  21855793.1334                   21855790.1054
 11  7 24  2 20  0.0000000  0  9G17G02G12G09G10G04G27G25G05
  12862775.18846  10075350.92244  23450897.8134                   23450895.0234
  45981079.32448  35882279.81646  20595022.8444                   20595017.2704
  67401868.54348  52567381.52746  21200974.7974                   21200971.5594
  65274680.64546  50914100.39543  24079182.8364                   24079182.3244
  57719958.05548  45019131.85545  20909156.0234                   20909153.4884
  33914188.67247                  26481392.99245  21897345.4384
  21897343.2464   50604849.39845  39509474.86752  24238379.0704   24238379.7344
  97659690.46146  76143618.31344  23769958.6094                   23769959.7624
  77740352.55547  60624261.53545  21822064.1414                   21822061.0634
 11  7 24  2 20 30.0000000  0  9G17G02G12G09G10G04G27G25G05
  12831488.26246  10050971.47344  23444943.9534                   23444941.1134
  45894321.85248  35814676.59846  20578513.3984                   20578508.0164
  67263425.76648  52459504.06646  21174629.8914                   21174626.4734
  65267648.94546  50908621.04743  24077844.8914                   24077845.1844
  57634817.50847  44952788.57045  20892954.8754                   20892951.9104
  33901944.12947                  26471851.78944  21895015.4694
  21895012.9924   50580126.94146  39490210.52742  24233675.3284   24233676.0554
  97473879.62547  75998830.66444  23734600.5474                   23734600.4064
  77563480.21947  60486438.98445  21788406.6094                   21788404.0634
 11  7 24  2 21  0.0000000  0  9G17G02G12G09G10G04G27G25G05
  12800396.87546  10026744.36744  23439027.0314                   23439024.9414
  45807875.76248  35747316.03546  20562063.4844                   20562057.6644
  67125499.37548  52352028.98846  21148383.3594                   21148380.4264
  65260740.38746  50903237.69143  24076530.3834                   24076530.1484
  57550342.81647  44886964.16445  20876879.6414                   20876876.4384
  33889852.44547                  26462429.70745  21892714.6254
  21892711.8794   50555445.62145  39470978.21942  24228978.1414   24228979.8204
  97288333.01647  75854248.94544  23699290.8754                   23699291.9264
  77386982.71947  60348908.52745  21754819.5394                   21754817.4454
 11  7 24  2 21 30.0000000  0  8G17G02G12G09G10G04G25G05
  12769501.45746  10002669.99643  23433148.0864                   23433144.6684
  45721739.65648  35680196.99646  20545672.2974                   20545666.3954
  66988091.18048  52244957.69946  21122235.8914                   21122232.2584
  65253951.44146  50897947.53943  24075237.8754                   24075238.2424
  57466534.09847  44821658.68445  20860931.3054                   20860928.5394
  33877911.62147                  26453125.18444  21890442.1564   21890439.8834
  97103053.22346  75709875.14844  23664034.3594                   23664034.3094
  77210862.78547  60211672.25845  21721305.5554                   21721302.5904
 11  7 24  2 22  0.0000000  0  8G17G02G12G09G10G04G25G05
  12738800.57046   9978747.21143  23427306.5394                   23427302.0704
  45635911.17648  35613317.68446  20529339.9304                   20529334.3524
  66851201.83248  52138290.70746  21096186.5474                   21096182.7704
  65247277.12546  50892746.71143  24073967.3754                   24073968.7424
  57383389.35247  44756870.57845  20845109.3134                   20845106.2624
  33866118.23847                  26443935.53545  21888198.2974   21888195.6294
  96918041.23047  75565710.05943  23628828.4534                   23628828.5434
  77035121.68047  60074731.18845  21687862.7814                   21687860.0044
 11  7 24  2 22 30.0000000  0  8G17G02G12G09G10G04G25G05
  12708298.48846   9954979.35943  23421501.2814                   23421498.9534
  45550392.86748  35546680.06346  20513065.8984                   20513060.5164
  66714836.71548  52032032.19946  21070237.3834                   21070233.3754
  65240718.14546  50887635.75843  24072719.5634                   24072720.7854
  57300912.53147  44692602.94145  20829414.5084                   20829411.6484
  33854474.42247                  26434862.41844  21885982.2194   21885979.2274
  96733303.64847  75421758.82443  23593673.1174                   23593673.8324
  76859765.89847  59938090.36345  21654493.9534                   21654491.3954
 11  7 24  2 23  0.0000000  0  8G17G02G12G09G10G04G25G05
  12677999.52046   9931369.74643  23415736.3364                   23415733.4694
  45465187.51648  35480286.31346  20496852.0314                   20496846.2034
  66579001.66048  51926186.73846  21044388.3754                   21044384.7894
  65234274.96946  50882615.03142  24071494.6024                   24071494.2304
  57219107.05947  44628858.42645  20813847.2114                   20813844.6334
  33842982.02047                  26425907.28145  21883795.2504   21883792.5864
  96548846.97747  75278026.44143  23558572.7504                   23558572.7304
  76684801.72347  59801754.69545  21621199.1254                   21621196.3134
 11  7 24  2 23 30.0000000  0  8G17G02G12G09G10G04G25G05
  12647904.73446   9907919.22344  23410008.8444                   23410006.6564
  45380294.87548  35414136.21946  20480697.2894                   20480691.6604
  66443699.66047  51820756.63346  21018641.6024                   21018637.9614
  65227945.23046  50877682.66043  24070289.7034                   24070289.9414
  57137973.67247  44565637.62545  20798408.0784                   20798405.3524
  33831640.17247                  26417069.46945  21881637.3754   21881634.9144
  96364674.73047  75134515.73443  23523525.6414                   23523525.6294
  76510233.25447  59665727.35545  21587979.1644                   21587976.7624
 11  7 24  2 24  0.0000000  0  8G17G02G12G09G10G04G25G05
  12618012.85546   9884626.84443  23404321.1884                   23404318.7464
  45295711.99648  35348227.49246  20464601.8524                   20464596.3874
  66308931.10248  51715742.21546  20992995.8674                   20992992.3164
  65221723.65246  50872834.60243  24069106.1564                   24069106.2194
  57057510.37547  44502938.94945  20783096.5554                   20783093.2624
  33820445.39547                  26408346.26245  21879507.1094   21879504.2934
  96180787.90247  74991227.44144  23488532.5864                   23488533.0784
  76336061.30547  59530008.99645  21554836.4144                   21554833.0084
 11  7 24  2 24 30.0000000  0  8G17G02G12G09G10G04G25G05
  12588325.18847   9861493.61743  23398671.6024                   23398667.4384
  45211438.82048  35282560.09446  20448565.2274                   20448559.9104
  66174699.16047  51611145.91846  20967451.9614                   20967448.4924
  65215607.86746  50868069.02043  24067942.1024                   24067943.4694
  56977718.14147  44440763.18845  20767912.6884                   20767909.4184
  33809396.98847                  26399737.12944  21877404.0474   21877402.0634
  95997190.18447  74848164.42643  23453594.9694                   23453595.5704
  76162289.68847  59394602.59045  21521768.4224                   21521765.4804
 11  7 24  2 25  0.0000000  0  8G17G02G12G09G10G04G25G05
  12558841.09847   9838518.99244  23393060.7664                   23393057.8794
  45127473.08648  35217132.26246  20432587.0394                   20432581.3204
  66041003.61347  51506967.59046  20942010.6254                   20942006.8714
  65209593.66046  50863382.51643  24066797.4534                   24066798.7584
  56898595.40648  44379109.12145  20752856.5704                   20752853.2344
  33798491.90247                  26391239.65244  21875329.4534   21875326.8054
  95813883.09447  74705327.88744  23418712.6094                   23418713.3364
  75988919.76647  59259509.18845  21488776.8674                   21488774.0944
 11  7 24  2 25 30.0000000  0  8G17G02G12G09G10G04G25G05
  14104980.00447  11043302.57844  23687281.8594                   23687278.7854
  46619234.73848  36379543.95746  20716459.4924                   20716453.7114
  67483269.19547  52630810.93846  21216464.3674                   21216461.3874
  66779096.15246  52086371.40243  24365464.2734                   24365464.2234
  58395562.61747  45545577.08645  21037719.1804                   21037716.5784
  35363146.76247                  27610451.21945  22173073.3674   22173070.6174
  97206293.46546  75790323.10544  23683678.9774                   23683680.1094
  77391378.13347  60352333.92646  21755656.0864                   21755653.3404
 11  7 24  2 26  0.0000000  0  8G17G02G12G09G10G04G25G05
  14075897.80946  11020641.10943  23681747.7734                   23681743.9104
  46535874.07048  36314587.61746  20700596.4844                   20700591.1454
  67350646.30947  52527468.45346  21191227.2814                   21191223.7424
  66773269.03146  52081830.65243  24364356.0554                   24364356.5984
  58317771.53947  45484960.67645  21022916.1804                   21022913.8134
  35352516.59847                  27602167.96544  22171050.5084   22171048.0394
  97023569.19946  75647940.72344  23648908.3364                   23648908.8554
  77218813.35547  60217867.91045  21722817.5784                   21722815.3754
 11  7 24  2 26 30.0000000  0  8G17G02G12G09G10G04G25G05
  14047018.15246  10998137.48843  23676250.8914                   23676248.8714
  46452815.68048  36249866.81646  20684791.1724                   20684786.0274
  67218564.19547  52424547.34846  21166093.2504                   21166089.1644
  66767531.99646  52077360.19543  24363264.0784                   24363263.3484
  58240646.81347  45424863.50045  21008239.8984                   21008236.9654
  35342022.55547                  27593990.78944  22169053.6484   22169051.2194
  96841141.71146  75505789.56344  23614193.1804                   23614194.0164
  77046656.60947  60083719.83645  21690057.6724                   21690055.1024
 11  7 24  2 27  0.0000000  0  8G17G02G12G09G10G04G25G05
  14018338.33246  10975789.53144  23670793.9774                   23670791.4884
  46370055.19148  36185378.14546  20669041.9384                   20669037.0084
  67087021.65647  52322046.68846  21141061.0864                   21141057.6024
  66761878.48846  52072954.77743  24362188.9304                   24362188.6914
  58164185.04748  45365282.91445  20993689.7894                   20993686.6724
  35331660.03147                  27585916.11344  22167081.1174   22167078.9734
  96659010.60946  75363869.35544  23579534.1414                   23579535.4144
  76874907.62547  59949889.50045  21657374.7424                   21657371.9064
 11  7 24  2 27 30.0000000  0  8G17G02G12G09G10G04G25G05
  13989859.00446  10953597.85243  23665374.0704                   23665372.1524
  46287591.61348  36121120.83646  20653349.9304                   20653344.6214
  66956020.23047  52219967.64846  21116133.0634                   21116128.6644
  66756305.16446  52068611.84043  24361126.7274                   24361128.4574
  58088385.99248  45306218.71945  20979265.8834                   20979262.6374
  35321427.12947                  27577942.42244  22165134.5084   22165132.3554
  96477178.62947  75222182.17244  23544933.2734                   23544933.7154
  76703568.77747  59816378.75845  21624769.8284                   21624767.3324
 11  7 24  2 28  0.0000000  0  8G17G02G12G09G10G04G25G05
  13961579.65646  10931561.95743  23659993.4384                   23659990.3634
  46205423.23448  36057093.54346  20637713.7734                   20637708.8164
  66825561.13348  52118311.23446  21091306.9534                   21091303.4924
  66750808.20746  52064328.46943  24360081.4534                   24360081.7854
  58013248.67248  45247670.17645  20964967.1724                   20964964.5474
  35311321.34847                  27570067.78944  22163210.9384   22163209.0204
  96295647.68447  75080729.57444  23510388.9844                   23510389.1994
  76532642.07447  59683189.14846  21592243.8444                   21592240.7974
 11  7 24  2 28 30.0000000  0  8G17G02G12G09G10G04G25G05
  13933503.87146  10909684.72744  23654650.5634                   23654648.2464
  46123552.32048  35993298.03946  20622134.2814                   20622128.8674
  66695649.67647  52017081.53946  21066585.3914                   21066582.0084
  66745387.82846  52060104.73043  24359050.4064                   24359050.4734
  57938775.64548  45189639.25845  20950795.5864                   20950792.8364
  35301344.57847                  27562293.69144  22161312.6174   22161310.2304
  96114424.03147  74939516.43044  23475903.2894                   23475903.2344
  76362133.89147  59550325.67645  21559796.7664                   21559794.3834
 11  7 24  2 29  0.0000000  0  8G17G02G12G09G10G04G25G05
  13905628.06346  10887963.28544  23649346.1024                   23649343.4144
  46041973.59048  35929730.22346  20606610.4614                   20606605.3874
  66566283.36748  51916276.63746  21041968.1884                   21041964.3674
  66740036.98846  52055935.17242  24358031.5784                   24358032.0234
  57864962.70747  45132122.72345  20936749.1644                   20936746.7384
  35291491.14847                  27554615.69944  22159437.2734   22159435.5944
  95933506.31347  74798541.65244  23441475.3594                   23441475.8404
  76192042.84047  59417787.23845  21527430.0784                   21527427.0664
 11  7 24  2 29 30.0000000  0  8G17G02G12G09G10G04G25G05
  13877956.71546  10866401.18844  23644081.0084                   23644077.3134
  45960690.26248  35866392.58646  20591142.4844                   20591137.4384
  66437468.60948  51815901.52046  21017455.6954                   21017451.7974
  66734756.89846  52051820.73442  24357027.6644                   24357027.8014
  57791813.64147  45075123.45745  20922829.7734                   20922826.8284
  35281763.49647                  27547035.71544  22157586.1024   22157584.4024
  95752901.58647  74657810.74644  23407107.7664                   23407108.0634
  76022375.80147  59285579.20345  21495143.2114                   21495140.2704
 11  7 24  2 30  0.0000000  0  8G17G02G12G09G10G04G25G05
  13850485.93446  10844995.38744  23638852.9614                   23638850.3164
  45879696.53548  35803280.60546  20575730.2344                   20575724.7304
  66309201.88748  51715953.43446  20993046.9384                   20993043.5274
  66729539.32446  52047755.04343  24356034.4454                   24356035.2114
  57719322.85547  45018637.15645  20909035.1254                   20909031.9304
  35272155.52347                  27539548.97744  22155758.6804   22155755.8914
  95572607.80547  74517322.14143  23372798.5784                   23372798.7034
  75853130.44547  59153699.76246  21462937.0314                   21462934.3244
 11  7 24  2 30 30.0000000  0  8G17G02G12G09G10G04G25G05
  13823215.35946  10823745.58644  23633662.9454                   23633660.9104
  45798991.01648  35740393.20746  20560372.1884                   20560367.0664
  66181484.89548  51616433.71146  20968743.4844                   20968739.7894
  66724380.72745  52043735.30142  24355053.3284                   24355053.6054
  57647489.57847  44962663.18445  20895366.1954                   20895362.4344
  35262665.15247                  27532153.89544  22153952.1174   22153949.9574
  95392627.33247  74377077.67644  23338549.1564                   23338549.0594
  75684309.08647  59022150.69546  21430811.4534                   21430807.9344
 11  7 24  2 31  0.0000000  0  8G17G02G12G09G10G04G25G05
  13796145.91846  10802652.50844  23628512.9144                   23628509.9844
  45718573.21147  35677730.00846  20545069.4694                   20545064.2624
  66054320.05147  51517344.23846  20944544.5864                   20944541.0824
  66719278.55145  52039759.43442  24354082.5394                   24354083.4774
  57576313.45747  44907201.30145  20881821.4304                   20881818.2544
  35253291.18047                  27524849.50444  22152169.0314   22152165.8484
  95212963.48447  74237079.93044  23304360.7734                   23304360.0984
  75515915.17648  58890934.71145  21398766.9844                   21398763.5164
 11  7 24  2 31 30.0000000  0  8G17G02G12G09G10G04G25G05
  13769277.41046  10781715.99644  23623399.7194                   23623396.7584
  45638441.23848  35615289.52346  20529820.8444                   20529815.5204
  65927708.39147  51418685.82846  20920451.4844                   20920447.6414
  66714229.14145  52035824.83642  24353120.2344                   24353121.9344
  57505793.54747  44852250.75045  20868401.6414                   20868398.8164
  35244031.63747                  27517634.28944  22150406.6564   22150404.2194
  95033618.43047  74097330.62144  23270232.1334                   23270232.0904
  75347950.66847  58760053.31345  21366804.3134                   21366801.6844
 11  7 24  2 32  0.0000000  0  8G17G02G12G09G10G04G25G05
  13742608.80146  10760935.24243  23618324.0164                   23618321.7034
  45558592.79748  35553069.99246  20514625.9304                   20514620.9494
  65801650.31347  51320458.76646  20896463.0784                   20896459.6334
  66709227.84445  52031927.60242  24352169.1334                   24352170.4414
  57435928.07447  44797810.14545  20855106.7664                   20855103.6054
  35234883.32847                  27510505.72344  22148664.9694   22148663.1254
  94854593.57046  73957830.83644  23236164.3204                   23236164.9884
  75180416.58248  58629507.33246  21334923.3594                   21334920.7974
 11  7 24  2 32 30.0000000  0  8G17G02G12G09G10G04G25G05
  13716137.52746  10740308.27343  23613287.2584                   23613284.5394
  45479023.91448  35491068.27346  20499484.7504                   20499479.4924
  65676144.68047  51222662.19546  20872580.8134                   20872576.6054
  66704268.69545                  24351225.4454
  57366713.56647  44743876.76645  20841936.2814                   20841932.5824
  35225842.03147                  27503460.58244  22146945.0634   22146941.9734
  94675888.68847  73818580.36344  23202159.0864                   23202158.8834
  75013313.09047  58499296.86346  21303124.7344                   21303122.0704
 11  7 24  2 33  0.0000000  0  8G17G02G12G09G10G04G25G05
  13689864.62146  10719835.84443  23608287.8984                   23608284.7504
  45399734.38748  35429284.25046  20484396.3204                   20484390.7274
  65551193.77347  51125297.86746  20848803.2584                   20848799.2234
  66699349.77745  52025256.26642  24350290.9064                   24350289.7974
  57298149.76647  44690450.45745  20828888.5864                   20828885.7584
  35216906.77347                  27496498.04344  22145244.5704   22145242.2234
  94497507.30547  73679581.98844  23168213.7344                   23168213.8204
  74846643.20347  58369424.27346  21271408.0004                   21271405.8754
 11  7 24  2 33 30.0000000  0  8G17G02G12G09G10G04G25G05
  13663791.07846  10699518.84043  23603325.6564                   23603322.8984
  45320723.65648  35367717.46546  20469361.0944                   20469355.6884
  65426799.94147  51028367.64546  20825131.5164                   20825127.8364
  66694468.27346  52021452.45342  24349362.1414                   24349361.9144
  57230236.66847  44637531.18045  20815965.1174                   20815962.4844
  35208076.59047                  27489617.36744  22143563.7974   22143561.9964
  94319452.73847  73540838.27044  23134331.0314                   23134331.1334
  74680410.06347  58239892.00446  21239775.7504                   21239772.9884
 11  7 24  2 34  0.0000000  0  8G17G02G12G09G10G04G25G05
  13637920.37946  10679359.83643  23598402.2504                   23598399.9804
  45241993.41448  35306369.23846  20454379.0234                   20454373.5354
  65302967.86347  50931875.13346  20801566.6334                   20801563.4064
  66689623.59445  52017677.28543  24348439.5084                   24348439.9104
  57162976.27347  44585120.49645  20803165.7424                   20803162.8404
  35199352.84447                  27482819.64544  22141903.7114   22141901.6914
  94141730.52747  73402353.51244  23100511.2034                   23100511.2854
  74514619.23847  58110704.40646  21208225.9534                   21208223.2034
 11  7 24  2 34 30.0000000  0  7G17G02G12G10G04G25G05
  15187672.58646  11886958.91443  23893311.1484                   23893307.8634
  46738964.41448  36472840.18446  20739243.0944                   20739237.4804
  66755121.84047  52063423.70746  21077902.8914                   21077899.3134
  58671789.02347  45760818.76245  21090283.1024                   21090280.7274
  36766153.63747                  28703703.40644  22440056.4384   22440053.4304
  95539768.55547  74491733.85544  23366549.1484                   23366548.9614
  75924697.97347  59209467.09446  21476555.4924                   21476552.6294
 11  7 24  2 35  0.0000000  0  7G17G02G12G10G04G25G05
  15162206.11346  11867114.91043  23888465.8984                   23888462.3954
  46660790.23848  36411925.25446  20724366.8364                   20724361.6174
  66632415.66047  51967808.53546  21054552.6884                   21054548.8594
  58605830.02747  45709422.16845  21077731.5554                   21077728.6454
  36757636.46947                  28697066.62544  22438435.7194   22438433.2664
  95362717.71947  74353772.24244  23332857.5554                   23332857.8164
  75759797.95747  59080973.60946  21445176.1174                   21445173.2384
 11  7 24  2 35 30.0000000  0  7G17G02G12G10G04G25G05
  15136941.21946  11847427.97743  23883657.2974                   23883654.5704
  46582891.31348  36351224.80946  20709543.3054                   20709538.2154
  66510273.59847  51872632.93046  21031309.4614                   21031306.3634
  58540519.35547  45658530.75445  21065303.3834                   21065300.2274
  36749219.26247                  28690507.75444  22436834.7034   22436831.1994
  95186005.41447  74216074.39544  23299230.1804                   23299230.8204
  75595345.71547  58952829.07046  21413881.8834                   21413878.5984
 11  7 24  2 36  0.0000000  0  7G17G02G12G10G04G25G05
  15111886.51246  11827904.79743  23878889.2344                   23878887.0124
  46505275.26248  36290744.77746  20694773.5164                   20694768.1884
  66388706.05147  51777905.00446  21008176.2814                   21008172.9344
  58475864.64847  45608150.49645  21052999.5864                   21052996.5594
  36740909.06347                  28684032.28144  22435252.8594   22435250.1804
  95009642.87147  74078649.08644  23265669.2504                   23265669.9384
  75431352.58247  58825042.24646  21382674.5634                   21382671.8874
 11  7 24  2 36 30.0000000  0  7G17G02G12G10G04G25G05
  15087038.21946  11808542.44943  23874161.5944                   23874158.5704
  46427936.37148  36230480.71946  20680056.3284                   20680051.6134
  66267710.30547  51683622.62946  20985150.9844                   20985147.8164
  58411860.80947  45558277.37545  21040820.4224                   21040817.4734
  36732699.77347                  28677635.45344  22433690.4924   22433688.2304
  94833628.56647  73941495.13344  23232175.0864                   23232175.0394
  75267816.46548  58697611.55946  21351555.1174                   21351552.2544
 11  7 24  2 37  0.0000000  0  7G17G02G12G10G04G25G05
  15062398.89146  11789342.99643  23869473.2424                   23869469.4534
  46350876.19948  36170433.84046  20665392.3204                   20665387.1094
  66147290.18847  51589788.79346  20962235.8444                   20962232.2734
  58348509.44147  45508912.68845  21028764.7894                   21028761.9884
  36724592.58247                  28671318.18044  22432147.8054   22432145.7034
  94657967.77747  73804616.66044  23198747.3284                   23198747.8834
  75104742.72747  58570541.15646  21320523.0784                   21320520.1024
 11  7 24  2 37 30.0000000  0  7G17G02G12G10G04G25G05
  15037965.88346  11770304.28543  23864822.3364                   23864820.1644
  46274090.73048  36110601.02046  20650780.2894                   20650775.2734
  66027443.66847  51496401.92246  20939430.3284                   20939426.5234
  58285806.48447  45460053.25845  21016832.9844                   21016830.1254
  36716582.94547                  28665076.91044  22430624.0864   22430621.3794
  94482660.19547  73668013.40644  23165387.7274                   23165387.9964
  74942130.73848  58443830.56645  21289578.5474                   21289575.6294
 11  7 24  2 38  0.0000000  0  7G17G02G12G10G04G25G05
  15013738.92646  11751426.11744  23860213.0554                   23860210.4264
  46197578.39548  36050981.02746  20636220.2814                   20636215.4694
  65908172.21147  51403463.14546  20916733.7274                   20916729.3094
  58223750.43447  45411697.90645  21005024.9304                   21005021.5984
  36708668.96947                  28658910.19544  22429117.8914   22429115.3204
  94307707.88747  73531687.01244  23132095.7894                   23132096.0004
  74779982.35247  58317481.22346  21258723.0084                   21258720.0594
 11  7 24  2 38 30.0000000  0  7G17G02G12G10G04G25G05
  14989717.70747  11732708.28544  23855642.4144                   23855639.3834
  46121337.18448  35991572.29746  20621712.6414                   20621707.7584
  65789476.57047  51310973.06346  20894146.1644                   20894142.5124
  58162339.43047  45363845.19945  20993337.9454                   20993335.2664
  36700848.40647                  28652816.26644  22427629.0394   22427627.0044
  94133112.98847  73395639.11744  23098871.3834                   23098870.9964
  74618299.21548  58191494.39846  21227956.0234                   21227952.3754
 11  7 24  2 39  0.0000000  0  7G17G02G12G10G04G25G05
  14965902.44947  11714150.96544  23851110.2974                   23851107.7384
  46045366.21548  35932374.13746  20607255.9924                   20607250.3754
  65671358.23847  51218932.82846  20871668.6954                   20871665.4144
  58101572.80547  45316494.60545  20981775.3204                   20981771.7304
  36693119.88347                  28646794.03144  22426158.8914   22426156.1954
  93958878.16847  73259871.80544  23065715.2894                   23065715.8094
  74457083.76247  58065872.01646  21197277.4614                   21197274.6804
 11  7 24  2 39 30.0000000  0  7G17G02G12G10G04G25G05
  14942289.29346  11695751.10543  23846616.3284                   23846613.2344
  45969660.37548  35873382.57846  20592849.3134                   20592844.0044
  65553814.53147  51127340.35246  20849301.0634                   20849297.5554
  58041445.52047  45269642.18045  20970333.4384                   20970329.8204
  36685477.66447                  28640839.05544  22424704.7664   22424702.0944
  93785002.09047  73124384.03144  23032628.1484                   23032627.7734
  74296334.50048  57940612.88746  21166687.7274                   21166684.7234
 11  7 24  2 40  0.0000000  0  7G17G02G12G10G04G25G05
  14918880.63346  11677510.58643  23842161.3284                   23842159.3634
  45894220.46148  35814598.23846  20578493.6804                   20578488.3364
  65436848.71947  51036198.18046  20827043.7734                   20827039.9654
  57981958.43847  45223288.62145  20959012.7344                   20959009.6644
  36677922.77047                  28634952.13344  22423266.7034   22423264.1684
  93611489.46947  72989179.48844  22999608.7974                   22999609.1454
  74136055.69948  57815720.36746  21136188.0784                   21136185.6214
 11  7 24  2 40 30.0000000  0  7G17G02G12G10G04G25G05
  14895673.97746  11659427.45744  23837745.8204                   23837742.6564
  45819042.85248  35756018.30546  20564187.8134                   20564182.5514
  65320459.65647  50945505.42246  20804895.2504                   20804891.9774
  57923107.58647  45177430.82045  20947813.6804                   20947810.8754
  36670450.82447                  28629129.84844  22421845.1644   22421842.5824
  93438340.30947  72854258.16444  22966659.4614                   22966659.5944
  73976247.44148  57691194.48846  21105777.7274                   21105774.1024
 11  7 24  2 41  0.0000000  0  7G17G02G12G10G04G25G05
  14872672.76646  11641504.42644  23833368.5474                   23833366.4454
  45744129.91048  35697644.60246  20549932.2734                   20549926.9964
  65204652.06347  50855265.76646  20782857.8444                   20782854.0634
  57864895.41847  45132070.69545  20936736.3594                   20936732.8984
  36663063.98047                  28623373.91444  22420439.1094   22420437.1484
  93265560.76647  72719624.86744  22933780.8364                   22933780.9804
  73816915.24647  57567039.57446  21075456.9454                   21075454.0634
 11  7 24  2 41 30.0000000  0  7G17G02G12G10G04G25G05
  14849877.39546  11623741.78544  23829030.8674                   23829027.9414
  45669480.43448  35639476.19546  20535726.8524                   20535721.7114
  65089427.54747  50765480.42646  20760931.4384                   20760927.7384
  57807320.50447  45087207.12945  20925780.1954                   20925777.0514
  36655760.65247                  28617682.99244  22419048.8364   22419046.7234
  93093153.39547  72585281.55544  22900972.7114                   22900972.7544
  73658061.59848  57443257.55146  21045228.2424                   21045225.2544
 11  7 24  2 42  0.0000000  0  7G17G02G12G10G04G25G05
  14827282.72346  11606135.55143  23824730.9774                   23824728.0084
  45595087.87148  35581507.98446  20521570.4144                   20521564.9964
  64974781.41847  50676145.80146  20739115.0234                   20739111.3794
  57750376.50847  45042835.18445  20914944.0084                   20914941.2114
  36648534.20347                  28612051.98444  22417674.7274   22417671.8324
  92921115.59447  72451226.20344  22868235.2344                   22868234.9534
  73499683.26248  57319845.90246  21015090.0474                   21015086.6414
 11  7 24  2 42 30.0000000  0  7G17G02G12G10G04G25G05
  14804892.50446  11588688.62144  23820471.0554                   23820468.0664
  45520954.82848  35523741.98846  20507463.3914                   20507457.7814
  64860718.80547  50587265.84846  20717409.5234                   20717405.6994
  57694065.72747  44998956.65645  20904228.4144                   20904225.9654
  36641386.64147                  28606482.46144  22416313.1174   22416311.7664
  92749453.42647  72317463.55544  22835568.7974                   22835568.5634
  73341786.20348  57196809.27046  20985043.0944                   20985040.3014
 11  7 24  2 43  0.0000000  0  7G17G02G12G10G04G25G05
  16358125.27746  12798999.84444  24116040.6094                   24116038.5594
  47022500.07448  36693777.27346  20793197.9774                   20793192.8324
  66322661.97347  51726442.35246  20995607.9924                   20995604.3404
  59213806.29747  46183170.10945  21193426.1094                   21193422.5664
  38209734.56347                  29828571.74644  22714760.9454   22714758.1994
  94153592.94947  73411598.31644  23102768.2194                   23102767.6214
  74759795.45347  58301751.59446  21254881.0004                   21254877.8634
 11  7 24  2 43 30.0000000  0  7G17G02G12G10G04G25G05
  16336140.33246  12781868.71543  24111856.7894                   24111854.8794
  46948878.57448  36636409.88746  20779188.4224                   20779182.9804
  66209765.75448  51638471.28146  20974124.6724                   20974120.8754
  59158753.98047  46140272.20345  21182949.5164                   21182945.7774
  38202736.82047                  29823118.95744  22713429.5394   22713426.5084
  93982686.05547  73278424.16444  23070245.1724                   23070244.4414
  74602863.59847  58179467.07446  21225018.0554                   21225015.4804
 11  7 24  2 44  0.0000000  0  7G17G02G12G10G04G25G05
  16314358.69546  12764895.98443  24107712.5944                   24107709.4964
  46875511.79348  36579241.00046  20765226.8914                   20765221.7704
  66097454.96147  51550956.38346  20952752.7034                   20952748.9304
  59104329.47347  46097863.50845  21172592.7664                   21172589.4884
  38195812.39547                  29817723.30944  22712111.3594   22712109.1524
  93812161.24247  73145547.75444  23037795.9384                   23037795.5004
  74446418.57047  58057561.89546  21195247.6254                   21195244.5554
 11  7 24  2 44 30.0000000  0  7G17G02G12G10G04G25G05
  16292782.05946  12748082.98843  24103606.0004                   24103603.6454
  46802399.83248  36522270.66446  20751314.6954                   20751309.0124
  65985732.30148  51463899.77346  20931492.4844                   20931488.7034
  59050532.84847  46055944.05545  21162356.0234                   21162352.6374
  38188961.28947                  29812384.78144  22710807.6414   22710805.0274
  93642022.53147  73012972.18444  23005419.3284                   23005418.4414
  74290463.62147  57936038.59846  21165570.0784                   21165567.3404
 11  7 24  2 45  0.0000000  0  7G17G02G12G10G04G25G05
  16271409.84046  12731429.32043  24099539.3914                   24099536.7504
  46729540.78548  36465497.40246  20737449.4924                   20737444.0234
  65874598.06647  51377301.66846  20910344.5234                   20910340.6844
  58997361.71547  46014512.01645  21152237.3674                   21152234.5634
  38182181.21947                  29807101.64544  22709517.4924   22709514.9774
  93472271.64547  72880698.81344  22973116.9224                   22973116.3874
  74134999.99647  57814898.16046  21135986.5864                   21135983.5314
 11  7 24  2 45 30.0000000  0  7G17G02G12G10G04G25G05
  16250240.41046  12714933.69543  24095510.8834                   24095508.5004
  46656932.02348  36408919.17646  20723633.2664                   20723627.2814
  65764051.69547  51291161.65246  20889307.4924                   20889303.8054
  58944813.39847  45973565.28945  21142237.7344                   21142235.1454
  38175469.25847                  29801871.54744  22708240.1954   22708237.8014
  93302909.64547  72748728.46544  22940888.1954                   22940887.2974
  73980028.68447  57694141.32046  21106496.3204                   21106493.0554
 11  7 24  2 46  0.0000000  0  7G17G02G12G10G04G25G05
  16229272.73846  12698595.20743  24091521.0944                   24091518.3754
  46584571.37148  36352534.27346  20709863.0314                   20709857.4344
  65654093.64148  51205480.05546  20868383.6024                   20868380.1644
  58892885.39147  45933101.91445  21132356.3284                   21132353.1484
  38168823.25047                  29796692.85944  22706975.5704   22706972.8984
  93133938.16847  72617062.41844  22908733.2664                   22908732.9414
  73825550.60247  57573768.85246  21077100.1804                   21077097.1844
 11  7 24  2 46 30.0000000  0  7G17G02G12G10G04G25G05
  16208507.55946  12682414.60943  24087569.4844                   24087567.0434
  46512458.04748  36296342.08646  20696140.3364                   20696134.6564
  65544724.73048  51120257.53146  20847571.5004                   20847567.8914
  58841576.21947  45893120.75045  21122593.0084                   21122589.7034
  38162241.86747                  29791564.53944  22705723.0004   22705720.5904
  92965360.00047  72485702.84845  22876654.1174                   22876653.7504
  73671568.49248  57453782.82446  21047798.4304                   21047794.8134
 11  7 24  2 47  0.0000000  0  7G17G02G12G10G04G25G05
  16187945.91046  12666392.54743  24083656.1804                   24083654.2424
  46440592.02748  36240342.60546  20682464.4694                   20682458.9614
  65435947.31648  51035495.91846  20826872.0704                   20826868.0234
  58790885.78547  45853621.72745  21112946.9844                   21112943.5594
  38155725.14147                  29786486.57044  22704483.0314   22704480.7544
  92797178.89847  72354652.70344  22844650.5554                   22844650.2624
  73518085.42647  57334185.68046  21018591.6644                   21018587.9774
 11  7 24  2 47 30.0000000  0  7G17G02G12G10G04G25G05
  16167586.37146  12650527.98443  24079782.7974                   24079779.7034
  46368971.03148  36184534.05546  20668835.7504                   20668830.1804
  65327761.06648  50951194.95746  20806284.9844                   20806280.8524
  58740811.03547  45814602.46545  21103417.3594                   21103414.3014
  38149270.11747                  29781456.71144  22703254.8834   22703252.0474
  92629395.99647  72223912.81345  22812722.2424                   22812722.4694
  73365102.11747  57214977.94546  20989479.5394                   20989476.5204
 11  7 24  2 48  0.0000000  0  7G17G02G12G10G04G25G05
  16147428.96146  12634820.95743  24075947.2814                   24075943.9614
  46297593.23848  36128915.02346  20655252.5864                   20655247.0124
  65220166.24247  50867354.83246  20785809.9694                   20785806.3164
  58691349.98447  45776061.39845  21094005.7194                   21094002.4844
  38142875.03147                  29776473.53944  22702037.9844   22702035.3524
  92462013.27747  72093484.77044  22780869.8204                   22780870.3484
  73212620.07047  57096160.81346  20960463.1094                   20960460.3244
 11  7 24  2 48 30.0000000  0  7G17G02G12G10G04G25G05
  16127472.36345  12619270.34442  24072148.7504                   24072147.0634
  46226456.49648  36073483.80546  20641716.2114                   20641710.1954
  65113163.08248  50783975.76246  20765448.0554                   20765444.0824
  58642500.15647  45737996.60945  21084709.9224                   21084706.6484
  38136537.74647                  29771535.41844  22700831.6254   22700829.3874
  92295032.47347  71963369.90245  22749094.8444                   22749095.0234
  73060640.47347  56977735.21546  20931542.9304                   20931539.7504
 11  7 24  2 49  0.0000000  0  7G17G02G12G10G04G25G05
  16107719.93445  12603878.87942  24068390.1724                   24068387.9534
  46155562.85248  36018242.02046  20628225.3594                   20628219.8364
  65006755.38347  50701060.69146  20745199.3054                   20745195.4344
  58594262.94547  45700409.19145  21075529.9774                   21075527.4384
  38130259.92247                  29766643.60944  22699637.3054   22699634.7154
  92128459.19947  71833572.58644  22717397.1334                   22717396.8014
  72909168.58247  56859705.21146  20902718.7734                   20902715.1024
 11  7 24  2 49 30.0000000  0  7G17G02G12G10G04G25G05
  16088167.50046  12588643.24242  24064669.4454                   24064667.0234
  46084906.82048  35963185.38346  20614779.8364                   20614774.3014
  64900939.65247  50618606.88746  20725062.8204                   20725059.4024
  58546632.55547  45663294.61745  21066466.1644                   21066463.6804
  38124035.94147                  29761793.78944  22698452.6254   22698449.7584
  91962291.56347  71704091.37144  22685776.5864                   22685776.0634
  72758202.02347  56742068.97346  20873990.3444                   20873987.4344
 11  7 24  2 50  0.0000000  0  7G17G02G12G10G04G25G05
  16068817.21946  12573565.10942  24060988.0784                   24060985.7664
  46014489.74248  35908314.94946  20601380.1254                   20601374.4574
  64795719.43047  50536617.10246  20705040.3204                   20705036.5394
  58499609.69547  45626653.44945  21057518.5004                   21057514.8954
  38117866.87947                  29756986.73843  22697279.1024   22697276.2664
  91796534.41047  71574930.01645  22654234.0394                   22654233.4344
  72607745.12947  56624829.88746  20845359.3204                   20845356.1134
 11  7 24  2 50 30.0000000  0  7G17G02G12G10G04G25G05
  16049669.86746  12558645.14143  24057343.5864                   24057340.8134
  45944311.18448  35853630.35946  20588025.1724                   20588019.5004
  64691096.06348  50455092.41846  20685131.3524                   20685127.4344
  58453193.19947  45590484.76245  21048685.3524                   21048682.3594
  38111752.18447                  29752222.04744  22696115.1254   22696112.1564
  91631191.10247  71446091.11745  22622770.4534                   22622769.8054
  72457800.61747  56507990.05546  20816826.1334                   20816822.7584
 11  7 24  2 51  0.0000000  0  7G17G02G12G10G04G25G05
  16030721.68846  12543880.30942  24053737.3444                   24053735.6334
  45874366.13348  35799127.73846  20574715.2424                   20574709.8674
  64587066.61748  50374030.52046  20665335.0864                   20665331.1294
  58407377.65247  45554784.35545  21039967.1024                   21039963.9304
  38105686.64847                  29747495.68444  22694960.4454   22694958.7234
  91466260.13747  71317573.53945  22591384.4924                   22591384.3984
  72308366.60247  56391548.00846  20788389.0554                   20788385.8834
 11  7 24  2 51 30.0000000  0  7G17G02G12G10G04G25G05
  16011973.30146  12529271.19943  24050170.1644                   24050168.1134
  45804654.32048  35744806.87146  20561449.6334                   20561444.1174
  64483632.57447  50293432.57046  20645652.4064                   20645648.4654
  58362162.59047  45519551.84045  21031363.1724                   21031359.8914
  38099669.94147                  29742807.35544  22693815.8364   22693813.7504
  91301744.85247  71189379.86345  22560078.1414                   22560077.7154
  72159445.71147  56275505.79346  20760050.6174                   20760047.3914
 11  7 24  2 52  0.0000000  0  7G17G02G12G10G04G25G05
  17568848.29745  13742420.55143  24346434.1334                   24346432.0514
  47310599.84448  36918270.92246  20848021.6804                   20848015.9804
  65956220.76647  51440903.91046  20925876.6414                   20925872.4614
  59892969.64547  46712388.51245  21322665.9924                   21322662.8284
  39669123.56646                  30965758.25044  22992472.5554   22992470.3634
  92713075.90247  72289118.39545  22828645.6884                   22828645.1254
  73586467.73447  57387471.04746  21031603.7894                   21031600.5314
 11  7 24  2 52 30.0000000  0  6G02G12G10G04G25G05
  47241357.11747  36864315.57446  20834844.9454                   20834839.4264
  65853986.22747  51361240.64546  20906421.9064                   20906417.7624
  59848955.33247  46678091.66045  21314290.3914                   21314286.9024
  39663206.66847                  30961147.67644  22991347.5704   22991344.7854
  92549405.55147  72161583.12144  22797500.0944                   22797499.6644
  73438585.38747  57272238.08646  21003463.2974                   21003459.6804
 11  7 24  2 53  0.0000000  0  6G02G12G10G04G25G05
  47172344.31347  36810539.37946  20821711.8834                   20821706.6844
  65752349.69947  51282043.37146  20887081.2664                   20887077.0354
  59805536.01247  46644258.44145  21306027.5704                   21306024.2704
  39657334.92646                  30956572.29344  22990229.5164   22990227.2734
  92386158.59847  72034377.73845  22766435.7894                   22766434.6844
  73291222.35547  57157409.78546  20975420.2194                   20975416.9534
 11  7 24  2 53 30.0000000  0  6G02G12G10G04G25G05
  47103563.63347  36756944.05946  20808623.7114                   20808618.0164
  65651314.31347  51203314.49646  20867854.2194                   20867850.7814
  59762712.76647  46610889.68445  21297878.7344                   21297875.6564
  39651510.04747                  30952033.43444  22989122.2274   22989118.7854
  92223340.15247  71907506.31345  22735452.2034                   22735451.7504
  73144383.19547  57042989.70746  20947478.1094                   20947474.3204
 11  7 24  2 54  0.0000000  0  6G02G12G10G04G25G05
  47035015.95347  36703530.30946  20795579.3754                   20795574.4064
  65550883.52747  51125056.75046  20848743.2734                   20848739.2974
  59720486.36347  46577985.97345  21289843.0704                   21289840.1724
  39645733.35247                  30947532.10944  22988022.6564   22988018.8524
  92060955.23047  71780972.66045  22704551.2424                   22704550.6804
  72998072.15647  56928981.13746  20919635.8284                   20919633.0514
 11  7 24  2 54 30.0000000  0  6G02G12G10G04G25G05
  46966703.66447  36650299.96946  20782580.3054                   20782574.8484
  65451061.32448  51047273.23046  20829747.8364                   20829743.8404
  59678857.87547  46545548.19145  21281922.1484                   21281918.7934
  39640006.90647                  30943069.97344  22986932.8984   22986929.7154
  91899009.48847  71654781.22745  22673733.8134                   22673733.1994
  72852294.43448  56815388.15246  20891894.9614                   20891892.0204
 11  7 24  2 55  0.0000000  0  6G02G12G10G04G25G05
  46898624.02347  36597250.92246  20769624.5944                   20769619.6334
  65351846.83247  50969963.24246  20810868.2584                   20810864.3754
  59637824.20747  46513573.93845  21274113.2504                   21274110.1884
  39634327.73446                  30938644.62544  22985851.8984   22985849.7544
  91737503.87947  71528932.73845  22643000.5704                   22642999.2814
  72707050.58247  56702211.15646  20864256.0474                   20864253.0514
 11  7 24  2 55 30.0000000  0  6G02G12G10G04G25G05
  46830773.55947  36544380.45346  20756713.3444                   20756707.7504
  65253238.00048  50893125.20346  20792103.4064                   20792099.2424
  59597380.91847  46482059.69545  21266417.2664                   21266413.8794
  39628692.25846                  30934253.36744  22984779.4534   22984776.8284
  91576438.39147  71403427.21545  22612350.7274                   22612350.1454
  72562339.63348  56589449.42246  20836718.4694                   20836714.9454
 11  7 24  2 56  0.0000000  0  6G02G12G10G04G25G05
  46763156.38347  36491691.77346  20743846.1094                   20743840.7344
  65155240.43447  50816763.47746  20773455.1334                   20773450.9184
  59557531.14547  46451007.94545  21258834.2344                   21258830.9574
  39623104.47746                  30929899.24644  22983716.2114   22983713.5594
  91415820.46147  71278270.43445  22581785.7814                   22581785.6524
  72418168.55948  56477108.34446  20809283.3054                   20809279.9694
 11  7 24  2 56 30.0000000  0  6G02G12G10G04G25G05
  46695761.94548  36439176.64546  20731021.4144                   20731016.3054
  65057845.85548  50740871.59846  20754921.2344                   20754917.5634
  59518263.69147  46420409.92645  21251362.0864                   21251358.6724
  39617554.02346                  30925574.20744  22982660.0394   22982657.0984
  91255643.29747  71153457.11345  22551305.3834                   22551304.7544
  72274529.96948  56365182.21146  20781949.9384                   20781946.6884
 11  7 24  2 57  0.0000000  0  6G02G12G10G04G25G05
  46628594.20748  36386838.14846  20718239.9224                   20718234.3874
  64961058.94948  50665453.24246  20736503.6024                   20736499.3594
  59479581.24647  46390267.78545  21244000.6564                   21243997.4454
  39612044.31646                  30921280.93844  22981611.4774   22981608.5274
  91095913.87947  71028992.67245  22520909.6414                   22520909.3674
  72131430.22348  56253675.95346  20754718.9844                   20754715.5004
 11  7 24  2 57 30.0000000  0  6G02G12G10G04G25G05
  46561650.89547  36334674.54746  20705500.8984                   20705495.2544
  64864879.34047  50590508.09446  20718200.9844                   20718196.9774
  59441481.08647  46360579.37545  21236750.3834                   21236747.3484
  39606573.36346                  30917017.86743  22980569.4844   22980567.1764
  90936633.68047  70904878.27045  22490599.3364                   22490598.9614
  71988870.03148  56142590.12546  20727590.9384                   20727587.2584
 11  7 24  2 58  0.0000000  0  6G02G12G10G04G25G05
  46494929.11747  36282683.56646  20692803.9924                   20692798.1764
  64769305.97747  50516035.34846  20700014.1094                   20700010.3954
  59403959.57447  46331341.85245  21229609.8204                   21229607.1804
  39601138.20746                  30912782.66043  22979536.2734   22979532.4104
  90777803.29347  70781114.38345  22460375.5864                   22460374.7774
  71846849.32048  56031924.68446  20700565.3364                   20700561.6134
 11  7 24  2 58 30.0000000  0  6G02G12G10G04G25G05
  46428430.04747  36230866.11346  20680150.1414                   20680144.5394
  64674341.64548  50442037.17646  20681943.0784                   20681938.9184
  59367017.03147  46302555.48045  21222580.4924                   21222577.3094
  39595740.02746                  30908576.30143  22978508.8834   22978505.4574
  90619427.44547  70657704.69545  22430237.1334                   22430237.0664
  71705372.09848  55921682.72746  20673642.9384                   20673639.2934
 11  7 24  2 59  0.0000000  0  6G02G12G10G04G25G05
  46362146.41047  36179216.53546  20667536.4534                   20667531.3204
  64579980.56647  50368509.08246  20663986.8594                   20663982.6524
  59330645.27347  46274213.86345  21215659.3834                   21215655.7384
  39590371.96546                  30904393.37143  22977486.5634   22977484.2074
  90461502.57447  70534646.37945  22400185.2974                   22400184.4884
  71564434.15248  55811860.99646  20646823.1564                   20646819.4654
 11  7 24  2 59 30.0000000  0  6G02G12G10G04G25G05
  46296081.75447  36127737.59846  20654965.0084                   20654959.0044
  64486227.22347  50295454.53146  20646146.0554                   20646142.0204
  59294845.75847  46246318.16445  21208846.5164                   21208843.5594
  39585036.41446                  30900235.80943  22976472.2974   22976469.4414
  90304034.71547  70411944.18445  22370220.0784                   22370219.1134
  71424041.21148  55702463.93046  20620107.3594                   20620104.0944
 11  7 24  3  0  0.0000000  0  6G02G12G10G04G25G05
  46230232.45747  36076426.46546  20642434.1724                   20642428.4384
  64393079.64147  50222872.01646  20628420.6414                   20628416.4614
  59259614.47747  46218865.22345  21202141.9304                   21202139.6174
  39579730.33646                  30896101.23043  22975462.7344   22975459.8834
  90147024.05947  70289598.23845  22340342.0944                   22340341.1254
  71284192.34048  55593490.82846  20593494.5234                   20593491.5434
 11  7 24  3  0 30.0000000  0  6G02G12G10G04G25G05
  46164601.50447  36025285.48046  20629945.0164                   20629939.7624
  64300542.09447  50150764.84446  20610811.3134                   20610807.2274
  59224953.49247  46191856.68445  21195546.0164                   21195543.4734
  39574456.57446                  30891991.79743  22974459.1254   22974456.1684
  89990476.91447  70167613.49645  22310551.5084                   22310551.2344
  71144893.06348  55484945.98446  20566987.0084                   20566983.6374
 11  7 24  3  1  0.0000000  0  6G02G12G10G04G25G05
  47674607.56347  37201913.57446  20917289.5314                   20917284.4804
  65784036.09447  51306734.19546  20893110.9064                   20893106.7814
  60766279.55147  47392890.00445  21488851.0784                   21488847.7734
  41144631.78947                  32115504.94143  23273253.2894   23273250.2934
  91409818.57047  71273594.03945  22580643.4224                   22580643.4384
  72581567.37148  56604432.48846  20840377.0634                   20840374.0634
 11  7 24  3  1 30.0000000  0  6G02G12G10G04G25G05
  47609406.04347  37151107.19546  20904882.1334                   20904876.6214
  65692716.10947  51235575.78946  20875733.4534                   20875728.9774
  60732749.05547  47366762.35245  21482470.5634                   21482467.3524
  41139415.41446                  32111440.22343  23272260.8054   23272257.8834
  91254201.55147  71152334.07445  22551030.2504                   22551029.7304
  72443368.31648  56496744.94946  20814078.3134                   20814075.1174
 11  7 24  3  2  0.0000000  0  6G02G12G10G04G25G05
  47544416.30547  37100465.83646  20892514.3674                   20892508.7974
  65602004.15248  51164891.15246  20858471.3444                   20858467.5634
  60699779.15247  47341071.53545  21476196.2424                   21476192.9184
  41134225.01647                  32107395.77043  23271273.0474   23271270.1174
  91099051.71147  71031438.10245  22521506.4694                   22521505.4064
  72305720.41848  56389486.87946  20787885.0554                   20787881.2584
 11  7 24  3  2 30.0000000  0  6G02G12G10G04G25G05
  47479635.13348  37049986.99246  20880187.5314                   20880181.8204
  65511897.98848  51094678.56646  20841324.8674                   20841320.6684
  60667365.50847  47315814.15645  21470028.8594                   21470025.2854
  41129057.27747                  32103368.95744  23270289.5554   23270286.7774
  90944369.03147  70910906.17245  22492071.5704                   22492070.2544
  72168623.02748  56282657.77346  20761796.2894                   20761793.3134
 11  7 24  3  3  0.0000000  0  6G02G12G10G04G25G05
  47415062.28548  36999670.50046  20867899.5944                   20867894.1994
  65422398.37548  51024938.62146  20824293.6644                   20824289.5354
  60635506.37147  47290988.86345  21463966.2424                   21463962.7464
  41123911.99247                  32099359.64544  23269310.1644   23269307.9304
  90790156.60947  70790740.68445  22462725.8134                   22462724.8204
  72032078.56648  56176259.51646  20735813.0634                   20735809.4654
 11  7 24  3  3 30.0000000  0  6G02G12G10G04G25G05
  47350702.25848  36949519.82846  20855651.8914                   20855647.1884
  65333510.99647  50955675.73446  20807378.9304                   20807374.9614
  60604205.27747  47266598.41445  21458009.0864                   21458005.9614
  41118793.12146                  32095370.91044  23268336.5474   23268333.2934
  90636421.97747  70670947.48845  22433470.8134                   22433469.8594
  71896093.62548  56070297.26246  20709935.7034                   20709932.1804
 11  7 24  3  4  0.0000000  0  7G29G02G12G10G04G25G05
 111642208.26655  87034414.77053  24381881.8594                   24381880.8794
  47286551.73847  36899532.42646  20843444.9924                   20843439.4264
  65245233.98848  50886888.46146  20790580.3914                   20790576.0864
  60573457.60547  47242639.19945  21452158.2034                   21452155.1724
  41113697.85247                  32091400.57044  23267366.7194   23267363.6954
  90483165.28547  70551526.70745  22404307.2114                   22404306.5204
  71760667.37948  55964770.35246  20684164.4614                   20684161.6804
 11  7 24  3  4 30.0000000  0  7G29G02G12G10G04G25G05
 111472596.23446  86902249.68843  24349606.0554                   24349604.6804
  47222609.86747  36849707.61746  20831277.3984                   20831271.5554
  65157568.09447  50818577.39846  20773897.8444                   20773893.9064
  60543261.84847  47219110.05145  21446412.4064                   21446409.1094
  41108625.46946                  32087448.09444  23266400.9924   23266398.7704
  90330389.04347  70432480.33645  22375234.4614                   22375233.5124
  71625801.72348  55859680.25446  20658500.9384                   20658497.5984
 11  7 24  3  5  0.0000000  0  7G29G02G12G10G04G25G05
 111302945.15246  86770054.16843  24317322.0234                   24317321.0354
  47158867.68047  36800038.40246  20819147.5314                   20819141.6644
  65070505.33248  50750736.28946  20757330.1954                   20757326.3914
  60513607.15647  47196002.50845  21440768.8524                   21440765.6994
  41103566.80946                  32083506.28543  23265438.6804   23265436.0084
  90178087.34447  70313803.73045  22346252.5164                   22346252.1564
  71491489.88348  55755021.71946  20632942.2114                   20632938.9534
 11  7 24  3  5 30.0000000  0  7G29G02G12G10G04G25G05
 111133258.80546  86637831.08643  24285031.5314                   24285031.4064
  47095326.89147  36750526.10946  20807055.8984                   20807050.5274
  64984047.78548  50683366.77746  20740878.5234                   20740874.1724
  60484494.48847  47173317.33645  21435228.7814                   21435226.1174
  41098523.82446                  32079576.70344  23264478.9844   23264476.6524
  90026265.18847  70195500.80145  22317361.3284                   22317360.8444
  71357736.31648  55650798.19546  20607489.4774                   20607486.3204
 11  7 24  3  6  0.0000000  0  7G29G02G12G10G04G25G05
 110963531.61746  86505576.19143  24252733.0394                   24252732.8674
  47031980.43447  36701165.23846  20795001.4144                   20794996.0864
  64898189.81648  50616464.48046  20724539.9454                   20724535.7424
  60455915.45347  47151047.95745  21429790.8444                   21429787.5704
  41093489.24246                  32075653.66043  23263520.7424   23263518.6484
  89874918.73847  70077568.52345  22288561.5634                   22288560.8014
  71224535.89148  55547005.69146  20582142.4384                   20582138.8754
 11  7 24  3  6 30.0000000  0  7G29G02G12G10G04G25G05
 110793769.03946  86373293.75443  24220429.5944                   24220427.9224
  46968831.62547  36651958.36746  20782984.9454                   20782979.3134
  64812936.24647  50550033.12946  20708316.9064                   20708312.2894
  60427872.04747  47129195.95745  21424454.3284                   21424451.1294
  41088466.53546                  32071739.89843  23262564.7664   23262562.4614
  89724054.45347  69960011.98045  22259853.2034                   22259852.1094
  71091894.82048  55443649.02746  20556901.2114                   20556897.9184
 11  7 24  3  7  0.0000000  0  7G29G02G12G10G04G25G05
 110623975.32846  86240987.04743  24188118.5394                   24188117.2464
  46905883.44547  36602907.84446  20771006.2734                   20771000.4964
  64728290.87548  50484075.70746  20692209.1724                   20692205.1374
  60400366.03147  47107762.71145  21419220.0394                   21419216.8164
  41083458.69546                  32067837.69143  23261611.6954   23261609.3754
  89573678.46147  69842835.91845  22231237.7664                   22231236.7344
  70959818.02748  55340732.06646  20531768.0474                   20531764.9734
 11  7 24  3  7 30.0000000  0  7G29G02G12G10G04G25G05
 110454144.61346  86108651.53143  24155800.3054                   24155799.8094
  46843128.27047  36554007.71546  20759064.0474                   20759058.4734
  64644246.62547  50418586.69146  20676216.3524                   20676212.0204
  60373388.13347  47086740.97345  21414086.0634                   21414083.3134
  41078458.28146                  32063941.23843  23260660.2194   23260657.6054
  89423786.10947  69726036.71145  22202713.2274                   22202712.6334
  70828299.89548  55238250.44146  20506741.2424                   20506737.8634
 11  7 24  3  8  0.0000000  0  7G29G02G12G10G04G25G05
 110284277.83646  85976287.90243  24123475.8134                   24123474.2384
  46780565.35247  36505257.39546  20747158.6334                   20747152.9024
  64560804.02048  50353566.48846  20660337.3284                   20660333.7384
  60346936.52347  47066129.35245  21409052.3594                   21409049.5314
  41073464.28146                  32060049.82043  23259710.3754   23259707.5124
  89274379.93447  69609616.33645  22174282.9534                   22174282.6644
  70697342.09448  55136205.42646  20481820.6174                   20481816.8914
 11  7 24  3  8 30.0000000  0  7G29G02G12G10G04G25G05
 110114377.98446  85843898.50843  24091145.8444                   24091143.8794
  46718195.80147  36456657.76246  20735290.1174                   20735284.6374
  64477965.35248  50289016.89546  20644573.7584                   20644569.6884
  60321010.73847  47045927.45345  21404118.8984                   21404116.0864
  41068478.09846                  32056164.53943  23258761.1564   23258758.3634
  89125464.07847  69493578.03945  22145945.1954                   22145944.4144
  70566948.33248  55034599.93446  20457007.3444                   20457003.9844
 11  7 24  3  9  0.0000000  0  7G29G02G12G10G04G25G05
 109944447.51246  85711485.26643  24058807.3984                   24058806.9064
  46656020.33247  36408209.36346  20723458.6954                   20723453.2114
  64395731.78948  50224938.80546  20628925.1094                   20628921.5274
  60295610.23047  47026134.85245  21399285.8524                   21399281.9924
  41063500.54746                  32052285.93043  23257814.8914   23257811.0084
  88977042.44147  69377924.83645  22117700.8914                   22117700.3834
  70437121.57848  54933436.25846  20432302.3914                   20432298.8714
 11  7 24  3  9 30.0000000  0  7G29G02G12G10G04G25G05
 109774485.10546  85579047.18043  24026465.1414                   24026464.0004
  46594035.65647  36359909.60946  20711663.3204                   20711658.1024
  64314101.27748  50161330.62546  20613391.2274                   20613387.1334
  60270730.73047  47006748.23845  21394550.5704                   21394548.1334
  41058528.43446                  32048411.58643  23256867.0784   23256865.1644
  88829114.83647  69262656.61345  22089551.9924                   22089550.7274
  70307860.60548  54832713.46146  20407705.0084                   20407701.3404
 11  7 24  3 10  0.0000000  0  7G29G02G12G10G04G25G05
 111179919.29346  86674190.73043  24293911.0004                   24293909.0274
  48107665.62948  37539361.55146  20999698.1024                   20999692.3094
  65808498.68048  51325796.14146  20897765.7424                   20897761.5864
  61821792.55547  48215367.85245  21689708.5234                   21689705.1454
  42628983.61746                  33272142.91443  23555714.8594   23555713.5864
  90257110.70747  70375380.68845  22361290.2664                   22361288.9884
  71754593.25848  55960037.62946  20683008.6564                   20683005.1254
 11  7 24  3 10 30.0000000  0  7G29G02G12G10G04G25G05
 111009896.97747  86541705.99243  24261556.2814                   24261554.8014
  48046062.16448  37491358.84846  20987974.7194                   20987969.5274
  65728075.39148  51263128.65646  20882461.7974                   20882457.7234
  61797949.32447  48196788.71145  21685171.9694                   21685168.1174
  42624022.02746                  33268276.77343  23554770.9454   23554768.7704
  90110179.48447  70260888.83645  22333330.3054                   22333329.0394
  71626469.35248  55860200.86346  20658627.2504                   20658623.7344
 11  7 24  3 11  0.0000000  0  7G29G02G12G10G04G25G05
 110839847.14546  86409199.73843  24229196.6334                   24229194.9694
  47984648.95748  37443504.41446  20976288.3524                   20976282.7344
  65648257.15647  51200932.62946  20867273.0784                   20867268.5474
  61774621.59447  48178611.25445  21680732.2194                   21680728.9104
  42619065.28946                  33264414.38343  23553828.3914   23553825.1484
  89963750.58247  70146788.41845  22305465.5634                   22305464.9884
  71498916.82848  55760809.32846  20634354.9534                   20634351.8914
 11  7 24  3 11 30.0000000  0  7G29G02G12G10G04G25G05
 110669770.08646  86276672.32443  24196831.9454                   24196830.7194
  47923424.70748  37395797.21546  20964637.9224                   20964632.2034
  65569042.77348  51139207.14546  20852198.8444                   20852194.7664
  61751806.63747  48160833.39145  21676390.8364                   21676386.8954
  42614112.30146                  33260554.95343  23552886.1334   23552883.1054
  89817825.86747  70033080.87145  22277697.0234                   22277696.0434
  71371936.57848  55661863.70746  20610191.2274                   20610187.6024
 11  7 24  3 12  0.0000000  0  7G29G02G12G10G04G25G05
 110499669.22346  86144126.32043  24164462.5314                   24164461.3874
  47862391.46548  37348238.86746  20953023.6884                   20953017.6804
  65490435.28148  51077954.56646  20837240.2194                   20837236.5514
  61729504.98447  48143455.48845  21672146.7894                   21672142.9614
  42609165.50446                  33256700.33643  23551944.3914   23551941.2194
  89672410.21547  69919770.00445  22250024.9844                   22250024.3204
  71245532.66048  55563367.20746  20586137.3914                   20586134.3244
 11  7 24  3 12 30.0000000  0  7G29G02G12G10G04G25G05
 110329544.91446  86011562.03143  24132089.1954                   24132087.8634
  47801547.08248  37300827.67246  20941445.1174                   20941439.7034
  65412433.28148  51017173.79346  20822397.1724                   20822392.9774
  61707712.96947  48126474.70745  21667999.4304                   21667995.9964
  42604222.84846                  33252848.93843  23551002.6174   23551000.7704
  89527504.60547  69806856.55545  22222450.7894                   22222449.4494
  71119704.96548  55465319.69546  20562193.4454                   20562190.1914
 11  7 24  3 13  0.0000000  0  7G29G02G12G10G04G25G05
 110159393.00846  85878976.28543  24099709.8204                   24099708.7934
  47740885.97348  37253559.28546  20929901.9844                   20929896.4344
  65335031.67648  50956860.85946  20807667.7194                   20807663.7854
  61686423.28947  48109885.35245  21663948.3984                   21663944.6884
  42599278.35946                  33248996.08243  23550062.7194   23550060.5234
  89383105.96947  69694338.16445  22194972.5634                   22194971.7154
  70994449.58248  55367718.13346  20538358.0554                   20538354.0634
 11  7 24  3 13 30.0000000  0  7G29G02G12G10G04G25G05
 109989215.21146  85746370.37943  24067326.4774                   24067324.8284
  47680407.68447  37206433.36346  20918393.6564                   20918387.7734
  65258230.72748  50897015.96546  20793053.3594                   20793049.2464
  61665634.34847  48093686.18445  21659992.2504                   21659988.8834
  42594332.21147                  33245141.94943  23549121.3444   23549118.9024
  89239217.19947  69582217.07045  22167591.4774                   22167590.8284
  70869768.46948  55270564.05946  20514632.3754                   20514628.1484
 11  7 24  3 14  0.0000000  0  7G29G02G12G10G04G25G05
 109819010.83246  85613743.74243  24034938.2734                   24034935.9924
  47620109.90647  37159448.09046  20906918.6334                   20906914.0274
  65182028.85948  50837637.89546  20778552.3984                   20778548.1724
  61645342.71147  48077874.53545  21656131.3674                   21656127.4964
  42589382.07046                  33241284.74243  23548179.3444   23548177.4884
  89095838.91447  69470493.77045  22140307.4454                   22140306.2504
  70745661.50448  55173857.38746  20491015.3284                   20491011.4064
 11  7 24  3 14 30.0000000  0  7G29G02G12G10G04G25G05
 109648781.29746  85481097.50044  24002543.8754                   24002541.8484
  47559992.40247  37112603.29746  20895478.7974                   20895473.1484
  65106426.44148  50778726.92646  20764165.4304                   20764162.1604
  61625545.87547  48062448.44545  21652363.9534                   21652360.7234
  42584428.03546                  33237424.49243  23547237.2584   23547235.0554
  88952973.54747  69359170.13345  22113120.6804                   22113119.8094
  70622129.80947  55077598.96546  20467507.6094                   20467503.8404
 11  7 24  3 15  0.0000000  0  7G29G02G12G10G04G25G05
 109478529.18846  85348433.64144  23970145.8444                   23970143.8954
  47500056.06647  37065899.67646  20884073.1484                   20884068.4024
  65031424.41448  50720283.79346  20749893.2424                   20749889.6174
  61606243.30547  48047407.48045  21648690.6334                   21648687.5864
  42579470.60546                  33233561.58244  23546293.7034   23546291.7544
  88810624.77347  69248249.05945  22086032.4534                   22086031.8634
  70499176.25847  54981791.02346  20444110.8444                   20444107.3634
 11  7 24  3 15 30.0000000  0  7G29G02G12G10G04G25G05
 109308252.79346  85215750.82043  23937742.5704                   23937741.4264
  47440297.56647  37019334.62946  20872702.4844                   20872696.4144
  64957020.07048  50662306.39146  20735734.4454                   20735730.3914
  61587429.78947  48032747.61745  21645110.2344                   21645106.7234
  42574506.77046                  33229693.69143  23545348.8054   23545346.3594
  88668791.97747  69137730.03945  22059042.8524                   22059041.5084
  70376798.98448  54886432.14846  20420822.9534                   20420819.2934
 11  7 24  3 16  0.0000000  0  7G29G02G12G10G04G25G05
 109137952.28146  85083049.25043  23905336.0864                   23905334.0394
  47380714.84847  36972906.55146  20861363.8284                   20861357.9694
  64883212.07448  50604793.66446  20721689.7734                   20721685.7974
  61569101.76247  48018466.05145  21641622.5004                   21641619.2304
  42569534.89546                  33225819.53543  23544402.6884   23544400.2974
  88527476.11347  69027613.83645  22032151.4694                   22032150.5354
  70254998.12947  54791522.42246  20397644.9694                   20397641.2584
 11  7 24  3 16 30.0000000  0  7G29G02G12G10G04G25G05
 108967630.16846  84950330.83243  23872925.1484                   23872922.8484
  47321309.12547  36926616.39546  20850058.8754                   20850053.4694
  64810001.65248  50547746.58646  20707757.8054                   20707754.1994
  61551258.60547  48004562.30545  21638227.2194                   21638224.1294
  42564555.89846                  33221939.81643  23543455.5704   23543452.8054
  88386680.94147  68917903.36745  22005358.9774                   22005358.1844
  70133776.66447  54697064.16846  20374577.1024                   20374573.6914
 11  7 24  3 17  0.0000000  0  7G29G02G12G10G04G25G05
 108797284.69146  84817594.18043  23840509.1024                   23840506.3794
  47262076.40247  36880461.04746  20838787.5314                   20838781.5864
  64737385.94548  50491162.91846  20693939.8754                   20693935.7734
  61533895.08647  47991032.29344  21634922.6644                   21634919.5744
  42559566.29346                  33218051.82843  23542504.7274   23542503.0084
  88246405.39147  68808597.77745  21978665.6644                   21978664.6524
  70013132.49647  54603055.74646  20351619.1564                   20351615.9144
 11  7 24  3 17 30.0000000  0  7G29G02G12G10G04G25G05
 108626923.76646  84684845.48043  23808090.7424                   23808087.5864
  47203023.03148  36834445.43846  20827549.7504                   20827544.0124
  64665370.68848  50435047.15246  20680235.1414                   20680231.5824
  61517015.10947  47977879.07044  21631711.0394                   21631708.0664
  42554572.28946                  33214160.41043  23541554.7664   23541553.0234
  88106658.22347  68699703.93445  21952071.8594                   21952071.0474
  69893073.11347  54509503.00446  20328772.9774                   20328768.7934
 11  7 24  3 18  0.0000000  0  7G29G02G12G10G04G25G05
 108456549.61346  84552086.49643  23775669.2504                   23775666.7384
  47144149.09847  36788569.65646  20816346.8984                   20816340.6954
  64593956.81348  50379399.97346  20666645.9064                   20666642.3794
  61500617.70347  47965101.87545  21628590.9614                   21628587.2894
  42549574.41446                  33210265.99643  23540604.4144   23540601.5164
  87967442.68847  68591224.34045  21925580.3284                   21925579.3834
  69773600.86347  54416407.75046  20306037.9384                   20306034.0394
 11  7 24  3 18 30.0000000  0  7G29G02G12G10G04G25G05
 108286160.40246  84419315.81343  23743244.3754                   23743242.1724
  47085451.52047  36742831.30146  20805176.5084                   20805170.6334
  64523141.45748  50324219.17246  20653170.3914                   20653166.7074
  61484697.93047  47952696.88345  21625561.3834                   21625558.1684
  42544569.50046                  33206366.11343  23539651.9614   23539649.4454
  87828758.04348  68483158.44145  21899189.8834                   21899188.1374
  69654714.25447  54323768.85246  20283414.8204                   20283411.2894
 11  7 24  3 19  0.0000000  0  7G29G02G12G10G04G25G05
 109691183.48446  85514139.07043  24010611.3754                   24010610.2424
  48602351.55147  37924831.33646  21093832.9534                   21093827.2504
  66028346.50048  51497106.22746  20939601.3284                   20939597.4384
  63044674.02347  49168262.67245  21922414.7034                   21922411.8714
  44114977.46146                  34430060.64143  23838490.0234   23838487.2274
  89266031.14547  69603111.54345  22172693.3134                   22172692.8094
  71111838.14148  55459190.07846  20560695.8134                   20560692.2034
 11  7 24  3 19 30.0000000  0  7G29G02G12G10G04G25G05
 109520764.32846  85381344.98843  23978181.9774                   23978179.7974
  48544000.71147  37879363.15646  21082729.2894                   21082724.1094
  65958723.19148  51442854.29746  20926352.5474                   20926348.0314
  63029698.09447  49156593.10545  21919565.2274                   21919561.8984
  44109953.26646                  34426145.71143  23837535.1564   23837531.3754
  89128410.50847  69495874.73045  22146504.6884                   22146504.1884
  70994121.55947  55367462.87946  20538295.0314                   20538291.0744
 11  7 24  3 20  0.0000000  0  7G29G02G12G10G04G25G05
 109350331.96546  85248540.62543  23945749.5394                   23945747.7304
  48485822.18047  37834029.25046  21071658.5084                   21071652.9694
  65889694.88748  51389065.99646  20913216.7734                   20913212.6914
  63015190.02347  49145288.12145  21916804.1094                   21916801.2274
  44104918.48046                  34422222.55943  23836576.8444   23836573.4064
  88991324.62547  69389054.60545  22120418.4924                   22120417.6644
  70876991.14147  55276192.43446  20516006.1024                   20516002.4414
 11  7 24  3 20 30.0000000  0  7G29G02G12G10G04G25G05
 109179887.71546  85115726.98043  23913315.0784                   23913313.5084
  48427815.50447  37788829.25446  21060620.1564                   21060614.2814
  65821262.04748  51335741.71146  20900194.4534                   20900190.4414
  63001147.99647  49134346.28145  21914132.4614                   21914129.2584
  44099872.77746                  34418290.92243  23835615.8594   23835613.3634
  88854775.65248  69282652.84045  22094434.4304                   22094433.1764
  70760447.65647  55185379.34846  20493828.4304                   20493825.1094
 11  7 24  3 21  0.0000000  0  7G29G02G12G10G04G25G05
 109009429.91046  84982902.79343  23880878.6414                   23880876.4654
  48369977.37947  37743760.58246  21049613.4844                   21049608.0824
  65753420.53948  51282878.19146  20887284.4224                   20887280.4614
  62987567.01247  49123763.69944  21911547.3444                   21911544.9104
  44094813.15646                  34414348.35943  23834653.4694   23834650.3164
  88718762.78548  69176668.82045  22068551.2664                   22068550.9224
  70644489.87947  55095022.66846  20471762.2734                   20471759.1684
 11  7 24  3 21 30.0000000  0  7G29G02G12G10G04G25G05
 108838966.77246  84850074.43843  23848439.9224                   23848438.0004
  48312313.94947  37698828.04746  21038640.7734                   21038635.0824
  65686176.70347  51230480.39546  20874488.2034                   20874484.7774
  62974451.27347  49113543.64545  21909052.2974                   21909048.4144
  44089745.75446                  34410399.80543  23833688.7734   23833686.1134
  88583294.70348  69071109.30145  22042773.0084                   22042771.6954
  70529125.39847  55005128.27346  20449809.3754                   20449805.7464
 11  7 24  3 22  0.0000000  0  7G29G02G12G10G04G25G05
 108668494.96946  84717239.32444  23816000.3754                   23815998.5084
  48254820.04747  37654027.61346  21027699.9454                   21027694.3324
  65619526.22748  51178544.94946  20861805.4614                   20861801.1914
  62961793.80947  49103680.69944  21906643.3524                   21906640.0514
  44084665.74246                  34406441.36343  23832722.3984   23832718.9264
  88448368.77048  68965972.24645  22017097.3754                   22017096.4574
  70414350.52347  54915693.30946  20427968.1414                   20427964.7154
 11  7 24  3 22 30.0000000  0  7G29G02G12G10G04G25G05
 108498013.20346  84584396.48043  23783557.4144                   23783556.7154
  48197492.50047  37609356.79346  21016791.1564                   21016785.2734
  65553465.53548  51127069.08246  20849234.3674                   20849230.4924
  62949589.55547  49094170.89544  21904321.2974                   21904317.4964
  44079570.17246                  34402470.76243  23831753.0004   23831749.8444
  88313984.48047  68861257.23445  21991525.1724                   21991523.9454
  70300163.16447  54826716.17246  20406239.1094                   20406235.8754
 11  7 24  3 23  0.0000000  0  7G29G02G12G10G04G25G05
 108327525.55146  84451549.03943  23751115.1254                   23751113.8014
  48140333.73847  37564817.50846  21005913.8364                   21005908.2584
  65487997.08648  51076054.69546  20836776.1484                   20836772.2664
  62937839.05147  49085014.66444  21902084.3914                   21902081.4884
  44074461.62946                  34398490.11743  23830780.1804   23830776.9384
  88180146.47747  68756967.89545  21966056.2974                   21966055.1684
  70186567.29747  54738199.93046  20384622.6804                   20384618.9804
 11  7 24  3 23 30.0000000  0  7G29G02G12G10G04G25G05
 108157032.56647  84318697.43844  23718671.8674                   23718670.1914
  48083342.43047  37520408.69946  20995068.8204                   20995063.7274
  65423119.55948  51025500.77046  20824430.1954                   20824426.5704
  62926539.08247  49076209.48444  21899934.6254                   21899931.0824
  44069338.78546                  34394498.28543  23829805.8594   23829802.2854
  88046855.80948  68653105.05545  21940691.8754                   21940690.8714
  70073563.05547  54650144.69946  20363118.5864                   20363114.6994
 11  7 24  3 24  0.0000000  0  7G29G02G12G10G04G25G05
 107986534.29746  84185841.72343  23686227.3834                   23686224.9534
  48026516.81647  37476129.01646  20984255.0234                   20984250.2894
  65358830.91048  50975405.72746  20812196.5164                   20812192.4804
  62915685.57447  49067752.21544  21897869.2504                   21897866.1134
  44064200.04346                  34390494.09843  23828827.7274   23828825.2344
  87914113.24248  68549669.30145  21915431.8914                   21915430.8874
  69961149.75048  54562549.93446  20341727.3524                   20341723.6564
 11  7 24  3 24 30.0000000  0  7G29G02G12G10G04G25G05
 107816033.03946  84052983.71544  23653781.8444                   23653779.3794
  47969857.28148  37431978.71946  20973473.5234                   20973467.7154
  65295131.52047  50925769.82446  20800074.6334                   20800071.7034
  62905277.42247  49059641.95744  21895888.3134                   21895885.3364
  44059046.00846                  34386477.90643  23827847.1484   23827845.4104
  87781921.57048  68446662.79745  21890276.9064                   21890275.6254
  69849329.04748  54475416.93046  20320448.2814                   20320444.8054
 11  7 24  3 25  0.0000000  0  7G29G02G12G10G04G25G05
 107645530.00847  83920124.31343  23621335.9454                   23621333.7584
  47913363.02348  37387957.21146  20962722.8364                   20962717.2584
  65232020.67648  50876592.53546  20788065.8754                   20788061.7624
  62895311.40647  49051876.24644  21893992.1484                   21893988.5084
  44053876.53946                  34382449.73043  23826862.9924   23826860.8954
  87650282.31348  68344086.77045  21865226.0634                   21865225.1764
  69738101.47348  54388746.12146  20299282.3364                   20299278.7734
 11  7 24  3 25 30.0000000  0  7G29G02G12G10G04G25G05
 107475026.00447  83787264.13343  23588890.1804                   23588888.0124
  47857032.94147  37344063.64846  20952003.0864                   20951997.9224
  65169497.32447  50827873.02746  20776167.7734                   20776164.2974
  62885785.39147  49044453.39544  21892179.6254                   21892176.2384
  44048690.44146                  34378408.67243  23825877.0474   23825873.6134
  87519196.79348  68241942.21945  21840281.8054                   21840280.4734
  69627467.41048  54302537.78146  20278229.7894                   20278226.1094
 11  7 24  3 26  0.0000000  0  7G29G02G12G10G04G25G05
 107304518.38446  83654401.12843  23556443.7274                   23556441.4024
  47800862.59047  37300294.54746  20941314.5004                   20941309.2894
  65107556.40248  50779607.38346  20764380.3674                   20764376.9454
  62876692.53947  49037368.04344  21890448.6564                   21890445.8444
  44043483.21146                  34374351.09843  23824885.3364   23824882.6954
  87388662.67648  68140227.32845  21815442.0234                   21815440.8054
  69517423.45748  54216789.27346  20257288.5704                   20257285.3054
 11  7 24  3 26 30.0000000  0  7G29G02G12G10G04G25G05
 107134013.21946  83521540.02043  23523997.8594                   23523994.8284
  47744856.06348  37256653.09446  20930656.8134                   20930651.7384
  65046201.98048  50731798.73846  20752705.6254                   20752701.5354
  62868034.94547  49030621.87144  21888801.5314                   21888798.3484
  44038259.66446                  34370280.76243  23823892.1174   23823888.5514
  87258686.50448  68038947.20345  21790708.4694                   21790706.9804
  69407974.70748  54131504.55546  20236461.1334                   20236457.4884
 11  7 24  3 27  0.0000000  0  7G29G02G12G10G04G25G05
 106963512.06346  83388682.02043  23491551.8754                   23491549.1374
  47689013.54747  37213139.44946  20920030.1484                   20920024.9694
  64985434.08647  50684447.12946  20741141.5944                   20741137.9024
  62859810.62147  49024213.31344  21887236.3204                   21887233.1134
  44033019.73446                  34366197.70343  23822893.9144   23822892.0704
  87129270.58648  67938103.64545  21766081.3674                   21766080.1564
  69299122.79748  54046684.89846  20215747.8204                   20215743.5554
 11  7 24  3 27 30.0000000  0  7G29G02G12G10G04G25G05
 106793012.60546  83255825.38343  23459107.0234                   23459104.4774
  47633330.44148  37169750.02346  20909434.2974                   20909428.6054
  64925248.14547  50637548.99246  20729688.1724                   20729684.3874
  62852012.89547  49018137.17645  21885753.0474                   21885749.2814
  44027759.25046                  34362098.62543  23821893.0784   23821890.5554
  87000412.50848  67837694.76245  21741560.3444                   21741558.9224
  69190863.95348  53962327.37546  20195146.6094                   20195143.0314
 11  7 24  3 28  0.0000000  0  7G29G02G12G10G04G25G05
 108197943.42246  84350576.73843  23726456.3204                   23726454.2624
  49153229.82847  38354087.19545  21198661.6484                   21198656.0514
  66441066.07447  51818705.81646  21018138.7034                   21018135.4494
  64420060.97747  50239992.81644  22184142.5234                   22184139.3244
  45597899.47346                  35585584.46143  24120680.9924   24120679.0554
  88447539.64848  68965326.33245  22016939.2894                   22016938.7814
  70658623.98448  55106036.52746  20474451.6724                   20474448.5164
 11  7 24  3 28 30.0000000  0  7G29G02G12G10G04G25G05
 108027453.42646  84217727.44143  23694013.2344                   23694010.7154
  49097866.12547  38310946.66045  21188126.1644                   21188120.8794
  66382042.16447  51772713.14846  21006907.3284                   21006903.3914
  64413111.31647  50234577.52344  22182820.6414                   22182817.1334
  45592598.60546                  35581453.89143  24119672.2814   24119669.8634
  88319804.19548  68865792.22745  21992632.0634                   21992631.4614
  70551554.73048  55022605.96546  20454077.5634                   20454072.7504
 11  7 24  3 29  0.0000000  0  7G29G02G12G10G04G25G05
 107856972.66046  84084885.36743  23661571.1484                   23661569.5234
  49042663.93047  38267931.96946  21177621.2894                   21177615.9064
  66323600.98847  51727174.57446  20995786.1644                   20995782.6454
  64406584.37547  50229491.58644  22181577.8204                   22181575.1024
  45587279.77346                  35577309.34043  24118660.7274   24118657.7154
  88192635.12548  68766699.46145  21968432.7814                   21968431.2704
  70445083.61748  54939641.46946  20433816.3134                   20433812.4344
 11  7 24  3 29 30.0000000  0  7G29G02G12G10G04G25G05
 107686497.65246  83952047.80943  23629131.3754                   23629129.7154
  48987617.61347  38225038.74646  21167146.6484                   21167141.0744
  66265736.60247  51682085.44146  20984775.0944                   20984771.3014
  64400472.31647  50224728.95344  22180414.5234                   22180411.6374
  45581937.68446                  35573146.69543  24117643.4844   24117640.1804
  88066028.93048  68668045.30545  21944340.6884                   21944338.9344
  70339206.59848  54857139.92246  20413669.1884                   20413665.3244
 11  7 24  3 30  0.0000000  0  7G29G02G12G10G04G25G05
 107516034.57046  83819219.56344  23596693.0234                   23596690.9384
  48932731.46547  38182270.31346  21156702.1024                   21156696.5394
  66208452.79747  51637448.70746  20973874.2114                   20973870.3674
  64394777.72347  50220291.60945  22179331.0004                   22179327.6684
  45576577.10946                  35568969.57043  24116623.0704   24116620.9144
  87939992.17248  68569834.89145  21920356.3204                   21920355.3674
  70233928.67248  54775105.19946  20393635.5634                   20393631.3674
 11  7 24  3 30 30.0000000  0  7G29G02G12G10G04G25G05
 107345580.22346  83686398.04744  23564256.3754                   23564254.5164
  48878000.51648  38139622.82446  21146287.4064                   21146281.8134
  66151744.16847  51593260.15646  20963082.9844                   20963079.4144
  64389493.24647  50216173.85244  22178325.2424                   22178322.0944
  45571192.72746                  35564773.90243  24115599.2274   24115596.8754
  87814521.62148  68472065.64845  21896480.0394                   21896478.8094
  70129245.07848  54693533.58246  20373714.3444                   20373710.6214
 11  7 24  3 31  0.0000000  0  7G29G02G12G10G04G25G05
 107175135.33646  83553583.94144  23531821.9304                   23531819.5984
  48823423.32848  38097095.15246  21135902.1804                   21135896.2194
  66095608.73447  51549518.25446  20952400.8524                   20952397.3444
  64384615.60547  50212373.09444  22177397.0394                   22177394.2384
  45565783.71546                  35560559.11743  24114569.9924   24114566.7974
  87689618.11748  68374738.26645  21872711.6094                   21872710.2814
  70025155.73048  54612425.02346  20353907.0164                   20353903.5274
 11  7 24  3 31 30.0000000  0  7G29G02G12G10G04G25G05
 107004699.65246  83420776.99644  23499390.0704                   23499387.2034
  48768997.87147  38054685.71946  21125544.8204                   21125539.3914
  66040043.94547  51506221.02346  20941827.0234                   20941823.3244
  64380141.09047  50208886.46144  22176545.5314                   22176542.1294
  45560348.22346                  35556323.65643  24113534.6724   24113532.9924
  87565281.59048  68277852.68445  21849051.5394                   21849050.1484
  69921660.03548  54531779.04746  20334212.1094                   20334208.8054
 11  7 24  3 32  0.0000000  0  7G29G02G12G10G04G25G05
 106834276.63347  83287979.92644  23466958.9224                   23466957.0904
  48714725.63747  38012395.67645  21115216.9614                   21115211.2194
  65985051.14147  51463369.50446  20931362.6564                   20931358.2034
  64376068.55147  50205713.05944  22175770.8364                   22175768.1414
  45554887.98046                  35552068.94143  24112496.8834   24112494.4104
  87441515.55547  68181411.63345  21825499.2894                   21825498.3444
  69818759.86748  54451597.10946  20314631.3284                   20314628.0204
 11  7 24  3 32 30.0000000  0  7G29G02G12G10G04G25G05
 106663865.95746  83155192.46944  23434530.7814                   23434528.4574
  48660604.64148  37970223.48846  21104918.2194                   21104912.3754
  65930627.00447  51420961.09446  20921005.6564                   20921002.2304
  64372393.64147  50202849.48844  22175071.7034                   22175068.3404
  45549401.00046                  35547793.38343  24111452.6484   24111449.4844
  87318319.55948  68085414.78145  21802055.9144                   21802054.3794
  69716453.53948  54371877.91446  20295162.7734                   20295158.9884
 11  7 24  3 33  0.0000000  0  7G29G02G12G10G04G25G05
 106493469.26246  83022415.88744  23402105.4614                   23402102.9414
  48606634.77747  37928169.07046  21094647.9774                   21094642.3444
  65876770.86747  51378995.26246  20910757.4614                   20910753.4734
  64369114.06647  50200293.97744  22174447.5784                   22174444.1644
  45543887.12546                  35543496.81643  24110403.8364   24110400.7274
  87195695.34448  67989863.48045  21778721.0394                   21778720.1914
  69614741.54748  54292621.82446  20275807.5704                   20275803.6764
 11  7 24  3 33 30.0000000  0  7G29G02G12G10G04G25G05
 106323087.09046  82889650.64544  23369682.7344                   23369680.1214
  48552814.03947  37886230.84046  21084406.1024                   21084400.8714
  65823480.64148  51337470.41046  20900616.8134                   20900613.1844
  64366225.74247  50198043.33244  22173897.6724                   22173893.9884
  45538345.14546                  35539178.37142  24109347.7664   24109346.1524
  87073643.19948  67894757.93045  21755495.4534                   21755494.2854
  69513623.53548  54213828.59446  20256564.8284                   20256562.0594
 11  7 24  3 34  0.0000000  0  7G29G02G12G10G04G25G05
 106152723.84046  82756900.13344  23337263.4694                   23337260.7664
  48499145.40648  37844411.13746  21074193.2664                   21074187.7734
  65770758.47748  51296388.21146  20890584.2974                   20890579.8714
  64363729.68447  50196098.35944  22173422.9224                   22173419.3634
  45532778.03946                  35534840.38342  24108289.4534   24108286.1094
  86952167.77748  67800101.78145  21732379.5634                   21732378.3794
  69413102.69148  54135500.68846  20237436.8834                   20237433.4574
 11  7 24  3 34 30.0000000  0  7G29G02G12G10G04G25G05
 105982381.97746  82624166.31643  23304848.3674                   23304846.0314
  48445629.26648  37802710.27046  21064009.2504                   21064004.0354
  65718603.89547  51255748.27346  20880659.1564                   20880655.3204
  64361624.26647  50194457.77344  22173021.7424                   22173018.6524
  45527186.64146                  35530483.46543  24107224.9454   24107222.2424
  86831271.33248  67705896.77345  21709373.8984                   21709372.4734
  69313179.99648  54057638.85546  20218422.1564                   20218418.5434
 11  7 24  3 35  0.0000000  0  7G29G02G12G10G04G25G05
 105812058.72746  82491446.97743  23272436.9224                   23272434.2074
  48392260.69547  37761124.37946  21053853.8674                   21053848.3244
  65667011.45347  51215546.35946  20870841.4694                   20870837.9694
  64359902.48047  50193116.12144  22172694.3674                   22172691.1254
  45521566.13746                  35526103.87543  24106154.8754   24106153.0354
  86710950.78148  67612140.51245  21686477.4844                   21686476.2344
  69213851.18048  53980239.79346  20199520.4224                   20199517.0354
 11  7 24  3 35 30.0000000  0  7G29G02G12G10G04G25G05
 105641753.39846  82358741.60543  23240029.1174                   23240026.3014
  48339037.14547  37719651.50045  21043725.7034                   21043720.0784
  65615977.44548  51175779.59846  20861129.8524                   20861126.0784
  64358559.17647  50192069.39544  22172438.3594                   22172435.2344
  45515914.41846                  35521699.93842  24105078.9384   24105077.0234
  86591205.32047  67518832.37145  21663690.9844                   21663689.6214
  69115114.51648  53903302.14846  20180731.7274                   20180728.0204
 11  7 24  3 36  0.0000000  0  7G29G02G12G10G04G25G05
 105471473.16846  82226055.78943  23207625.2974                   23207622.5784
  48285964.01647  37678295.82045  21033626.1484                   21033620.6094
  65565506.68047  51136451.73046  20851525.7424                   20851521.6724
  64357597.75047  50191320.23044  22172256.4924                   22172252.2344
  45510236.75446                  35517275.76242  24103999.6644   24103996.8524
  86472041.92248  67425977.78145  21641015.0704                   21641013.1214
  69016975.58248  53826830.27346  20162056.3444                   20162052.7384
 11  7 24  3 36 30.0000000  0  7G29G02G12G10G04G25G05
 105301218.85546  82093390.13344  23175227.3134                   23175224.0664
  48233040.34447  37637056.61345  21023555.0314                   21023549.8054
  65515597.73847  51097561.62146  20842028.5634                   20842024.9844
  64357014.83647  50190866.03144  22172144.6254                   22172141.1994
  45504532.31646                  35512830.79743  24102913.4774   24102911.4654
  86353461.20348  67333577.22345  21618449.4614                   21618448.2114
  68919433.61348  53750823.55546  20143495.0864                   20143491.1844
 11  7 24  3 37  0.0000000  0  7G29G02G12G10G04G25G05
 106706413.07046  83188346.69943  23442626.3984                   23442624.2894
  49755682.63747  38823531.13745  21313304.6804                   21313299.0044
  67041665.67648  52286705.46146  21132429.4144                   21132425.6174
  65932223.36747  51418301.24644  22471896.0944                   22471893.9064
  47074216.49646                  36735961.29742  24401614.9534   24401612.9304
  87810883.79347  68469231.19145  21895787.9774                   21895786.6294
  70397908.20348  54902881.69146  20424838.9774                   20424835.4454
 11  7 24  3 37 30.0000000  0  7G29G02G12G10G04G25G05
 106536208.10946  83055719.49644  23410237.4304                   23410235.2854
  49703048.70347  38782517.68846  21303288.9224                   21303283.3014
  66992868.04747  52248681.33246  21123143.7894                   21123139.8324
  65932382.73447  51418425.42244  22471927.1884                   22471923.9694
  47068450.62146                  36731468.40642  24400517.1884   24400515.4144
  87693464.74648  68377735.85245  21873443.8524                   21873442.0204
  70301554.17648  54827800.63746  20406503.7664                   20406500.2424
 11  7 24  3 38  0.0000000  0  7G29G02G12G10G04G25G05
 106366029.63346  82923112.94144  23377853.6484                   23377851.3874
  49650558.49647  38741616.23446  21293299.7034                   21293294.7274
  66944623.61748  52211088.26646  21113963.2034                   21113959.1684
  65932908.28947  51418834.93844  22472028.3204                   22472024.5004
  47062653.51246                  36726951.18443  24399413.8594   24399411.6294
  87576627.90648  68286694.16045  21851210.3594                   21851209.1684
  70205793.40648  54753181.87546  20388280.8754                   20388277.3244
 11  7 24  3 38 30.0000000  0  7G29G02G12G10G04G25G05
 106195879.96546  82790528.81344  23345475.1174                   23345472.8634
  49598212.62947  38700827.26245  21283338.6094                   21283333.4144
  66896932.18448  52173926.11346  21104887.4454                   21104883.6454
  65933798.44147  51419528.54344  22472196.7734                   22472193.6564
  47056825.64846                  36722409.94542  24398304.7504   24398302.9224
  87460375.37548  68196107.76646  21829087.6484                   21829087.2774
  70110626.61748  54679025.95746  20370170.9774                   20370167.7704
 11  7 24  3 39  0.0000000  0  7G29G02G12G10G04G25G05
 106025760.07046  82657967.90244  23313102.9144                   23313100.0354
  49546010.06647  38660149.93445  21273405.4924                   21273399.8094
  66849791.55148  52137193.14546  21095917.3134                   21095913.5204
  65935049.71947  51420503.55544  22472434.6724                   22472432.2464
  47050966.41846                  36717844.35243  24397190.5944   24397188.4804
  87344707.46948  68105976.92646  21807077.4614                   21807076.0004
  70016053.52048  54605332.63746  20352174.8524                   20352170.5984
 11  7 24  3 39 30.0000000  0  7G29G02G12G10G04G25G05
 105855672.09846  82525431.85544  23280735.7974                   23280733.2114
  49493950.88747  38619584.34045  21263498.9384                   21263492.8204
  66803200.93848  52100888.75846  21087051.2194                   21087047.2704
  65936660.18447  51421758.40644  22472741.1254                   22472738.0664
  47045075.77746                  36713254.25042  24396069.7424   24396066.8364
  87229625.92647  68016303.00845  21785177.7344                   21785176.5944
  69922074.55948  54532102.29346  20334291.0474                   20334287.4494
 11  7 24  3 40  0.0000000  0  6G29G02G12G10G25G05
 105685615.45346  82392920.22744  23248374.6644                   23248372.9224
  49442032.85947  38579128.72745  21253619.0084                   21253613.4534
  66757156.97748  52065010.35546  21078289.7344                   21078285.6024
  65938625.32847  51423289.70344  22473115.4454                   22473112.1844
  87115129.89848  67927085.32445  21763390.4454                   21763389.0944
  69828687.30148  54459333.01246  20316520.0234                   20316516.8714
 11  7 24  3 40 30.0000000  0  6G29G02G12G10G25G05
 105515596.60246  82260438.04744  23216021.0554                   23216019.0314
  49390260.06347  38538786.28546  21243767.0164                   21243761.0514
  66711663.01648  52029560.51246  21069632.2114                   21069628.3874
  65940947.20747  51425099.00444  22473557.6804                   22473553.9534
  87001225.13347  67838328.37545  21741714.7504                   21741713.7424
  69735896.34048  54387028.37946  20298862.4144                   20298858.8634
 11  7 24  3 41  0.0000000  0  6G29G02G12G10G25G05
 105345616.06647  82127985.70744  23183676.0234                   23183672.8094
  49338631.16447  38498555.98045  21233942.3524                   21233936.6644
  66666716.37948  51994537.15646  21061079.3594                   21061075.2664
  65943621.67647  51427183.00044  22474066.1094                   22474062.9534
  86887911.59047  67750032.10945  21720152.0164                   21720150.4184
  69643700.86748  54315187.76646  20281318.5394                   20281314.5744
 11  7 24  3 41 30.0000000  0  6G29G02G12G10G25G05
 105175681.10247  81995568.87944  23151337.8284                   23151335.4924
  49287151.50047  38458441.94545  21224145.5784                   21224140.1024
  66622321.17648  51959943.48046  21052631.0864                   21052626.5004
  65946651.85547  51429544.16444  22474642.7894                   22474639.7504
  86775195.85948  67662201.67646  21698702.8594                   21698701.6294
  69552106.07848  54243815.21546  20263888.4614                   20263884.3444
 11  7 24  3 42  0.0000000  0  6G29G02G12G10G25G05
 105005793.57446  81863189.02744  23119009.7034                   23119007.0704
  49235820.98447  38418444.13345  21214377.7814                   21214372.6134
  66578476.33648  51925778.65646  21044287.6174                   21044283.7854
  65950035.45746  51432180.71944  22475286.5004                   22475283.7664
  86663079.38748  67574838.19545  21677367.5234                   21677366.3134
  69461112.06648  54172910.80546  20246572.8134                   20246569.3164
